[[{"header":{"parameterUnit":"m.s-1","parameterCategory":1,"la1":30.6,"la2":28.766,"lo1":-90.7593,"lo2":-88.6598,"dy":0.0162,"dx":0.0183,"nx":116,"ny":114,"refTime":"2023-04-17T12:00:00:Z","depth":0,"parameterNumber":2,"parameterNumberName":"U-component_of_WINDS"},"data":[0.0,0.0,0.0,0.0,0.0,0.0,0.0,0.0,0.0,0.0,0.0,0.0,0.0,0.0,0.0,0.0,0.0,0.0,0.0,0.0,0.0,0.0,0.0,0.0,0.0,0.0,0.0,0.0,0.0,0.0,0.0,0.0,0.0,0.0,0.0,0.0,0.0,0.0,0.0,0.0,0.0,0.0,0.0,0.0,0.0,0.0,0.0,0.0,0.0,0.0,0.0,0.0,0.0,0.0,0.0,0.0,0.0,0.0,0.0,0.0,0.0,0.0,0.0,0.0,0.0,0.0,0.0,0.0,0.0,0.0,0.0,0.0,0.0,0.0,0.0,0.0,0.0,0.0,0.0,0.0,0.0,0.0,0.0,0.0,0.0,0.0,0.0,0.0,0.0,0.0,0.0,0.0,0.0,0.0,0.0,0.0,0.0,0.0,0.0,0.0,0.0,0.0,0.0,0.0,0.0,0.0,0.0,0.0,0.0,0.0,0.0,0.0,0.0,0.0,0.0,0.0,0.0,0.0,0.0,0.0,0.0,0.0,0.0,0.0,0.0,0.0,0.0,0.0,0.0,0.0,0.0,0.0,0.0,0.0,0.0,0.0,0.0,0.0,0.0,0.0,0.0,0.0,0.0,0.0,0.0,0.0,0.0,0.0,0.0,0.0,0.0,0.0,0.0,0.0,0.0,0.0,0.0,0.0,0.0,0.0,0.0,0.0,0.0,0.0,0.0,0.0,0.0,0.0,0.0,0.0,0.0,0.0,0.0,0.0,0.0,0.0,0.0,0.0,0.0,0.0,0.0,0.0,0.0,0.0,0.0,0.0,0.0,0.0,0.0,0.0,0.0,0.0,0.0,0.0,0.0,0.0,0.0,0.0,0.0,0.0,0.0,0.0,0.0,0.0,0.0,0.0,0.0,0.0,0.0,0.0,0.0,0.0,0.0,0.0,0.0,0.0,0.0,0.0,0.0,0.0,0.0,0.0,0.0,0.0,0.0,0.0,0.0,0.0,0.0,0.0,0.0,0.0,0.0,0.0,0.0,0.0,0.0,0.0,0.0,0.0,0.0,0.0,0.0,0.0,0.0,0.0,0.0,0.0,0.0,0.0,0.0,0.0,0.0,0.0,0.0,0.0,0.0,0.0,0.0,0.0,0.0,0.0,0.0,0.0,0.0,0.0,0.0,0.0,0.0,0.0,0.0,0.0,0.0,0.0,0.0,0.0,0.0,0.0,0.0,0.0,0.0,0.0,0.0,0.0,0.0,0.0,0.0,0.0,0.0,0.0,0.0,0.0,0.0,0.0,0.0,0.0,0.0,0.0,0.0,0.0,0.0,0.0,0.0,0.0,0.0,0.0,0.0,0.0,0.0,0.0,0.0,0.0,0.0,0.0,0.0,0.0,0.0,0.0,0.0,0.0,0.0,0.0,0.0,0.0,0.0,0.0,0.0,0.0,0.0,0.0,0.0,0.0,0.0,0.0,0.0,0.0,0.0,0.0,0.0,0.0,0.0,0.0,0.0,0.0,0.0,0.0,0.0,0.0,0.0,0.0,0.0,0.0,0.0,0.0,0.0,0.0,0.0,0.0,0.0,0.0,0.0,0.0,0.0,0.0,0.0,0.0,0.0,0.0,0.0,0.0,0.0,0.0,0.0,0.0,0.0,0.0,0.0,0.0,0.0,0.0,0.0,0.0,0.0,0.0,0.0,0.0,0.0,0.0,0.0,0.0,0.0,0.0,0.0,0.0,0.0,0.0,0.0,0.0,0.0,0.0,0.0,0.0,0.0,0.0,0.0,0.0,0.0,0.0,0.0,0.0,0.0,0.0,0.0,0.0,0.0,0.0,0.0,0.0,0.0,0.0,0.0,0.0,0.0,0.0,0.0,0.0,0.0,0.0,0.0,0.0,0.0,0.0,0.0,0.0,0.0,0.0,0.0,0.0,0.0,0.0,0.0,0.0,0.0,0.0,0.0,0.0,0.0,0.0,0.0,0.0,0.0,0.0,0.0,0.0,0.0,0.0,0.0,0.0,0.0,0.0,0.0,0.0,0.0,0.0,0.0,0.0,0.0,0.0,0.0,0.0,0.0,0.0,0.0,0.0,0.0,0.0,0.0,0.0,0.0,0.0,0.0,0.0,0.0,0.0,0.0,0.0,0.0,0.0,0.0,0.0,0.0,0.0,0.0,0.0,0.0,0.0,0.0,0.0,0.0,0.0,0.0,0.0,0.0,0.0,0.0,0.0,0.0,0.0,0.0,0.0,0.0,0.0,0.0,0.0,0.0,0.0,0.0,0.0,0.0,0.0,0.0,0.0,0.0,0.0,0.0,0.0,0.0,0.0,0.0,0.0,0.0,0.0,0.0,0.0,0.0,0.0,0.0,0.0,0.0,0.0,0.0,0.0,0.0,0.0,0.0,0.0,0.0,0.0,0.0,0.0,0.0,0.0,0.0,0.0,0.0,0.0,0.0,0.0,0.0,0.0,0.0,0.0,0.0,0.0,0.0,0.0,0.0,0.0,0.0,0.0,0.0,0.0,0.0,0.0,0.0,0.0,0.0,0.0,0.0,0.0,0.0,0.0,0.0,0.0,0.0,0.0,0.0,0.0,0.0,0.0,0.0,0.0,0.0,0.0,0.0,0.0,0.0,0.0,0.0,0.0,0.0,0.0,0.0,0.0,0.0,0.0,0.0,0.0,0.0,0.0,0.0,0.0,0.0,0.0,0.0,0.0,0.0,0.0,0.0,0.0,0.0,0.0,0.0,0.0,0.0,0.0,0.0,0.0,0.0,0.0,0.0,0.0,0.0,0.0,0.0,0.0,0.0,0.0,0.0,0.0,0.0,0.0,0.0,0.0,0.0,0.0,0.0,0.0,0.0,0.0,0.0,0.0,0.0,0.0,0.0,0.0,0.0,0.0,0.0,0.0,0.0,0.0,0.0,0.0,0.0,0.0,0.0,0.0,0.0,0.0,0.0,0.0,0.0,0.0,0.0,0.0,0.0,0.0,0.0,0.0,0.0,0.0,0.0,0.0,0.0,0.0,0.0,0.0,0.0,0.0,0.0,0.0,0.0,0.0,0.0,0.0,0.0,0.0,0.0,0.0,0.0,0.0,0.0,0.0,0.0,0.0,0.0,0.0,0.0,0.0,0.0,0.0,0.0,0.0,0.0,0.0,0.0,0.0,0.0,0.0,0.0,0.0,0.0,0.0,0.0,0.0,0.0,0.0,0.0,0.0,0.0,0.0,0.0,0.0,0.0,0.0,0.0,0.0,0.0,0.0,0.0,0.0,0.0,0.0,0.0,0.0,0.0,0.0,0.0,0.0,0.0,0.0,0.0,0.0,0.0,0.0,0.0,0.0,0.0,0.0,0.0,0.0,0.0,0.0,0.0,0.0,0.0,0.0,0.0,0.0,0.0,0.0,0.0,0.0,0.0,0.0,0.0,0.0,0.0,0.0,0.0,0.0,0.0,0.0,0.0,0.0,0.0,0.0,0.0,0.0,0.0,0.0,0.0,0.0,0.0,0.0,0.0,0.0,0.0,0.0,0.0,0.0,0.0,0.0,0.0,0.0,0.0,0.0,0.0,0.0,0.0,0.0,0.0,0.0,0.0,0.0,0.0,0.0,0.0,0.0,0.0,0.0,0.0,0.0,0.0,0.0,0.0,0.0,0.0,0.0,0.0,0.0,0.0,0.0,0.0,0.0,0.0,0.0,0.0,0.0,0.0,0.0,0.0,0.0,0.0,0.0,0.0,0.0,0.0,0.0,0.0,0.0,0.0,0.0,0.0,0.0,0.0,0.0,0.0,0.0,0.0,0.0,0.0,0.0,0.0,0.0,0.0,0.0,0.0,0.0,0.0,0.0,0.0,0.0,0.0,0.0,0.0,0.0,0.0,0.0,0.0,0.0,0.0,0.0,0.0,0.0,0.0,0.0,0.0,0.0,0.0,0.0,0.0,0.0,0.0,0.0,0.0,0.0,0.0,0.0,0.0,0.0,0.0,0.0,0.0,0.0,0.0,0.0,0.0,0.0,0.0,0.0,0.0,0.0,0.0,0.0,0.0,0.0,0.0,0.0,0.0,0.0,0.0,0.0,0.0,0.0,0.0,0.0,0.0,0.0,0.0,0.0,0.0,0.0,0.0,0.0,0.0,0.0,0.0,0.0,0.0,0.0,0.0,0.0,0.0,0.0,0.0,0.0,0.0,0.0,0.0,0.0,0.0,0.0,0.0,0.0,0.0,0.0,0.0,0.0,0.0,0.0,0.0,0.0,0.0,0.0,0.0,0.0,0.0,0.0,0.0,0.0,0.0,0.0,0.0,0.0,0.0,0.0,0.0,0.0,0.0,0.0,0.0,0.0,0.0,0.0,0.0,0.0,0.0,0.0,0.0,0.0,0.0,0.0,0.0,0.0,0.0,0.0,0.0,0.0,0.0,0.0,0.0,0.0,0.0,0.0,0.0,0.0,0.0,0.0,0.0,0.0,0.0,0.0,0.0,0.0,0.0,0.0,0.0,0.0,0.0,0.0,0.0,0.0,0.0,0.0,0.0,0.0,0.0,0.0,0.0,0.0,0.0,0.0,0.0,0.0,0.0,0.0,0.0,0.0,0.0,0.0,0.0,0.0,0.0,0.0,0.0,0.0,0.0,0.0,0.0,0.0,0.0,0.0,0.0,0.0,0.0,0.0,0.0,0.0,0.0,0.0,0.0,0.0,0.0,0.0,0.0,0.0,0.0,0.0,0.0,0.0,0.0,0.0,0.0,0.0,0.0,0.0,0.0,0.0,0.0,0.0,0.0,0.0,0.0,0.0,0.0,0.0,0.0,0.0,0.0,0.0,0.0,0.0,0.0,0.0,0.0,0.0,0.0,0.0,0.0,0.0,0.0,0.0,0.0,0.0,0.0,0.0,0.0,0.0,0.0,0.0,0.0,0.0,0.0,0.0,0.0,0.0,0.0,0.0,0.0,0.0,0.0,0.0,0.0,0.0,0.0,0.0,0.0,0.0,0.0,0.0,0.0,0.0,0.0,0.0,0.0,0.0,0.0,0.0,0.0,0.0,0.0,0.0,0.0,0.0,0.0,0.0,0.0,0.0,0.0,0.0,0.0,0.0,0.0,0.0,0.0,0.0,0.0,0.0,0.0,0.0,0.0,0.0,0.0,0.0,0.0,0.0,0.0,0.0,0.0,0.0,0.0,0.0,0.0,0.0,0.0,0.0,0.0,0.0,0.0,0.0,0.0,0.0,0.0,0.0,0.0,0.0,0.0,0.0,0.0,0.0,0.0,0.0,0.0,0.0,0.0,0.0,0.0,0.0,0.0,0.0,0.0,0.0,0.0,0.0,0.0,0.0,0.0,0.0,0.0,0.0,0.0,0.0,0.0,0.0,0.0,0.0,0.0,0.0,0.0,0.0,0.0,0.0,0.0,0.0,0.0,0.0,0.0,0.0,0.0,0.0,0.0,0.0,0.0,0.0,0.0,0.0,0.0,0.0,0.0,0.0,0.0,0.0,0.0,0.0,0.0,0.0,0.0,0.0,0.0,0.0,0.0,0.0,0.0,0.0,0.0,0.0,0.0,0.0,0.0,0.0,0.0,0.0,0.0,0.0,0.0,0.0,0.0,0.0,0.0,0.0,0.0,0.0,0.0,0.0,0.0,0.0,0.0,0.0,0.0,0.0,0.0,0.0,0.0,0.0,0.0,0.0,0.0,0.0,0.0,0.0,0.0,0.0,0.0,0.0,0.0,0.0,0.0,0.0,0.0,0.0,0.0,0.0,0.0,0.0,0.0,0.0,0.0,0.0,0.0,0.0,0.0,0.0,0.0,0.0,0.0,0.0,0.0,0.0,0.0,0.0,0.0,0.0,0.0,0.0,0.0,0.0,0.0,0.0,0.0,0.0,0.0,0.0,0.0,0.0,0.0,0.0,0.0,0.0,0.0,0.0,0.0,0.0,0.0,0.0,0.0,0.0,0.0,0.0,0.0,0.0,0.0,0.0,0.0,0.0,0.0,0.0,0.0,0.0,0.0,0.0,0.0,0.0,0.0,0.0,0.0,0.0,0.0,0.0,0.0,0.0,0.0,0.0,0.0,0.0,0.0,0.0,0.0,0.0,-2.1525,-2.0699,0.0,0.0,0.0,0.0,0.0,0.0,0.0,0.0,0.0,0.0,0.0,0.0,0.0,0.0,0.0,0.0,0.0,0.0,0.0,0.0,0.0,0.0,0.0,0.0,0.0,0.0,0.0,0.0,0.0,0.0,0.0,0.0,0.0,0.0,0.0,0.0,0.0,0.0,-2.5895,-2.6001,-2.6138,-2.6778,-2.6259,-2.4775,0.0,0.0,0.0,0.0,0.0,0.0,0.0,0.0,0.0,0.0,0.0,0.0,0.0,0.0,0.0,0.0,0.0,0.0,0.0,0.0,0.0,0.0,0.0,0.0,0.0,0.0,0.0,0.0,0.0,0.0,0.0,0.0,0.0,0.0,0.0,0.0,0.0,0.0,0.0,0.0,0.0,0.0,0.0,0.0,0.0,0.0,0.0,0.0,0.0,0.0,0.0,0.0,0.0,0.0,0.0,0.0,0.0,0.0,0.0,0.0,0.0,0.0,0.0,0.0,0.0,0.0,0.0,0.0,0.0,0.0,-2.4115,-2.269,0.0,0.0,0.0,0.0,0.0,0.0,0.0,0.0,0.0,0.0,0.0,0.0,0.0,0.0,0.0,0.0,0.0,0.0,0.0,0.0,0.0,0.0,0.0,0.0,-2.6997,-2.714,-2.6681,-2.658,0.0,0.0,0.0,0.0,0.0,0.0,0.0,0.0,0.0,-2.7766,-2.8177,-2.8644,-2.9194,-3.0396,-2.9266,-2.6261,-2.5325,0.0,0.0,0.0,0.0,0.0,0.0,0.0,0.0,0.0,0.0,0.0,0.0,0.0,0.0,0.0,0.0,0.0,0.0,0.0,0.0,0.0,0.0,0.0,0.0,0.0,0.0,0.0,0.0,0.0,0.0,0.0,0.0,0.0,0.0,0.0,0.0,0.0,0.0,0.0,0.0,0.0,0.0,0.0,0.0,0.0,0.0,0.0,0.0,0.0,0.0,0.0,0.0,0.0,0.0,0.0,0.0,0.0,0.0,0.0,0.0,0.0,0.0,0.0,-3.0825,-3.1428,-3.2404,-3.1649,-3.122,-3.0869,-2.7652,-2.5601,-2.4474,-2.3862,0.0,0.0,0.0,0.0,0.0,0.0,0.0,0.0,0.0,0.0,0.0,0.0,0.0,0.0,0.0,0.0,0.0,0.0,0.0,0.0,0.0,-2.7525,-2.7839,-2.8418,-2.8364,-2.8364,0.0,0.0,0.0,0.0,0.0,0.0,0.0,-2.9898,-2.9666,-2.8569,-3.0199,-3.1596,-3.273,-3.2925,-3.2718,-3.2182,-2.9707,-2.8733,-2.88,0.0,0.0,0.0,0.0,0.0,0.0,0.0,0.0,0.0,0.0,0.0,0.0,0.0,0.0,0.0,0.0,0.0,0.0,0.0,0.0,0.0,0.0,0.0,0.0,0.0,0.0,0.0,0.0,0.0,0.0,0.0,0.0,0.0,0.0,0.0,0.0,0.0,0.0,0.0,0.0,0.0,-2.6804,-2.6302,0.0,0.0,0.0,0.0,0.0,0.0,0.0,0.0,0.0,0.0,0.0,0.0,0.0,-3.2001,-3.2611,-3.4192,-3.4964,-3.4844,-3.5745,-3.6346,-3.6606,-3.6316,-3.5951,-3.5493,-3.41,0.0,-2.7733,-2.6222,0.0,0.0,0.0,0.0,0.0,0.0,0.0,0.0,0.0,0.0,0.0,0.0,0.0,0.0,0.0,0.0,0.0,0.0,0.0,0.0,0.0,-2.8681,-2.9117,-2.8652,-3.0614,-3.1079,-2.922,-3.0529,0.0,0.0,0.0,-2.9987,-2.961,-3.0248,-3.1033,-3.1903,-3.3806,-3.5182,-3.6005,-3.6817,-3.6687,-3.5837,-3.5107,-3.2831,-2.9512,-2.7693,0.0,0.0,0.0,0.0,0.0,0.0,0.0,0.0,0.0,0.0,0.0,0.0,0.0,0.0,0.0,0.0,0.0,0.0,0.0,0.0,0.0,0.0,0.0,0.0,0.0,0.0,0.0,0.0,0.0,0.0,0.0,0.0,0.0,0.0,0.0,0.0,0.0,0.0,0.0,-2.7939,-2.8771,-2.8767,-2.9634,-2.9691,0.0,0.0,0.0,0.0,0.0,0.0,0.0,0.0,0.0,-3.4769,-3.5499,-3.62,-3.6847,-3.7972,-3.8662,-3.8868,-3.9574,-3.9925,-4.0032,-3.98,-3.9564,-3.9295,-3.764,-3.5702,-3.342,-2.9653,-2.7223,-2.5762,0.0,0.0,0.0,0.0,-2.4664,-2.5159,0.0,0.0,0.0,0.0,0.0,0.0,0.0,0.0,0.0,0.0,0.0,0.0,-2.8826,-3.0155,-3.0885,-3.074,-3.2743,-3.3112,-3.1075,-3.2062,0.0,0.0,0.0,-3.0394,-2.9871,-3.1148,-3.3097,-3.5648,-3.7738,-3.912,-3.9776,-4.1006,-4.0965,-3.9884,-4.028,-3.7068,-3.1341,-2.9554,-2.8416,-2.7605,0.0,0.0,0.0,0.0,0.0,0.0,0.0,0.0,0.0,0.0,0.0,0.0,0.0,0.0,0.0,0.0,0.0,0.0,0.0,0.0,0.0,0.0,0.0,0.0,0.0,0.0,0.0,0.0,0.0,0.0,0.0,0.0,0.0,0.0,0.0,0.0,0.0,-3.0309,-3.1132,-3.1034,-3.2168,-3.2317,0.0,0.0,0.0,0.0,0.0,0.0,-3.519,-3.6537,-3.7764,-3.8901,-3.9738,-4.0487,-4.1137,-4.1833,-4.2491,-4.315,-4.3455,-4.3734,-4.391,-4.3488,-4.3123,-4.2802,-4.0773,-3.9437,-3.8361,-3.3023,-2.9769,-2.8072,-2.7555,-2.7178,-2.6927,-2.7077,-2.7444,-2.7996,0.0,0.0,0.0,0.0,0.0,0.0,0.0,0.0,0.0,0.0,0.0,-2.8855,-3.193,-3.198,-3.3199,-3.6548,-3.4363,-3.3431,-3.4987,-3.2236,-3.0832,-3.1437,-3.0887,-3.0598,-3.0569,-3.359,-3.6409,-3.8957,-4.1482,-4.334,-4.4574,-4.5285,-4.556,-4.5441,-4.4595,-4.1434,-3.6551,-3.405,-3.2273,-3.0939,-2.8472,0.0,0.0,0.0,0.0,0.0,0.0,0.0,0.0,0.0,0.0,0.0,0.0,0.0,0.0,0.0,0.0,0.0,0.0,0.0,0.0,0.0,0.0,0.0,0.0,0.0,0.0,0.0,0.0,0.0,0.0,0.0,0.0,0.0,0.0,0.0,0.0,0.0,0.0,-3.2617,-3.519,0.0,0.0,0.0,0.0,-3.525,-3.7584,-3.932,-4.0008,-4.1332,-4.2312,-4.2961,-4.4287,-4.5274,-4.592,-4.6621,-4.7279,-4.7938,-4.7953,-4.8312,-4.891,-4.8015,-4.7062,-4.608,-4.439,-4.2761,-4.0905,-3.5738,-3.2352,-3.0382,-2.9829,-2.8976,-2.8097,-2.8599,-2.9176,-2.9679,0.0,0.0,0.0,0.0,0.0,0.0,0.0,0.0,-2.6811,-2.6806,-2.8741,-3.106,-3.347,-3.5487,-3.731,-3.8848,-3.9243,-3.8463,-3.6309,-3.5342,-3.4145,-3.2546,-3.1645,-3.2164,-3.4225,-3.6606,-3.9305,-4.2295,-4.4414,-4.5895,-4.6766,-4.7404,-4.7724,-4.7724,-4.7798,-4.6271,-4.3298,-3.8017,-3.4929,-3.3187,-2.942,-2.7576,0.0,0.0,0.0,0.0,0.0,0.0,0.0,0.0,0.0,0.0,0.0,0.0,0.0,0.0,0.0,0.0,0.0,0.0,0.0,0.0,0.0,0.0,0.0,0.0,0.0,0.0,0.0,0.0,0.0,0.0,0.0,0.0,0.0,0.0,0.0,0.0,0.0,-3.7464,-3.899,0.0,-3.7734,-3.8242,-3.899,-3.9895,-4.1564,-4.324,-4.4766,-4.6082,-4.71,-4.7714,-4.8656,-4.9015,-4.879,-4.903,-4.9105,-4.897,-4.897,-4.909,-4.9299,-4.897,-4.8298,-4.7254,-4.5656,-4.4322,-4.297,-4.0004,-3.6989,-3.414,-3.3209,-3.2209,-3.1336,-3.1537,-3.1964,-3.2441,0.0,0.0,0.0,0.0,0.0,0.0,0.0,0.0,-2.6707,-2.737,-3.0009,-3.2757,-3.5146,-3.7988,-4.0415,-4.2109,-4.203,-4.0903,-3.863,-3.6883,-3.5003,-3.2942,-3.2622,-3.396,-3.7215,-4.0031,-4.2934,-4.5924,-4.8043,-4.9291,-4.9727,-5.0133,-5.022,-5.0046,-5.0685,-5.0298,-4.8738,-4.3444,-3.9293,-3.5795,-3.1769,-2.9821,-2.8988,0.0,0.0,0.0,0.0,0.0,0.0,0.0,0.0,0.0,0.0,0.0,0.0,0.0,0.0,0.0,0.0,0.0,0.0,0.0,0.0,0.0,0.0,0.0,0.0,0.0,0.0,0.0,0.0,0.0,0.0,0.0,0.0,0.0,0.0,-3.7515,-3.9695,-4.1504,-4.3299,-4.3748,-4.2192,-4.2851,-4.3658,-4.4357,-4.5574,-4.71,-4.8865,-4.9793,-5.0571,-5.1199,-5.1648,-5.1558,-5.0853,-5.0853,-5.0571,-4.9912,-4.9912,-4.9912,-4.9912,-4.9703,-4.9134,-4.8298,-4.699,-4.5869,-4.4889,-4.3409,-4.119,-3.8539,-3.6796,-3.5434,-3.4441,-3.4788,-3.4889,-3.4895,0.0,0.0,0.0,0.0,0.0,0.0,0.0,-2.588,-2.655,-2.8394,-3.0944,-3.3842,-3.7111,-3.9469,-4.2467,-4.6615,-4.2372,-4.021,-4.1943,-3.6513,-3.3044,-3.2593,-3.3848,-3.6054,-3.9334,-4.3718,-4.723,-4.9785,-5.2281,-5.35,-5.3471,-5.35,-5.321,-5.271,-5.3297,-5.3239,-5.252,-5.0269,-4.5465,-3.9078,-3.5721,-3.3913,-3.2877,0.0,0.0,0.0,0.0,0.0,0.0,0.0,0.0,0.0,0.0,0.0,0.0,0.0,0.0,0.0,0.0,0.0,0.0,0.0,0.0,0.0,0.0,0.0,0.0,0.0,0.0,0.0,0.0,0.0,0.0,0.0,0.0,0.0,-3.7367,-4.1258,-4.4221,-4.4545,-4.7953,-4.903,-4.5873,-4.7951,-4.9209,-4.8536,-4.9673,-5.0913,-5.2276,-5.2306,-5.2606,-5.3264,-5.3264,-5.2905,-5.2247,-5.2217,-5.1887,-5.1229,-5.1229,-5.1229,-5.1199,-5.0524,-4.9912,-4.9224,-4.8298,-4.7422,-4.655,-4.5683,-4.4642,-4.329,-4.0481,-3.847,-3.7235,-3.8091,-3.7802,-3.685,0.0,0.0,0.0,0.0,0.0,0.0,0.0,-2.5356,-2.6218,-2.7128,-3.1536,-3.5798,-3.9009,-4.245,-4.5713,-4.8669,-4.4235,-4.1223,-4.1043,-3.608,-3.3612,-3.4574,-3.6228,-3.9334,-4.395,-4.6592,-4.8972,-5.1091,-5.2717,-5.3297,-5.2833,-5.3297,-5.3675,-5.3994,-5.4633,-5.4807,-5.4521,-5.2636,-5.0191,-4.7184,-4.1251,-3.7253,-3.4729,0.0,0.0,0.0,0.0,0.0,0.0,0.0,0.0,0.0,0.0,0.0,0.0,0.0,0.0,0.0,0.0,0.0,0.0,0.0,0.0,0.0,0.0,0.0,0.0,0.0,0.0,0.0,0.0,0.0,0.0,0.0,-3.906,-4.1155,-4.1942,-4.456,-4.7418,-5.0143,-5.1566,-5.2217,-5.1798,-5.2426,-5.2965,-5.3264,-5.3623,-5.4401,-5.5688,-5.488,-5.467,-5.5329,-5.488,-5.4072,-5.2935,-5.2905,-5.2336,-5.1229,-5.1229,-5.1229,-5.1199,-5.0973,-5.0239,-4.8998,-4.8593,-4.7702,-4.658,-4.6108,-4.5351,-4.4196,-4.2334,-4.0701,-3.9285,-3.8777,-3.7762,-3.6553,0.0,0.0,0.0,0.0,0.0,0.0,0.0,-2.4708,-2.5622,-2.6915,-3.1561,-3.5769,-3.8373,-4.2031,-4.4974,-4.646,-4.319,-4.0521,-3.9226,-3.5702,-3.4673,-3.6896,-3.9305,-4.2644,-4.6969,-4.9756,-5.1817,-5.321,-5.4487,-5.4923,-5.4575,-5.5213,-5.5591,-5.5707,-5.6345,-5.6461,-5.6116,-5.4845,-5.3634,-5.2119,-4.7772,-4.3345,-3.9203,-3.7354,-3.56,-3.3972,-3.3185,-3.2988,-3.2864,-3.1261,0.0,0.0,0.0,0.0,0.0,0.0,0.0,0.0,0.0,0.0,0.0,0.0,0.0,0.0,0.0,0.0,0.0,0.0,0.0,0.0,0.0,0.0,0.0,0.0,-4.3402,-4.6491,-4.8335,-4.9334,-5.1155,-5.4598,-5.5645,-5.6017,-5.5867,-5.6107,-5.6196,-5.5987,-5.5987,-5.6196,-5.6675,-5.6017,-5.5658,-5.5748,-5.5388,-5.467,-5.3623,-5.3324,-5.2665,-5.1618,-5.1349,-5.1229,-5.1229,-5.1229,-5.0388,-4.9073,-4.8937,-4.8014,-4.658,-4.6535,-4.6016,0.0,0.0,0.0,0.0,0.0,-3.891,-3.752,0.0,0.0,0.0,0.0,0.0,0.0,0.0,-2.4044,-2.4883,-2.6983,-3.0964,-3.4312,-3.6103,-3.9547,-4.1887,-4.2295,-4.0542,-3.8683,-3.7,-3.5605,-3.6315,-3.9596,-4.2818,-4.5982,-4.9088,-5.2746,-5.4865,-5.5416,-5.6607,-5.7216,-5.7216,-5.7884,-5.7884,-5.7332,-5.8087,-5.8,-5.7274,-5.681,-5.5932,-5.4743,-5.3949,-5.0227,-4.4863,-4.186,-4.0214,-3.9266,-3.7731,-3.6877,-3.6169,-3.4326,0.0,0.0,0.0,0.0,0.0,0.0,0.0,0.0,0.0,0.0,0.0,0.0,0.0,0.0,0.0,0.0,0.0,0.0,0.0,0.0,0.0,0.0,0.0,0.0,-4.8233,-5.223,-5.5342,-5.4864,-5.5271,-5.8011,-5.9434,-5.9727,-5.8471,-5.886,-5.868,-5.7423,-5.7244,-5.7004,-5.6526,-5.6338,0.0,0.0,0.0,-5.488,-5.4221,-5.3593,-5.2935,-5.2187,-5.1618,-5.1289,-5.1229,-5.1229,-5.0511,-4.9254,-4.9209,-4.8194,-4.6535,-4.6756,-4.658,-4.6137,-4.5566,-4.4525,-4.3245,-4.2137,-4.0681,-3.9185,0.0,0.0,0.0,0.0,0.0,0.0,0.0,-2.375,-2.4398,-2.5224,-2.9164,-3.256,-3.4283,-3.7456,-4.0347,-4.2488,-3.9011,-3.6356,-3.5648,-3.6753,-3.9131,-4.2905,-4.6098,-4.9059,-5.1759,-5.4081,-5.53,-5.5416,-5.62,-5.6578,-5.6607,-5.7216,-5.7419,-5.7361,-5.8581,-5.8435,-5.7332,-5.7768,-5.722,-5.5956,-5.4855,-5.1711,-4.7541,-4.6072,-4.4551,-4.2922,-4.1462,-4.1548,-4.2117,-4.059,-4.042,-4.0449,-3.8216,0.0,0.0,0.0,0.0,0.0,0.0,0.0,0.0,0.0,0.0,0.0,0.0,0.0,0.0,0.0,0.0,0.0,0.0,0.0,0.0,-4.8155,-5.1944,-5.5512,-5.8785,-5.9021,-5.9106,-5.972,-6.0466,-6.0595,-5.9787,-5.9817,-5.9548,-5.877,-5.8231,-5.8112,-5.853,-5.7034,-5.6346,-5.6705,-5.5718,-5.488,-5.4221,-5.4072,-5.3414,-5.2187,0.0,0.0,-5.1229,-5.1229,-5.0418,-4.8953,-4.88,-4.7788,-4.6269,-4.6314,-4.6314,-4.6137,-4.5566,-4.4569,-4.3392,-4.2615,-4.1318,-3.9852,0.0,0.0,0.0,0.0,0.0,0.0,0.0,-2.3395,-2.3892,-2.4689,-2.7472,-3.0125,-3.2186,-3.4047,-3.571,-3.7151,-3.473,-3.4008,-3.6111,-3.7812,-4.1134,-4.6592,-4.8972,-5.1381,-5.3936,-5.5242,-5.5736,-5.5416,-5.5736,-5.6084,-5.6432,-5.7013,-5.7477,-5.7826,-5.8493,-5.8435,-5.7797,-5.7797,-5.7448,-5.6783,-5.6192,-5.4343,-5.1753,-5.0326,-4.8878,-4.7423,-4.6376,-4.6051,-4.5795,-4.4453,-4.3851,-4.3297,-4.129,-3.9305,-3.7281,0.0,0.0,0.0,0.0,0.0,0.0,0.0,0.0,0.0,0.0,0.0,0.0,0.0,0.0,-3.9499,0.0,0.0,-4.9256,-5.2456,-5.5624,-5.8431,-6.0377,-6.0937,-6.1259,-6.1634,-6.1749,-6.1533,-6.0685,-6.0595,-6.0176,-5.9189,-5.8501,-5.8261,-5.859,-5.7363,-5.6645,-5.6645,-5.6017,-5.5359,-5.47,-5.4371,-5.3813,-5.2979,-5.2468,-5.1942,-5.147,-5.0926,-5.009,-4.9044,-4.849,-4.7539,-4.6403,-4.6269,-4.6225,-4.6195,-4.5873,-4.5125,-4.4155,-4.384,-4.2676,-4.1294,0.0,0.0,0.0,0.0,0.0,0.0,0.0,-2.292,-2.3195,-2.4324,-2.5762,-2.744,-2.9434,-3.0146,-3.0615,-3.0876,-3.1055,-3.2851,-3.6871,-3.8995,-4.294,-4.9461,-5.1309,-5.3268,-5.5562,-5.5997,-5.6084,-5.5765,-5.5649,-5.5939,-5.6607,-5.7332,-5.7826,-5.8116,-5.8493,-5.8464,-5.8087,-5.7681,-5.7419,-5.7303,-5.7187,-5.652,-5.5423,-5.3801,-5.2491,-5.1404,-5.0528,-4.9267,-4.7843,-4.6987,-4.5888,-4.4618,-4.3108,-4.1831,-4.0118,-3.6431,-3.5793,0.0,0.0,0.0,0.0,0.0,0.0,0.0,0.0,0.0,-3.7638,-4.014,-4.2111,-4.4356,-4.757,-5.0808,-5.3766,-5.6,-5.8794,-6.0788,-6.1261,-6.1674,-6.2173,-6.2812,-6.2581,-6.2076,-6.1167,-6.0984,-6.0416,-5.9189,-5.862,-5.8261,-5.8141,-5.7401,-5.6833,-5.6324,-5.6055,-5.5726,-5.5287,-5.468,-5.4162,-5.3813,-5.2819,-5.2096,-5.1676,-5.0709,-4.9819,-4.9044,-4.797,-4.7096,-4.6476,-4.6269,-4.618,-4.6135,-4.618,-4.577,-4.5082,-4.5082,-4.4148,-4.2754,0.0,0.0,0.0,0.0,0.0,0.0,0.0,0.0,0.0,-2.3145,-2.3929,-2.4664,-2.5408,-2.6425,-2.7318,-2.7998,-3.1528,-3.4539,-3.6564,-4.0684,-4.5129,-4.9662,-5.2627,-5.4865,-5.6258,-5.5794,-5.6026,-5.71,-5.6549,-5.6607,-5.7245,-5.8493,-5.8493,-5.7507,-5.9219,-5.9016,-5.7448,-5.7971,-5.7855,-5.7245,-5.6723,-5.6432,-5.6229,-5.5398,-5.4335,-5.3025,-5.1321,-4.9478,-4.7901,-4.8288,-4.6848,-4.485,-4.4647,-4.4095,-4.2905,-3.9625,0.0,-3.5967,-3.4486,-3.3918,-3.4251,-3.6264,-3.6658,-3.7765,0.0,0.0,-4.3348,-4.6353,-4.7473,-4.8719,-5.113,-5.4199,-5.6702,-5.7852,-6.041,-6.2232,-6.1998,-6.1556,-6.1551,-6.2154,-6.1896,-6.1541,-6.1138,-6.0565,-5.9907,-5.9159,-5.9039,-5.874,-5.8141,-5.7272,-5.6727,-5.6614,-5.5567,-5.5181,-5.5656,-5.5287,-5.466,-5.3813,-5.3099,-5.2269,-5.1434,-5.0755,-4.9657,-4.8236,-4.6732,-4.6088,-4.5985,-4.6135,-4.609,-4.5956,-4.6135,-4.6032,-4.5779,-4.5779,-4.498,-4.3719,0.0,0.0,0.0,0.0,0.0,0.0,0.0,0.0,0.0,0.0,-2.2874,-2.3503,-2.4767,-2.5375,-2.5792,-2.6066,-2.8739,-3.1865,-3.5328,-3.9008,-4.3732,-4.9756,-5.1534,-5.3468,-5.5794,-5.5213,-5.5329,-5.62,-5.5213,-5.5416,-5.6781,-5.6955,-5.7129,-5.7332,-5.8145,-5.7884,-5.6839,-5.7448,-5.7129,-5.62,-5.6345,-5.5736,-5.4604,-5.3588,-5.1933,-5.0171,-5.0184,-4.8672,0.0,0.0,-4.5256,-4.4356,-4.4356,-4.3689,-4.2411,-3.9915,-3.8347,0.0,-3.6422,-3.6353,-3.6898,-3.8243,-3.9905,-4.1997,-4.5106,-4.63,-4.758,-5.0428,-5.2004,-5.3626,-5.5984,-5.7941,-5.936,0.0,-6.1204,-6.1969,-6.185,-6.094,-6.0203,-5.9918,-5.9173,-5.922,-6.036,-5.9907,-5.9344,-5.8912,-5.8632,-5.8483,-5.8411,-5.7481,-5.7116,-5.7481,-5.6281,-5.5641,-5.5723,-5.5355,-5.4827,-5.4095,-5.3188,-5.2516,-5.1945,-5.0147,-4.8505,-4.7014,-4.6369,-4.6001,-4.594,-4.6001,-4.5956,-4.594,-4.6001,-4.5956,-4.5895,-4.5895,-4.5547,-4.5038,0.0,0.0,0.0,0.0,0.0,0.0,0.0,0.0,0.0,0.0,-2.1945,-2.2423,-2.3865,-2.4372,-2.4443,-2.4058,-2.5942,-2.8866,-3.2913,-3.65,-4.1303,-4.7692,-4.9382,-5.1534,-5.4374,-5.4298,-5.4633,-5.5416,-5.4487,-5.4749,-5.6142,-5.5823,-5.6084,-5.6781,-5.6984,-5.6723,-5.6171,-5.6607,-5.6258,-5.5416,-5.5562,-5.4662,-5.3065,-5.1236,-4.8856,-4.6592,-4.7724,-4.6127,0.0,0.0,-4.1918,-4.1453,-4.1976,-4.1744,-4.0989,-3.9392,-3.8501,-3.7928,-3.7609,-3.837,-3.9597,-4.0871,-4.3448,-4.6211,-4.829,-4.9893,-5.1788,-5.4678,-5.6054,-5.7471,-5.9629,-6.0467,-6.0941,-6.1291,-6.1555,-6.1733,-6.1586,-6.0061,-5.8681,-5.806,-5.6285,-5.6028,-5.8238,-5.8351,-5.8387,-5.853,-5.822,-5.8101,-5.8183,-5.7494,-5.7189,-5.7202,-5.6333,-5.5812,-5.5699,-5.521,-5.4781,-5.4465,-5.3402,-5.2644,-5.2079,-4.9468,-4.7675,-4.6632,-4.6281,-4.6046,-4.5895,-4.5895,-4.5895,-4.5895,-4.5895,-4.5895,-4.5895,-4.5895,-4.5779,-4.5576,0.0,0.0,0.0,0.0,0.0,0.0,0.0,0.0,0.0,0.0,0.0,0.0,0.0,-2.259,-2.2808,-2.168,-2.4163,-2.669,-2.8925,-3.3777,-3.8357,-4.2459,-4.6293,-4.9517,-5.2056,-5.3054,-5.4168,-5.5416,-5.5358,-5.5387,-5.5445,-5.6084,-5.6055,-5.5503,-5.6142,-5.6055,-5.5445,-5.5445,-5.5445,-5.53,-5.4081,-5.321,-5.2304,-4.9088,-4.5924,-4.3224,-4.3921,0.0,0.0,-3.8202,-3.6751,-3.5038,-3.6925,-3.8318,0.0,-3.8434,-3.7907,-3.7558,-3.7565,-3.9268,-4.1754,-4.4761,-4.7332,-5.0014,-5.3393,-5.4835,-5.6413,-5.9704,-5.9717,-5.9492,-6.0906,-6.1114,-6.0969,-6.0794,-6.1469,-6.1939,-6.1666,-5.8962,-5.705,-5.7139,-5.366,-5.2122,0.0,-5.5538,-5.6795,-5.7999,-5.8141,-5.7683,-5.6846,-5.7089,-5.6584,-5.5054,-5.4996,-5.5206,-5.5791,-5.4848,-5.4524,-5.4855,-5.3597,-5.253,-5.1527,-4.8991,-4.78,-4.7683,-4.6463,-4.594,-4.5895,-4.5895,-4.5895,-4.5895,-4.5895,-4.5895,-4.5895,-4.5895,-4.5488,-4.4821,0.0,0.0,0.0,0.0,0.0,0.0,0.0,0.0,0.0,0.0,0.0,0.0,0.0,0.0,0.0,0.0,-2.2702,-2.4526,-2.7153,-3.0597,-3.4347,-3.8338,-4.1528,-4.4886,-4.8324,-4.9478,-5.1225,-5.353,-5.2688,-5.2688,-5.35,-5.2891,-5.2717,-5.292,-5.3588,-5.35,-5.292,-5.3355,-5.2641,-5.1119,-5.0117,-4.8931,-4.7421,-4.4484,-4.1889,-3.9567,0.0,0.0,0.0,-3.437,-3.3877,-3.338,-3.4922,-3.5386,-3.5392,-3.516,-3.6581,-3.8546,-3.9988,-4.2643,-4.5905,-4.9529,-5.2307,-5.4854,-5.7363,-5.8787,-5.9729,-6.019,-5.9411,-5.8423,-5.7754,-5.7281,-5.7247,-5.8041,-5.9323,-6.0291,-6.0618,-5.9526,-5.7542,-5.4479,-5.3127,0.0,0.0,0.0,0.0,-5.6752,-5.706,-5.722,-5.7408,-5.7315,-5.7197,-5.7059,-5.6265,-5.6011,-5.6493,-5.5472,-5.4943,-5.4884,-5.3158,-5.14,-4.964,-4.8362,-4.755,-4.7114,-4.6243,-4.5895,-4.5895,-4.5895,-4.5895,-4.5895,-4.5895,-4.5895,-4.5895,-4.5895,-4.575,-4.5518,0.0,0.0,0.0,0.0,0.0,0.0,0.0,0.0,0.0,0.0,0.0,0.0,0.0,0.0,0.0,0.0,0.0,-2.2648,-2.4865,-2.7218,-2.9923,-3.3074,-3.6104,-3.9186,-4.2379,-4.416,-4.594,-4.7817,-4.7891,-4.8238,-4.8827,-4.847,-4.874,-4.9582,-4.9988,-5.0075,-4.9881,-4.9828,-4.8936,-4.7421,-4.5666,-4.4199,-4.2792,-3.9823,-3.7651,0.0,0.0,0.0,-3.1177,-3.1379,-3.1437,-3.1669,-3.2945,-3.3558,-3.3939,-3.4476,-3.6898,-4.0018,-4.2868,-4.6189,-4.9759,-5.3407,-5.6147,-5.8327,-5.9997,-6.0737,-6.0704,-5.9503,-5.7892,-5.6196,-5.4552,-5.336,-5.3173,-5.4931,-5.5883,-5.6971,-5.8744,-5.7584,-5.5801,-5.3796,-5.2378,-5.1176,0.0,0.0,0.0,-5.5424,-5.61,-5.6586,-5.7104,-5.7412,-5.7467,-5.7189,-5.6632,-5.6435,-5.665,-5.5557,-5.4679,-5.4054,-5.2566,-5.0979,-4.9407,-4.8508,-4.7782,-4.7143,-4.6505,-4.6098,-4.5895,-4.5895,-4.5895,-4.5895,-4.5895,-4.5895,-4.5895,-4.5895,-4.5895,-4.5866,0.0,0.0,0.0,0.0,0.0,0.0,0.0,0.0,0.0,0.0,0.0,0.0,0.0,0.0,0.0,0.0,0.0,0.0,-2.2146,-2.3747,-2.541,-2.6992,-3.0262,-3.2921,-3.4726,-3.7506,-3.8972,-3.9069,-4.1513,-4.2378,-4.1867,-4.3026,-4.424,-4.5401,-4.543,-4.5779,-4.6165,-4.4864,-4.4355,-4.4095,-4.087,-3.931,-3.8533,-3.5381,0.0,0.0,0.0,0.0,0.0,-2.9493,-2.9726,-3.0016,-3.1235,-3.2977,-3.4903,-3.6488,-3.8929,-4.2041,-4.6218,-4.9865,-5.3234,-5.6526,-5.874,-6.039,-6.1332,-6.0671,-5.9463,-5.7737,-5.5329,-5.302,0.0,0.0,-4.9081,-5.1531,-5.1689,-5.2741,-5.6384,-5.3722,-5.2376,0.0,0.0,0.0,0.0,0.0,0.0,-5.4215,0.0,-5.5788,-5.5991,-5.7382,-5.7361,-5.5616,-5.6113,-5.6432,-5.6403,-5.5155,-5.3849,-5.2623,-5.1933,-5.1294,-5.0627,-4.9291,-4.8333,-4.7753,-4.7085,-4.6446,-4.5895,-4.5895,-4.5895,-4.5895,-4.5895,-4.5895,-4.5895,-4.5895,-4.5895,-4.5808,0.0,0.0,0.0,0.0,0.0,0.0,0.0,0.0,0.0,0.0,0.0,0.0,0.0,0.0,0.0,0.0,0.0,0.0,-2.1069,-2.2272,-2.3326,-2.4123,-2.7002,-2.9554,-3.17,-3.4066,0.0,-3.7792,-3.7976,-3.8236,-3.8496,-3.7911,-3.7988,-3.8783,-3.9276,-3.9333,-3.9064,-3.9147,-3.8513,-3.7254,0.0,-3.4875,-3.4312,0.0,0.0,0.0,0.0,0.0,0.0,0.0,0.0,0.0,-3.3089,-3.4974,-3.7487,-3.9866,-4.289,-4.6397,-5.0917,-5.3953,-5.6645,-5.9997,-6.0835,-6.0805,-6.0514,-5.9105,-5.7012,-5.4012,-5.0805,-4.7776,0.0,0.0,0.0,-4.9164,-5.1973,0.0,-5.752,-5.7643,0.0,-5.4908,0.0,-5.3516,-5.2493,-5.2259,0.0,0.0,-5.4439,-5.5278,-5.7196,-5.7465,-5.7438,-5.7202,-5.7096,-5.6868,-5.6403,-5.5155,-5.3849,-5.2623,-5.1933,-5.1294,-5.0627,-4.8827,-4.7927,-4.7724,-4.6621,-4.604,-4.5895,-4.5895,-4.5895,-4.5895,-4.5895,-4.5895,-4.5895,-4.5895,-4.5895,-4.5866,0.0,0.0,0.0,0.0,0.0,0.0,0.0,0.0,0.0,0.0,0.0,0.0,0.0,0.0,0.0,0.0,0.0,0.0,0.0,-2.0865,-2.1343,-2.1641,-2.3401,-2.5205,-2.6956,-2.8472,0.0,0.0,0.0,0.0,-3.2398,-3.2766,-3.3237,-3.3845,-3.4249,-3.4384,-3.4293,-3.4256,0.0,0.0,0.0,0.0,0.0,0.0,0.0,0.0,0.0,0.0,0.0,0.0,0.0,-3.5234,-3.6516,-3.8568,-4.1124,-4.4472,0.0,-5.016,-5.4529,-5.7258,-5.9368,-6.1553,-6.1613,-6.057,-5.8662,-5.6482,-5.3625,-4.9248,-4.6032,0.0,-4.1194,-4.1518,0.0,0.0,0.0,0.0,-5.5806,-5.629,-5.6273,0.0,-5.5501,0.0,-5.427,-5.4083,-5.4502,0.0,-5.5371,-5.5742,-5.7117,-5.7674,-5.7819,-5.7613,-5.7416,-5.6868,-5.5968,-5.501,-5.3849,-5.2623,-5.2194,-5.1556,-5.0627,-4.9553,-4.874,-4.8159,0.0,-4.6824,-4.6301,-4.6301,-4.6127,-4.5895,-4.5895,-4.5895,-4.5895,-4.5895,-4.5895,-4.5895,0.0,0.0,0.0,0.0,0.0,0.0,0.0,0.0,0.0,0.0,0.0,0.0,0.0,0.0,0.0,0.0,0.0,0.0,0.0,0.0,0.0,0.0,-2.0515,-2.1339,-2.2242,0.0,0.0,0.0,0.0,0.0,0.0,0.0,0.0,0.0,0.0,0.0,0.0,0.0,0.0,0.0,0.0,0.0,0.0,0.0,0.0,0.0,0.0,0.0,0.0,0.0,-3.6123,-3.7745,-4.0592,-4.2949,-4.548,-4.9608,-5.1679,-5.3565,-5.755,-5.9907,-6.1373,-6.1942,-6.1403,-5.9762,-5.6199,-5.3138,-4.9608,-4.4329,0.0,-3.9572,-3.8392,-3.8473,-3.9812,-4.3001,0.0,-4.7925,-5.3307,-5.3112,-5.3796,-5.7553,-5.627,-5.543,-5.6442,-5.6067,-5.6258,-5.7361,-5.7149,-5.6913,-5.672,-5.7848,-5.8111,-5.7332,-5.7216,-5.6665,-5.5562,-5.4865,-5.3936,-5.2833,-5.271,-5.1984,-5.0801,-5.0627,-4.9872,-4.8663,-4.8653,-4.7985,-4.694,-4.6807,-4.6505,-4.6011,-4.5924,-4.5895,-4.5895,-4.5895,-4.5895,-4.5895,0.0,0.0,0.0,0.0,0.0,0.0,0.0,0.0,0.0,0.0,-2.006,-1.9811,0.0,0.0,0.0,0.0,0.0,0.0,0.0,0.0,0.0,0.0,-2.1217,-2.1901,-2.166,0.0,0.0,0.0,0.0,0.0,0.0,0.0,0.0,0.0,0.0,0.0,0.0,0.0,0.0,0.0,0.0,0.0,0.0,0.0,0.0,0.0,0.0,0.0,0.0,0.0,-3.8663,-4.0681,-4.3486,-4.6526,-4.9911,-5.3933,-5.5607,-5.6952,-6.0475,-6.1672,-6.1942,-6.2061,-6.0356,-5.758,-5.3605,-4.9385,0.0,0.0,-3.8319,-3.6424,-3.605,-3.7412,-3.9844,-4.3516,-4.5757,0.0,0.0,0.0,-5.5177,0.0,0.0,0.0,0.0,-5.7854,0.0,0.0,-5.8086,-5.8141,-5.8282,-5.7821,-5.7476,-5.7303,-5.6839,-5.6461,-5.6229,-5.5097,-5.44,-5.4168,-5.3094,-5.2165,-5.141,-5.0336,-4.9436,-4.8682,-4.8159,0.0,-4.7579,-4.7056,-4.672,-4.6621,-4.6098,-4.5895,-4.5895,-4.5895,-4.5895,-4.5895,0.0,0.0,0.0,0.0,0.0,0.0,0.0,-1.9968,-2.0548,-2.0846,-2.0759,-2.069,-2.069,-2.044,-2.0289,0.0,0.0,0.0,0.0,0.0,0.0,0.0,0.0,0.0,0.0,0.0,0.0,0.0,0.0,0.0,0.0,0.0,0.0,0.0,0.0,0.0,0.0,0.0,0.0,0.0,0.0,0.0,0.0,0.0,0.0,0.0,0.0,0.0,0.0,0.0,-3.8361,-4.1646,-4.5943,-4.9598,-5.2935,-5.6226,-5.7633,-5.88,-6.1792,-6.26,-6.254,-6.2181,-5.9308,-5.5427,-5.081,0.0,0.0,0.0,-3.5647,-3.4622,-3.484,-3.661,0.0,-4.1448,0.0,0.0,0.0,0.0,0.0,0.0,0.0,0.0,0.0,-5.8725,-5.8958,-5.9277,-5.8668,-5.8202,-5.7967,-5.7534,-5.7303,-5.7303,-5.6723,-5.6403,-5.6403,-5.5155,-5.4517,-5.4517,-5.353,-5.2746,-5.2078,-5.112,-5.0336,-4.9698,-4.9059,-4.8566,-4.8246,-4.7927,-4.7387,-4.6749,-4.6505,-4.6185,-4.5895,-4.5895,-4.5895,-4.5895,0.0,0.0,0.0,0.0,0.0,0.0,0.0,-2.0275,-2.0628,-2.1259,-2.1528,-2.1691,-2.182,-2.127,-2.0867,0.0,0.0,0.0,0.0,0.0,0.0,0.0,0.0,0.0,0.0,0.0,0.0,0.0,0.0,0.0,0.0,0.0,0.0,0.0,0.0,0.0,0.0,0.0,0.0,0.0,0.0,0.0,0.0,0.0,0.0,0.0,0.0,0.0,0.0,0.0,-3.7105,-4.0858,-4.5913,-5.0375,-5.4281,-5.6713,-5.8208,-5.9668,-6.2181,-6.2959,-6.2839,-6.1912,-5.8171,-5.3435,-4.8445,-4.3223,0.0,0.0,-3.3906,-3.3678,-3.4283,-3.5904,-3.7652,0.0,-4.0871,0.0,0.0,0.0,0.0,0.0,0.0,0.0,0.0,-5.9103,0.0,-5.9974,-5.8958,-5.8,-5.7332,-5.7303,-5.7303,-5.7303,-5.6839,-5.6607,-5.6607,-5.5329,-5.4691,-5.4691,-5.3907,-5.3181,-5.2594,-5.1904,-5.1265,-5.0627,-5.0008,-4.9378,-4.8914,-4.8769,-4.7996,-4.7027,-4.6836,-4.6446,-4.5895,-4.564,-4.5685,-4.5895,0.0,0.0,0.0,0.0,0.0,0.0,0.0,-2.0482,-2.1166,-2.176,-2.1956,-2.2272,-2.2895,-2.2046,-2.1446,0.0,0.0,0.0,0.0,0.0,0.0,0.0,0.0,0.0,0.0,0.0,0.0,0.0,0.0,0.0,0.0,0.0,0.0,0.0,0.0,0.0,0.0,0.0,0.0,0.0,0.0,0.0,0.0,0.0,0.0,0.0,0.0,0.0,0.0,0.0,0.0,-3.7634,-4.071,-4.6615,-5.2737,-5.4619,0.0,0.0,-6.1613,-6.263,-6.263,-6.0745,-5.6795,-5.2061,-4.711,0.0,0.0,-3.4903,-3.3906,-3.3678,-3.4283,-3.5072,-3.6487,0.0,0.0,-4.2216,0.0,0.0,0.0,0.0,0.0,0.0,0.0,-5.9277,-5.9335,-5.9393,-5.8726,-5.8,-5.7332,-5.7303,-5.7303,-5.7303,-5.7245,-5.7216,-5.7216,-5.5968,-5.5329,-5.53,-5.4081,-5.3181,-5.2594,-5.1904,-5.1265,-5.0627,-5.0008,-4.9688,0.0,-4.8972,-4.8333,-4.7637,-4.7056,-4.6446,-4.5776,-4.4805,-4.5035,-4.573,0.0,0.0,0.0,0.0,0.0,0.0,-1.9941,-2.0327,-2.0907,-2.2482,-2.2567,-2.2719,-2.3393,-2.28,-2.223,-2.202,0.0,0.0,0.0,0.0,0.0,0.0,0.0,0.0,0.0,0.0,0.0,-2.3095,-2.3095,0.0,0.0,0.0,0.0,0.0,0.0,0.0,0.0,0.0,0.0,0.0,0.0,0.0,0.0,0.0,0.0,0.0,0.0,0.0,0.0,0.0,0.0,0.0,-3.5668,-3.9984,0.0,0.0,-5.3655,-5.6316,-5.9907,-6.1672,-6.2091,-6.0475,-5.5884,-5.0756,-4.6711,0.0,-3.6142,-3.4729,-3.3906,-3.3678,-3.4283,-3.4632,-3.5421,0.0,0.0,0.0,0.0,0.0,0.0,0.0,0.0,0.0,0.0,0.0,-5.8958,-5.8174,-5.861,-5.8435,-5.7361,-5.7303,-5.7303,-5.7303,-5.7303,-5.7303,-5.7303,-5.6055,-5.5416,-5.5387,-5.411,-5.3384,-5.3094,-5.2078,-5.1468,-5.1178,-5.0133,-4.9717,0.0,-4.9407,-4.8711,-4.7753,-4.7491,-4.6795,-4.5776,-4.4712,-4.4545,-4.4805,0.0,0.0,0.0,0.0,0.0,-1.7192,-1.9728,-1.9948,-2.0546,-2.2473,-2.272,-2.2874,-2.3362,-2.3132,-2.285,-2.251,-2.2865,0.0,0.0,0.0,0.0,0.0,0.0,0.0,0.0,0.0,-2.3195,-2.3371,-2.3371,-2.3446,0.0,0.0,0.0,0.0,0.0,0.0,0.0,0.0,0.0,0.0,0.0,0.0,0.0,0.0,0.0,0.0,0.0,0.0,0.0,0.0,0.0,0.0,0.0,0.0,0.0,0.0,-4.9727,-5.3155,-5.7191,-5.9553,-6.0565,-5.9009,-5.446,-4.9413,0.0,0.0,-3.5658,-3.4637,-3.4051,-3.3877,-3.4341,-3.4399,-3.4777,0.0,0.0,-3.7317,0.0,0.0,0.0,0.0,0.0,-5.5692,0.0,-5.9248,-5.9016,-5.771,-5.8668,-5.8726,-5.7361,-5.7303,-5.7303,-5.7303,-5.7303,-5.7216,-5.7042,-5.5968,-5.5329,-5.5126,-5.4023,-5.3413,-5.321,-5.2107,-5.1527,-5.1265,-5.0162,-4.9717,0.0,-4.9717,-4.8914,-4.7782,-4.7782,-4.6998,-4.573,-4.4359,-4.4031,-4.4125,0.0,0.0,0.0,0.0,0.0,0.0,-1.8646,-1.9368,-2.0164,-2.1451,-2.2255,-2.272,-2.272,-2.2939,-2.3035,-2.2909,-2.3005,0.0,0.0,0.0,0.0,0.0,0.0,0.0,0.0,0.0,-2.3396,-2.3979,-2.3979,-2.428,-2.4775,-2.4775,-2.4775,0.0,0.0,0.0,0.0,0.0,0.0,0.0,0.0,0.0,0.0,0.0,0.0,0.0,0.0,0.0,0.0,0.0,0.0,0.0,0.0,0.0,0.0,0.0,-4.5618,-5.059,-5.3238,-5.6012,-5.7693,-5.5748,-5.2103,-4.7956,0.0,0.0,-3.6178,-3.4695,-3.4399,-3.4399,-3.4399,-3.4399,-3.4632,-3.5305,0.0,0.0,-3.9857,0.0,0.0,0.0,0.0,-5.2659,-5.5213,-5.8319,-5.9655,-5.8406,-5.8929,0.0,-5.7361,-5.7303,-5.7303,-5.7303,-5.7303,-5.7013,-5.6432,-5.5736,-5.5097,-5.4517,-5.3849,-5.3181,-5.2623,-5.1904,-5.1265,-5.0656,-5.0008,-4.9717,0.0,-4.9717,-4.8914,-4.7782,-4.7782,-4.6998,-4.564,-4.3559,-4.3464,-4.4031,0.0,0.0,0.0,0.0,0.0,0.0,0.0,-1.9045,-1.9831,-2.1765,-2.1886,-2.2147,-2.2945,-2.2917,-2.2848,-2.2909,-2.303,0.0,0.0,0.0,0.0,0.0,0.0,0.0,0.0,0.0,-2.4004,-2.4556,-2.4556,-2.4625,-2.48,-2.5184,-2.536,-2.536,-2.5762,0.0,0.0,0.0,0.0,0.0,0.0,0.0,0.0,0.0,0.0,0.0,0.0,0.0,0.0,0.0,0.0,0.0,0.0,0.0,0.0,0.0,0.0,0.0,-4.7526,-5.0003,-5.1327,-4.9812,-4.7007,-4.3867,-4.1224,-3.8091,-3.552,-3.4574,-3.4399,-3.4399,-3.4399,-3.4399,-3.4922,-3.6431,-3.7389,0.0,0.0,0.0,0.0,-4.9378,-5.4749,-5.829,0.0,0.0,-6.0177,-5.8435,-5.8929,-5.8726,-5.7361,-5.7303,-5.71,-5.6694,-5.6694,-5.6374,-5.5736,-5.5097,-5.4691,-5.4517,-5.3384,-5.2746,-5.2594,-5.1468,-5.0859,-5.0627,-5.0008,-4.9717,-4.9717,-4.9717,-4.8914,-4.7782,-4.7782,-4.6998,-4.564,-4.3559,-4.2985,-4.2985,0.0,0.0,0.0,0.0,0.0,0.0,0.0,-1.8792,-1.9552,-2.1368,-2.1536,-2.1735,-2.2449,-2.2641,-2.2652,-2.2545,-2.2815,0.0,0.0,0.0,0.0,0.0,0.0,0.0,0.0,-2.4004,-2.4356,-2.5109,-2.5335,-2.5435,-2.546,-2.5988,-2.6113,-2.5971,-2.6323,-2.6499,0.0,0.0,0.0,0.0,0.0,0.0,-2.6499,0.0,0.0,0.0,0.0,0.0,0.0,0.0,0.0,0.0,0.0,0.0,0.0,0.0,-3.4777,-3.8539,0.0,-4.5102,-4.6594,-4.5572,-4.3543,-4.1253,-3.9279,-3.7054,-3.5218,-3.4545,-3.4399,-3.4399,-3.4399,-3.4399,-3.4806,-3.6025,-3.6925,0.0,0.0,0.0,0.0,-5.0511,0.0,0.0,0.0,-6.038,-6.0584,-5.9132,-5.919,-5.8842,-5.7739,-5.7448,-5.6926,-5.6055,-5.6287,-5.5968,-5.5068,-5.4691,-5.44,-5.411,-5.3065,-5.2507,-5.2165,-5.1149,-5.054,-5.0328,-4.9892,-4.9717,0.0,-4.9717,-4.8721,-4.7205,-4.7205,-4.6195,-4.4527,-4.284,-4.2208,-4.1963,0.0,0.0,0.0,0.0,0.0,0.0,0.0,-1.8428,-1.9182,-2.0337,-2.1048,-2.1445,-2.1392,-2.2134,-2.2444,-2.2007,0.0,0.0,0.0,0.0,0.0,0.0,0.0,0.0,-2.4054,-2.4054,-2.4582,-2.5661,-2.6273,-2.6549,-2.6575,-2.7128,-2.7077,-2.6549,-2.6549,-2.6524,-2.6499,-2.6499,-2.6499,-2.6499,-2.6499,-2.6499,0.0,0.0,0.0,0.0,0.0,0.0,0.0,0.0,0.0,0.0,0.0,0.0,0.0,0.0,0.0,0.0,0.0,-4.1018,-4.2976,-4.2385,-4.1165,-3.9689,-3.7806,-3.6318,0.0,-3.4545,-3.4399,-3.4428,-3.4457,-3.4457,-3.4457,-3.4603,-3.5677,0.0,0.0,-4.2295,0.0,0.0,-5.4749,0.0,-5.7332,-5.9684,-6.0932,-6.0264,-5.9626,-5.9016,-5.8348,-5.7681,-5.6723,-5.5445,-5.5997,-5.5736,-5.4458,-5.44,-5.4052,-5.3442,-5.2775,-5.2136,-5.1527,-5.0888,-5.0328,0.0,-4.9717,-4.964,-4.9513,-4.9513,-4.8121,-4.6034,-4.6034,-4.4726,-4.2695,-4.1617,-4.1219,-4.1069,0.0,0.0,0.0,0.0,0.0,0.0,0.0,0.0,0.0,0.0,-1.9716,-2.0414,-2.109,-2.1565,-2.2024,0.0,0.0,0.0,0.0,0.0,0.0,0.0,0.0,0.0,-2.4575,-2.4632,-2.5159,-2.6298,-2.6851,-2.7128,-2.7128,-2.7645,-2.762,-2.7128,-2.7128,-2.6876,-2.6499,-2.6499,-2.6499,-2.6499,-2.6499,-2.6499,0.0,0.0,0.0,0.0,-2.6679,-2.7162,0.0,0.0,0.0,0.0,0.0,0.0,0.0,0.0,-3.1264,-3.199,-3.31,0.0,-3.6581,-3.6406,-3.6137,-3.5718,0.0,-3.4898,0.0,0.0,0.0,0.0,0.0,-3.4748,-3.4893,-3.6373,0.0,-3.8841,-3.977,0.0,0.0,-5.4139,-5.7797,-5.9539,-5.8203,-5.9974,-6.0932,-6.0264,-5.9626,-5.9016,-5.8348,-5.7681,-5.6723,-5.5445,-5.5562,-5.5039,-5.3762,-5.3268,-5.2949,-5.2775,-5.1693,-5.1033,-5.0888,-5.022,-4.9863,-4.9717,-4.9717,-4.8989,-4.7794,-4.7794,-4.6392,-4.4272,-4.4272,-4.3688,-4.2695,-4.1617,-4.1219,-4.1069,0.0,0.0,0.0,0.0,0.0,0.0,0.0,0.0,0.0,0.0,0.0,0.0,0.0,0.0,0.0,0.0,0.0,0.0,0.0,0.0,0.0,0.0,0.0,-2.4023,-2.5159,-2.5184,-2.5711,-2.6876,-2.7394,-2.767,-2.767,-2.8222,-2.8047,-2.7268,-2.7052,-2.6927,-2.6851,-2.66,-2.6499,-2.6499,-2.6499,0.0,0.0,0.0,0.0,0.0,-2.6499,-2.6952,0.0,-2.7785,-2.8828,-3.0013,0.0,0.0,0.0,0.0,-3.0829,-3.1148,-3.1438,-3.2716,-3.3993,-3.3993,-3.4196,-3.4399,-3.4399,0.0,0.0,0.0,0.0,0.0,0.0,0.0,0.0,0.0,-3.768,0.0,0.0,0.0,-5.2339,-5.5503,-5.8232,-5.98,0.0,-6.0584,-6.1048,-6.07,-5.98,-5.9132,-5.8784,-5.7565,-5.6432,-5.5445,-5.5126,-5.4517,-5.353,-5.2891,-5.2623,-5.2594,-5.1345,-5.0734,-5.0705,-4.9988,-4.9717,-4.9669,-4.9349,-4.8468,-4.7193,-4.6884,-4.5249,-4.2991,-4.2991,-4.2345,-4.1295,-4.0743,-4.0516,-4.0415,0.0,0.0,0.0,0.0,0.0,0.0,0.0,0.0,0.0,0.0,0.0,0.0,0.0,0.0,0.0,0.0,0.0,0.0,0.0,0.0,0.0,0.0,0.0,-2.4456,-2.546,-2.5561,-2.6163,-2.7293,-2.7921,-2.8273,-2.8373,-2.8925,-2.8549,-2.7394,-2.6876,-2.6826,-2.7153,-2.67,-2.6499,-2.6499,-2.6499,0.0,0.0,0.0,0.0,0.0,0.0,0.0,0.0,-2.7876,-2.9067,-3.0331,-3.0155,0.0,0.0,0.0,0.0,0.0,-3.1467,-3.2542,-3.3503,-3.3503,-3.3935,-3.4399,-3.4399,0.0,0.0,0.0,0.0,0.0,0.0,-3.4632,0.0,0.0,0.0,0.0,-4.5953,-4.9349,-5.2543,-5.5997,-5.7797,0.0,-6.0467,-6.0874,-6.1019,-6.0932,-5.9829,-5.9103,-5.9016,-5.7361,-5.6055,-5.53,-5.4691,-5.4052,-5.3384,-5.2746,-5.2368,-5.2333,-5.1091,-5.056,-5.0481,-4.9843,-4.9524,-4.9494,0.0,0.0,-4.6637,-4.5881,-4.4117,-4.1851,-4.1851,-4.0952,-3.9697,-3.9697,-3.9697,-3.9697,0.0,0.0,0.0,0.0,0.0,0.0,0.0,0.0,0.0,0.0,0.0,0.0,0.0,0.0,0.0,0.0,0.0,0.0,0.0,0.0,0.0,-2.4625,-2.4255,-2.4305,-2.4901,-2.5385,-2.6163,-2.7293,-2.8298,-2.9051,-2.9553,-3.0105,-2.9503,-2.7946,-2.7394,-2.6977,-2.6625,-2.6524,-2.6499,-2.6499,-2.6499,0.0,0.0,0.0,0.0,0.0,0.0,0.0,0.0,-2.6746,-2.8043,-2.9564,-2.8952,0.0,0.0,0.0,0.0,0.0,-3.2048,-3.289,-3.3503,-3.3503,-3.3935,-3.4399,-3.4399,-3.4399,0.0,0.0,0.0,0.0,0.0,-3.5648,-3.6431,0.0,0.0,-4.4792,0.0,0.0,-5.4546,-5.62,0.0,-6.0003,-5.8087,-5.9393,-6.0148,-5.9626,-5.89,-5.8203,-5.7652,-5.6839,-5.5881,-5.4691,-5.4023,-5.3355,-5.2717,-5.2078,-5.1497,-5.0996,-5.0191,-4.9814,-4.9814,-4.9175,-4.8856,-4.8779,0.0,-4.5707,-4.413,-4.3229,-4.1746,-4.0056,-4.0056,-3.9927,-3.9697,-3.9697,-3.9697,-3.9697,0.0,0.0,0.0,0.0,0.0,0.0,0.0,0.0,0.0,0.0,0.0,0.0,0.0,0.0,0.0,0.0,0.0,0.0,0.0,0.0,-2.3948,-2.475,-2.4858,-2.5259,-2.6138,-2.6666,-2.7519,-2.8649,-2.9453,-3.0131,-3.0658,-3.0331,-2.9578,-2.8524,-2.767,-2.7178,-2.6927,-2.6625,-2.6499,-2.6499,0.0,0.0,0.0,0.0,0.0,0.0,0.0,0.0,0.0,0.0,-2.8014,-2.9278,-2.8605,0.0,0.0,0.0,0.0,0.0,-3.0643,-3.1654,-3.2581,-3.3318,-3.423,-3.4835,-3.4486,-3.4399,0.0,0.0,0.0,0.0,0.0,0.0,-3.8318,-4.1337,0.0,-4.8014,-5.0714,-5.2455,-5.4052,0.0,-5.7507,-5.8552,-5.8406,-5.919,-5.9597,-5.9335,-5.8348,-5.7623,-5.7332,-5.6084,-5.4952,-5.3994,-5.3355,-5.2543,-5.1606,-5.1265,-5.0946,-5.0705,-4.9988,-4.9717,-4.9717,-4.9378,-4.9059,-4.8586,0.0,-4.5268,-4.3584,-4.2195,-4.09,-3.9697,-3.9697,-3.9697,-3.9697,-3.9697,-3.9697,-3.9697,0.0,0.0,0.0,0.0,0.0,0.0,0.0,0.0,0.0,0.0,0.0,0.0,0.0,0.0,0.0,0.0,0.0,0.0,0.0,0.0,-2.4431,-2.4951,-2.5511,-2.6248,-2.7102,-2.777,-2.8674,-2.9804,-3.0457,-3.1009,-3.1361,-3.0557,-2.9729,-2.8838,-2.7921,-2.7394,-2.7243,-2.6725,-2.6499,-2.6499,0.0,0.0,0.0,0.0,0.0,0.0,0.0,0.0,0.0,0.0,0.0,0.0,0.0,0.0,0.0,-2.9164,-2.8785,-2.886,-2.9743,-3.0713,-3.1713,-3.2901,-3.4196,-3.5189,-3.527,-3.5183,-3.5357,0.0,0.0,0.0,0.0,-3.8405,0.0,-4.4908,-4.8275,-5.0714,-5.1643,-5.2891,-5.4284,-5.5881,-5.6665,-5.7536,-5.8726,-5.8987,-5.8871,-5.8435,-5.7594,-5.6897,-5.6432,-5.5068,-5.3907,-5.3094,-5.2455,-5.1722,-5.0685,-5.0511,-5.0502,-5.0473,-4.9979,-4.9582,-4.9436,-4.9291,-4.8789,-4.7789,-4.6143,-4.4517,-4.2973,-4.1452,-4.0415,-3.9697,-3.9697,-3.9697,-3.9697,-3.9697,-3.9697,-3.9697,0.0,0.0,0.0,0.0,0.0,0.0,0.0,0.0,0.0,0.0,0.0,0.0,0.0,0.0,0.0,0.0,0.0,0.0,0.0,0.0,-2.4983,-2.5511,-2.6122,-2.6474,-2.6549,-2.757,-2.8674,-2.9804,-3.0834,-3.1361,-3.1386,-3.1311,-3.0432,-2.8863,-2.8323,-2.777,-2.7243,-2.6725,-2.6499,-2.6499,-2.6499,0.0,0.0,0.0,0.0,0.0,0.0,0.0,0.0,0.0,0.0,0.0,0.0,0.0,-3.0248,-3.0133,-2.9666,-2.9544,-3.0828,-3.1245,-3.1463,-3.2135,-3.3381,-3.5096,-3.7389,-3.7506,-3.7622,-3.9392,0.0,0.0,0.0,-4.1512,-4.4443,-4.7143,-5.0278,-5.3007,-5.4807,-5.6171,-5.7245,-5.8,-5.8697,-5.8668,-5.7565,-5.8,-5.7623,-5.5823,-5.6171,-5.5678,-5.3878,-5.3675,-5.3036,-5.1788,-5.1149,-5.0822,-5.0734,-5.0095,-4.9805,-4.9805,-4.9698,-4.9349,-4.8769,-4.8188,-4.708,-4.5476,-4.3753,-4.2387,-4.1272,-4.0236,-3.98,-3.9697,-3.9697,-3.9697,-3.9697,-3.9697,-3.9697,-3.9697,0.0,0.0,0.0,0.0,0.0,0.0,0.0,0.0,0.0,0.0,0.0,0.0,0.0,0.0,0.0,0.0,0.0,0.0,0.0,-2.5008,-2.5561,-2.6147,-2.6373,-2.6826,-2.7469,-2.8925,-3.0206,-3.1286,-3.1712,-3.1738,-3.1386,-3.106,-3.0206,-2.8888,-2.8687,-2.8323,-2.777,-2.757,-2.7293,-2.7002,-2.7002,-2.6801,0.0,0.0,0.0,0.0,0.0,0.0,0.0,0.0,-2.743,-2.8135,-2.7615,-2.8379,-2.929,-2.8627,-2.8239,-2.8334,-2.9692,-3.0677,-3.1506,-3.2111,-3.3937,-3.5948,-3.7205,-3.7605,-3.8302,-4.0329,-4.1482,0.0,0.0,0.0,-4.6446,-4.8624,-5.1323,-5.3675,-5.5184,-5.5823,-5.6229,-5.649,-5.6723,-5.6694,-5.6171,-5.6345,-5.62,-5.5474,-5.53,-5.472,-5.3588,-5.3123,-5.2339,-5.1062,-5.0801,-5.0531,-5.0095,-4.9863,-4.9375,-4.8624,-4.8304,-4.8563,-4.9214,-4.6938,-4.5881,-4.5725,-4.3409,-4.196,-4.1119,-4.0134,-3.9697,-3.9697,-3.9697,-3.9697,-3.9697,-3.9697,-3.9697,-3.9697,0.0,0.0,0.0,0.0,0.0,0.0,0.0,0.0,0.0,0.0,0.0,0.0,0.0,0.0,0.0,0.0,0.0,0.0,-2.4775,-2.5485,-2.6072,-2.6474,-2.665,-2.7243,-2.8348,-2.9854,-3.106,-3.1964,-3.2315,-3.2114,-3.1386,-3.1035,-3.0357,-2.9414,-2.9038,-2.8825,-2.8624,-2.8247,-2.7896,-2.7544,-2.7544,-2.7253,0.0,0.0,0.0,0.0,0.0,0.0,0.0,0.0,-2.7128,-2.7519,-2.7153,-2.777,-2.8524,-2.777,-2.7849,-2.8354,-2.9095,-3.0315,-3.1513,-3.2125,-3.3931,-3.6097,-3.8116,-3.9086,-4.0265,-4.2734,-4.395,-4.4589,-4.4589,0.0,0.0,-4.9378,-5.1846,-5.3965,-5.5242,-5.5416,-5.5416,-5.5416,-5.5242,-5.5126,-5.5126,-5.5126,-5.4952,-5.4546,-5.4313,-5.3733,-5.2659,-5.2194,-5.1468,-5.0394,-5.0365,-5.0046,-4.9378,-4.9057,-4.8403,-4.7431,-4.6217,-4.6578,-4.8233,-4.5581,-4.4584,-4.4776,-4.2764,-4.146,-4.0642,-3.9981,-3.9697,-3.9697,-3.9697,-3.9697,-3.9697,-3.9697,-3.9697,-3.9697,0.0,0.0,0.0,0.0,0.0,0.0,0.0,0.0,0.0,0.0,0.0,0.0,0.0,0.0,0.0,0.0,0.0,0.0,-2.48,-2.5862,-2.6499,-2.6499,-2.7027,-2.7795,-2.8863,-2.9991,-3.0884,-3.1411,-3.2516,-3.2491,-3.1386,-3.1386,-3.111,-3.0557,-2.9414,-2.9252,-2.9729,-2.8599,-2.8122,-2.8122,-2.8122,-2.7795,-2.7329,0.0,0.0,0.0,0.0,0.0,0.0,0.0,-2.6952,-2.67,-2.7745,-2.8097,-2.8122,-2.8097,-2.9025,-2.9954,-2.945,-3.0254,-3.1447,-3.2046,-3.3145,-3.5382,-4.0604,-4.2424,-4.3921,-4.7143,-4.6795,-4.5924,-4.5924,-4.6446,0.0,-4.9378,-5.1846,-5.3936,-5.5213,-5.5387,-5.5387,-5.5387,-5.4865,-5.4487,-5.4487,-5.4487,-5.3965,-5.271,-5.3152,-5.2659,-5.0822,-5.0734,-5.0415,-4.9698,-4.9669,-4.9349,-4.8692,-4.7714,-4.6834,-4.6139,-4.346,-4.33,-4.5346,-4.4203,-4.3091,-4.2082,-4.143,-4.0592,-3.9697,-3.9697,-3.9697,-3.9697,-3.9697,-3.9697,-3.9697,-3.9697,-3.9697,-3.9697,0.0,0.0,0.0,0.0,0.0,0.0,0.0,0.0,0.0,0.0,0.0,0.0,0.0,0.0,0.0,0.0,0.0,0.0,-2.536,-2.6097,-2.6499,-2.6499,-2.7027,-2.762,-2.8323,-2.9829,-3.106,-3.1964,-3.1913,-3.1537,-3.0859,-3.0859,-3.0557,-3.003,-3.008,-3.0005,-2.9779,-2.9428,-2.9051,-2.8637,-2.8637,-2.8348,-2.7821,0.0,0.0,0.0,0.0,0.0,0.0,0.0,0.0,0.0,-2.7002,-2.7745,-2.8487,-2.7745,-2.8102,-2.8773,-2.9071,-3.0254,-3.1564,-3.2527,-3.5236,0.0,0.0,-4.2378,0.0,0.0,-4.8798,-4.8014,-4.8478,-4.9088,-4.9727,-5.0278,-5.1759,-5.3123,-5.3965,-5.3704,-5.3588,-5.4023,-5.3123,-5.2659,-5.3094,-5.2746,-5.231,-5.1933,-5.2078,-5.173,-5.0714,-5.0734,-5.0415,-4.9698,-4.9233,-4.8547,-4.7665,-4.6869,-4.5619,-4.3921,-4.2778,-4.3351,-4.5397,-4.2289,-4.1543,-4.2631,-4.0875,-3.9981,-3.9697,-3.9697,-3.9697,-3.9697,-3.9697,-3.9697,-3.9697,-3.9697,-3.9697,-3.9697,0.0,0.0,0.0,0.0,0.0,0.0,0.0,0.0,0.0,0.0,0.0,0.0,0.0,0.0,0.0,0.0,0.0,0.0,0.0,-2.6172,-2.66,-2.6826,-2.7128,-2.7745,-2.875,-2.998,-3.0934,-3.1587,-3.1461,-3.1135,-3.0593,-3.0834,-3.0758,-3.0432,-3.0783,-3.0733,-3.0407,-3.0206,-2.9779,-2.9277,-2.9277,-2.8925,-2.8398,0.0,0.0,0.0,0.0,0.0,0.0,0.0,0.0,0.0,-2.66,-2.7329,-2.8133,-2.7545,-2.8109,-2.8969,-2.9425,-3.1224,-3.3218,-3.4333,-3.7299,-4.055,-4.2897,0.0,0.0,0.0,-5.0569,-4.9698,-5.0336,-5.0133,-5.0075,-5.0598,-5.1323,-5.2049,-5.2659,-5.2426,-5.2339,-5.2717,-5.1875,-5.1497,-5.2136,-5.1614,-5.1236,-5.1236,-5.1236,-5.0975,-5.0357,-5.0046,-4.9551,-4.8755,-4.8075,-4.7105,-4.5823,-4.4991,-4.3818,-4.229,-4.1517,-4.2008,-4.3439,-4.09,-4.0565,-4.1904,-4.036,-3.9697,-3.9697,-3.9697,-3.9697,-3.9697,-3.9697,-3.9697,-3.9697,-3.9697,-3.9697,-3.9697,0.0,0.0,0.0,0.0,0.0,0.0,0.0,0.0,0.0,0.0,-2.317,0.0,0.0,0.0,0.0,0.0,0.0,0.0,0.0,0.0,-2.6801,-2.7304,-2.7369,-2.8172,-2.9754,-3.0281,-3.0532,-3.0532,-3.106,-3.106,-3.0557,-3.1135,-3.1361,-3.1311,-3.1361,-3.1361,-3.1286,-3.0758,-3.0256,-2.9804,-2.9804,-2.9478,-2.8963,-2.8913,0.0,0.0,0.0,0.0,0.0,0.0,0.0,0.0,-2.6575,-2.6927,-2.7309,-2.7462,-2.8656,-2.9974,-3.0191,-3.2533,-3.5237,-3.6754,-3.935,-4.2353,-4.543,-4.8402,-5.0962,-5.2752,0.0,-5.0946,-5.1527,-5.0191,-4.9378,-5.0569,-5.0772,-5.0946,-5.1527,-5.1556,-5.1556,-5.1614,-5.1004,-5.0801,-5.1381,-5.0917,-5.0589,-5.0423,-5.0502,-5.022,-4.9524,-4.8847,-4.8018,-4.7109,-4.6343,-4.5191,-4.3589,-4.2613,-4.1768,-4.1019,-4.0134,-3.9948,-4.0425,-3.9923,-3.9973,-4.04,-3.9898,-3.9697,-3.9697,-3.9697,-3.9697,-3.9697,-3.9697,-3.9697,-3.9697,-3.9697,-3.9697,-3.9697,0.0,0.0,0.0,0.0,0.0,0.0,0.0,0.0,0.0,0.0,0.0,0.0,0.0,0.0,0.0,0.0,0.0,0.0,0.0,0.0,-2.7203,-2.7268,-2.8122,-2.895,-2.9779,-2.9905,-2.998,-2.998,-3.0507,-3.0507,-2.998,-3.0934,-3.1185,-3.0809,-3.121,-3.116,-3.0758,-3.0206,-2.9905,-2.9804,-2.9804,-2.9704,-2.9553,-2.9063,-2.8524,0.0,0.0,0.0,0.0,0.0,0.0,0.0,-2.7128,-2.7228,-2.7304,-2.7328,-2.7896,-2.8743,-2.9655,-3.1121,0.0,-3.6716,-4.1256,-4.543,-4.7608,-4.837,-4.8966,-5.0246,-5.0975,-5.1468,-5.1585,-5.1265,-5.1091,-5.1381,-5.141,-5.1468,-5.1585,-5.1178,-5.1062,-5.1556,-5.0598,-4.9959,-5.0133,-4.9988,-4.9514,-4.8478,-4.8856,-4.8856,-4.8217,-4.7272,-4.6656,-4.6412,-4.5016,-4.3697,-4.2515,-4.1789,-4.0974,-4.0032,-3.98,-3.9747,-3.9873,-3.9747,-3.9747,-3.9873,-3.9747,-3.9697,-3.9697,-3.9697,-3.9697,-3.9697,-3.9697,-3.9697,-3.9697,-3.9697,-3.9697,-3.9697,0.0,0.0,0.0,0.0,0.0,0.0,0.0,0.0,0.0,0.0,0.0,0.0,0.0,0.0,0.0,0.0,0.0,0.0,0.0,0.0,-2.7519,-2.8047,-2.8875,-2.9478,-2.9779,-2.9804,-2.9804,-2.9804,-3.008,-3.008,-2.9804,-3.0884,-3.1235,-3.1009,-3.1537,-3.1486,-3.0959,-3.0407,-3.003,-2.9804,-2.9804,-2.9804,-2.9729,-2.9113,-2.8574,-2.8072,-2.7821,0.0,0.0,0.0,0.0,0.0,0.0,0.0,-2.7047,-2.7589,-2.7931,-2.8371,-2.9578,-3.1448,0.0,-3.8228,0.0,-4.4442,-4.5998,-4.6327,-4.6573,-4.7172,-4.9171,-5.0944,-5.1512,-5.112,-5.0601,-5.0405,-5.0018,-4.9675,-4.9467,-4.9375,-4.9262,-4.9058,-4.8855,-4.8577,-4.8064,-4.8035,-4.7971,-4.784,-4.7616,-4.7357,-4.7062,-4.6223,-4.533,-4.432,-4.3107,-4.2016,-4.1004,-4.067,-4.0211,-3.9697,-3.9697,-3.9697,-3.9697,-3.9697,-3.9697,-3.9697,-3.9697,-3.9697,-3.9697,-3.9697,-3.9697,-3.9697,-3.9697,-3.9697,-3.9697,-3.9697,-3.9697,-3.9697,0.0,0.0,0.0,0.0,0.0,0.0,0.0,0.0,0.0,0.0,0.0,0.0,0.0,0.0,0.0,0.0,0.0,0.0,0.0,0.0,0.0,-2.8988,-2.9528,-2.9804,-2.9804,-2.9804,-2.9804,-2.9804,-2.9804,-2.988,-3.008,-3.0984,-3.1386,-3.1411,-3.1863,-3.1763,-3.121,-3.0708,-3.0206,-2.9804,-2.9804,-2.9804,-2.9754,-2.9252,-2.8725,-2.8197,-2.772,-2.7268,-2.6927,-2.6927,0.0,0.0,0.0,0.0,-2.6829,-2.7825,-2.8109,-2.8357,-2.9619,-3.2332,-3.5732,-3.9508,-4.1293,0.0,-4.3436,-4.3968,-4.4296,-4.4629,-4.7263,-4.9694,-5.0312,-4.9828,-4.9182,-4.859,-4.7946,-4.7453,-4.7242,-4.7405,-4.7205,-4.6284,-4.7157,-4.7271,-4.5901,-4.6034,-4.6469,-4.7153,-4.6328,-4.5797,-4.5878,-4.5064,-4.377,-4.2053,-4.133,-4.0567,-3.9697,-3.9697,-3.9697,-3.9697,-3.9697,-3.9697,-3.9697,-3.9697,-3.9697,-3.9697,-3.9697,-3.9697,-3.9697,-3.9697,-3.9697,-3.9697,-3.9697,-3.9697,-3.9697,-3.9697,-3.9697,-3.9697,0.0,0.0,0.0,0.0,0.0,0.0,0.0,0.0,0.0,0.0,0.0,0.0,0.0,0.0,0.0,0.0,0.0,0.0,0.0,0.0,0.0,-2.9654,-2.9754,-2.9804,-2.9804,-2.9804,-2.9804,-2.9804,-2.9804,-3.0256,-3.1185,-3.1311,-3.1386,-3.1386,-3.1461,-3.121,-3.0683,-3.0131,-2.9854,-2.9804,-2.9804,-2.9804,-2.9779,-2.9704,-2.9327,-2.8762,-2.8687,-2.8637,-2.8562,-2.8562,-2.8562,0.0,0.0,0.0,-2.7228,-2.741,-2.7742,-2.8323,-2.9492,0.0,-3.642,0.0,-4.0161,-4.2316,0.0,0.0,-4.2854,0.0,-4.6469,-4.7577,-4.5951,-4.6923,-4.7711,-4.6748,-4.6453,-4.6727,-4.7586,-4.6947,-4.6333,-4.6236,-4.7157,-4.6814,-4.4294,-4.5344,-4.5785,-4.4837,-4.4325,-4.4187,-4.4546,-4.2782,-4.1623,-4.135,-4.0415,-3.9826,-3.9697,-3.9697,-3.9697,-3.9697,-3.9697,-3.9697,-3.9697,-3.9697,-3.9697,-3.9697,-3.9697,-3.9697,-3.9697,-3.9697,-3.9697,-3.9697,-3.9697,-3.9697,-3.9697,-3.9697,-3.9697,-3.9697,0.0,0.0,0.0,0.0,0.0,0.0,0.0,0.0,0.0,0.0,0.0,0.0,0.0,0.0,0.0,0.0,0.0,0.0,0.0,0.0,0.0,-2.9779,-2.9804,-2.9804,-2.9804,-2.9804,-2.9804,-2.9804,-2.9804,-3.0507,-3.1863,-3.219,-3.2491,-3.2792,-3.2466,-3.2014,-3.1461,-3.0608,-3.008,-2.9804,-2.9804,-2.9804,-2.9754,-2.9428,-2.9113,-2.8838,-2.8574,0.0,-2.8473,-2.8473,-2.8473,-2.8423,-2.8172,0.0,0.0,0.0,-2.7921,-2.8473,-3.0206,-3.2295,-3.4315,0.0,-3.7485,-3.906,-3.9868,-4.0621,-4.1343,-4.2126,-4.3725,-4.494,-4.4747,-4.5127,-4.5261,-4.4525,-4.4332,-4.4373,-4.4584,-4.4407,-4.409,-4.3503,-4.4332,-4.4298,-4.2461,-4.2946,-4.3432,-4.3444,-4.2717,-4.2377,-4.255,-4.1716,-4.0945,-4.0364,-3.9929,-3.9697,-3.9697,-3.9697,-3.9697,-3.9697,-3.9697,-3.9697,-3.9697,-3.9697,-3.9697,-3.9697,-3.9697,-3.9697,-3.9697,-3.9697,-3.9697,-3.9697,-3.9697,-3.9697,-3.9697,-3.9697,-3.9697,-3.9697,0.0,0.0,0.0,0.0,0.0,0.0,0.0,0.0,0.0,0.0,0.0,0.0,0.0,0.0,0.0,0.0,0.0,0.0,0.0,0.0,0.0,-2.9804,-2.9804,-2.9804,-2.9804,-2.9804,-2.9804,-2.9804,-2.9804,-3.0708,-3.2441,-3.2867,-3.3671,-3.47,-3.3721,-3.2893,-3.2139,-3.106,-3.0457,-3.0181,-2.9905,-2.9804,-2.9754,-2.9302,-2.9151,-2.9076,-2.8524,0.0,0.0,0.0,-2.8423,-2.8524,-2.8373,-2.7946,0.0,0.0,0.0,-2.8524,0.0,0.0,-3.234,-3.3746,-3.5027,-3.6179,0.0,0.0,-3.9651,0.0,-4.0732,-4.1874,-4.2805,-4.3256,-4.3332,-4.3035,-4.2621,-4.2369,-4.2275,-4.2355,-4.211,-4.1319,-4.2159,-4.2257,-4.0945,-4.1019,-4.1518,-4.2355,-4.1419,-4.0945,-4.1169,-4.0839,-4.0285,-3.9522,-3.9346,-3.9346,-3.9471,-3.9496,-3.9546,-3.9697,-3.9546,-3.9572,-3.9697,-3.9697,-3.9697,-3.9697,-3.9697,-3.9697,-3.9697,-3.9697,-3.9697,-3.9697,-3.9697,-3.9697,-3.9697,-3.9697,-3.9697,-3.9697,0.0,0.0,0.0,0.0,0.0,0.0,0.0,0.0,0.0,0.0,0.0,0.0,0.0,-2.7293,-2.7329,-2.7318,0.0,0.0,0.0,0.0,0.0,-2.9804,-2.9804,0.0,-2.9804,-2.9804,-2.9804,-2.9804,-2.9804,-3.0909,-3.3043,-3.3111,-3.4519,-3.6935,-3.4801,-3.3244,-3.2139,-3.106,-3.0884,-3.121,-3.0206,-2.9804,-2.9804,0.0,0.0,0.0,0.0,0.0,0.0,0.0,0.0,0.0,0.0,0.0,-2.7971,0.0,0.0,0.0,0.0,-3.0633,0.0,-3.219,-3.3596,0.0,0.0,0.0,-3.7509,-3.8038,-3.8213,-3.8264,-3.8364,-4.0785,-4.2846,-4.2825,-4.194,-4.1617,-4.2625,-4.194,-4.1269,-4.1219,-4.2159,-4.2012,-3.9981,-4.0642,-4.1219,-4.1269,-4.0364,-4.016,-4.1169,-3.9802,-3.902,-3.8969,-3.8391,-3.8366,-3.8969,-3.8969,-3.917,-3.9697,-3.917,-3.9195,-3.9697,-3.9697,-3.9697,-3.9697,-3.9697,-3.9697,-3.9697,-3.9697,-3.9697,-3.9697,-3.9697,-3.9697,-3.9697,-3.9697,-3.9697,-3.9697,0.0,0.0,0.0,0.0,0.0,0.0,0.0,0.0,0.0,0.0,0.0,0.0,0.0,-2.8348,-2.8499,-2.885,-2.9076,0.0,0.0,0.0,0.0,-2.9804,-2.9804,-2.9804,-2.9804,-2.9804,-2.9804,-2.9804,-2.9804,-3.0557,-3.2014,-3.2742,-3.3639,-3.455,-3.4474,-3.4198,-3.3696,-3.1888,-3.1035,-3.0834,-3.008,-2.9804,0.0,0.0,0.0,0.0,0.0,0.0,0.0,0.0,0.0,0.0,0.0,0.0,0.0,0.0,0.0,0.0,0.0,0.0,0.0,-3.106,-3.1888,-3.2767,-3.352,-3.47,-3.5941,-3.7171,-3.7438,-3.8,-3.9702,-3.9834,-3.9861,-4.0249,-3.9644,-3.9392,-4.0199,-3.9977,-3.9599,-3.9216,-4.0104,-4.0388,-3.9297,-3.9829,-4.0058,-3.9752,-3.9399,-3.9196,-3.9141,-3.8616,-3.8316,-3.8316,-3.8115,-3.8115,-3.8316,-3.8316,-3.8417,-3.8617,-3.8417,-3.8617,-3.917,-3.917,-3.9346,-3.9697,-3.9697,-3.9697,-3.9697,-3.9697,-3.9697,-3.9697,-3.9697,-3.9697,-3.9697,-3.9697,-3.9697,-3.9697,0.0,0.0,0.0,0.0,0.0,0.0,0.0,0.0,0.0,-2.7795,0.0,0.0,0.0,0.0,-2.9038,-2.9478,-2.9679,-2.9804,-2.9804,-2.9804,-2.9804,-2.9804,-2.9804,-2.9804,-2.9804,-2.9603,-2.9603,-2.9804,-2.9603,-3.0156,-3.1411,-3.2164,-3.2817,-3.337,-3.3922,-3.4274,-3.4324,-3.2466,-3.1461,-3.1085,-3.0357,0.0,-3.008,0.0,0.0,0.0,0.0,0.0,0.0,0.0,0.0,0.0,0.0,0.0,0.0,0.0,0.0,0.0,-2.9628,0.0,0.0,0.0,0.0,-3.126,-3.1813,-3.2943,-3.425,-3.5742,-3.606,-3.6701,-3.8609,-3.7809,-3.7358,-3.8863,-3.8489,-3.814,-3.8517,-3.8567,-3.8442,-3.804,-3.8668,-3.8994,-3.8617,-3.8919,-3.8969,-3.8617,-3.8567,0.0,-3.8015,-3.7839,-3.7638,-3.7462,-3.7638,-3.7739,-3.7739,-3.7739,-3.7814,-3.8015,-3.7814,-3.804,-3.8567,-3.8567,-3.8894,-3.9421,-3.9421,-3.9521,-3.9697,-3.9697,-3.9697,-3.9697,-3.9697,-3.9697,-3.9697,-3.9697,-3.9697,-3.9697,0.0,0.0,0.0,0.0,0.0,0.0,0.0,0.0,0.0,-2.8737,0.0,0.0,0.0,0.0,0.0,-2.8938,-2.9503,-2.9804,-2.9804,-2.9804,-2.9804,-2.9804,0.0,0.0,-2.9804,-2.9252,-2.9189,-2.9804,-2.9189,-2.9779,-3.1336,-3.1361,-3.224,-3.3771,-3.3269,-3.3319,-3.3746,-3.2667,-3.219,-3.2114,-3.1035,-3.0633,-3.0708,0.0,0.0,0.0,-3.1411,-3.1085,0.0,-3.003,0.0,0.0,0.0,0.0,0.0,0.0,0.0,0.0,0.0,0.0,0.0,0.0,0.0,0.0,-3.1235,0.0,-3.2491,-3.3596,-3.3847,-3.4022,-3.4575,-3.4675,-3.5674,-3.8929,-3.8549,-3.7914,-3.7965,-3.7939,-3.7939,-3.7965,-3.7965,-3.799,-3.799,-3.799,-3.799,-3.799,-3.799,-3.7965,-3.7965,-3.7437,-3.6958,-3.643,-3.6885,-3.7161,-3.7161,-3.7161,-3.7437,-3.7939,-3.7412,-3.7437,-3.799,-3.799,-3.8291,-3.8894,-3.8919,-3.917,-3.9672,-3.9697,-3.9697,-3.9697,-3.9697,-3.9697,-3.9697,-3.9697,-3.9697,-3.9697,0.0,0.0,0.0,0.0,0.0,0.0,-2.7871,-2.8222,-2.8537,0.0,0.0,0.0,-2.9553,-2.9905,-3.0116,-3.0116,-3.0306,-3.0206,-2.9829,-2.9804,-2.9804,-2.9804,-2.9804,-2.9804,-2.9804,-2.9628,-2.9628,-2.9804,-2.9628,-2.9779,-3.0256,-3.0633,-3.1085,-3.1537,-3.1763,-3.1938,-3.2064,-3.1738,-3.1863,-3.2114,-3.1035,-3.1085,0.0,0.0,0.0,0.0,0.0,-3.1637,-3.116,0.0,-3.0708,-3.0306,0.0,0.0,0.0,0.0,0.0,0.0,-2.9754,0.0,0.0,0.0,0.0,0.0,0.0,0.0,-3.126,-3.1938,-3.2416,-3.2867,-3.342,-3.352,-3.4004,-3.5257,-3.5537,-3.5906,-3.6734,-3.6483,-3.6358,-3.6759,-3.7161,-3.7412,-3.7412,-3.7764,-3.7839,0.0,-3.7412,-3.7236,-3.6835,-3.6732,-3.6556,-3.6405,-3.6556,-3.6631,-3.6631,-3.6631,-3.6707,-3.6857,-3.6707,-3.6885,-3.7412,-3.7412,-3.7713,-3.8266,-3.8693,-3.8969,-3.912,-3.9521,-3.9697,-3.9697,-3.9697,-3.9697,-3.9697,-3.9697,-3.9697,-3.9697,0.0,0.0,0.0,0.0,0.0,0.0,-2.8411,-2.8925,-2.9302,0.0,0.0,0.0,-3.0105,-3.0809,-3.111,-3.0658,-3.0608,-3.0382,-2.9829,-2.9804,-2.9804,-2.9804,-2.9804,-2.9804,-2.9804,-2.9553,-2.9553,-2.9804,-2.9553,-2.9679,-3.0131,-3.0231,-3.0407,-3.0633,-3.0934,-3.0934,-3.0758,-3.121,-3.1587,-3.1863,-3.1712,0.0,0.0,-3.2717,-3.2792,0.0,0.0,0.0,-3.2365,-3.1888,-3.1235,0.0,0.0,0.0,0.0,0.0,0.0,0.0,0.0,0.0,0.0,0.0,0.0,0.0,-2.9804,-3.003,-3.0432,-3.0959,-3.1311,-3.1712,-3.2265,-3.2365,-3.2466,-3.2792,-3.3119,-3.3897,-3.5479,-3.5382,-3.5328,-3.5655,-3.5956,-3.6157,-3.6157,-3.6458,-3.6609,-3.6508,-3.6508,-3.6458,-3.6405,-3.6405,-3.6405,-3.6405,-3.6405,-3.6405,-3.6405,-3.6405,-3.6405,-3.6405,-3.6405,-3.6581,-3.6883,-3.6883,-3.7136,-3.7688,-3.8015,-3.8492,-3.8944,-3.922,-3.9496,-3.9697,-3.9697,-3.9697,-3.9697,-3.9697,-3.9697,-3.9697,0.0,0.0,0.0,-2.7369,-2.8348,-2.9088,-2.9088,-2.9553,-2.993,0.0,-3.0105,-3.0357,-3.0909,-3.1763,-3.1938,-3.0959,-3.0834,-3.0557,-3.0005,-2.9905,-2.988,-2.988,-2.9829,-2.9829,-2.988,-2.9327,-2.9302,-2.988,-2.9302,-2.954,-3.0608,-3.0055,-3.008,-3.0608,0.0,0.0,-2.9854,-3.0934,-3.1386,-3.1486,-3.2616,-3.3144,0.0,0.0,-3.468,-3.4726,-3.4801,-3.4449,-3.3822,-3.2692,-3.1587,0.0,0.0,0.0,0.0,0.0,-2.9804,0.0,0.0,0.0,0.0,0.0,0.0,0.0,-2.9804,-2.9804,-2.993,-3.0432,-3.0532,-3.0658,-3.1135,-3.121,-3.1235,-3.1286,-3.1311,-3.2039,-3.4148,-3.4399,-3.4399,-3.4525,-3.4474,-3.4455,-3.4625,-3.4625,-3.4806,-3.5357,-3.5408,-3.5655,-3.6204,-3.6279,-3.6329,-3.6329,-3.638,-3.6405,-3.6405,-3.6405,-3.6405,-3.6405,-3.6405,-3.6405,-3.6405,-3.6405,-3.6681,-3.7086,-3.7161,-3.7764,-3.8743,-3.8869,-3.9195,-3.9697,-3.9697,-3.9697,-3.9697,-3.9697,-3.9697,-3.9697,0.0,0.0,0.0,-2.7946,-2.9252,-3.0281,-3.0281,-3.0382,-3.0758,-3.1637,-3.2139,-3.2641,-3.3194,-3.3043,-3.2817,-3.2616,-3.2164,-3.1662,-3.111,-3.0683,-3.0457,-3.0457,-3.003,-3.0005,-3.0432,-2.9905,-2.9905,-3.0457,-2.9905,-2.9955,-3.0608,-3.0055,-3.008,-3.0608,-3.0156,0.0,-2.9854,-3.0934,-3.1386,-3.1486,-3.2616,-3.3621,-3.4424,-3.465,-3.468,-3.4776,-3.5182,-3.4981,-3.4399,-3.3294,-3.2164,-3.116,0.0,0.0,0.0,0.0,0.0,0.0,0.0,0.0,0.0,0.0,0.0,0.0,-2.9804,-2.9804,-2.9829,-2.993,-2.9955,-2.998,-3.008,-3.0105,-3.0256,-3.0708,-3.0758,-3.121,-3.2516,-3.2315,-3.2365,-3.3294,-3.2993,-3.3068,-3.3972,-3.4073,-3.4299,-3.4851,-3.4831,-3.4926,-3.5027,-3.5454,-3.5658,-3.5658,-3.6132,-3.6405,-3.6405,-3.6405,-3.6405,-3.6405,-3.6405,-3.6405,-3.6405,-3.6405,-3.6455,-3.6606,-3.6985,-3.7312,-3.7588,-3.8542,-3.9195,-3.9697,-3.9697,-3.9697,-3.9697,-3.9697,-3.9697,-3.9697,0.0,0.0,-2.8599,-2.89,-3.008,-3.1085,-3.1361,-3.1662,-3.2139,-3.2943,-3.3796,-3.4299,-3.4299,-3.4073,-3.3671,0.0,0.0,0.0,0.0,-3.116,-3.1009,-3.1009,-3.0733,-3.0708,-3.0984,-3.0733,-3.0733,-3.1009,-3.0457,-3.0608,-3.1386,-3.0306,-3.0382,-3.1361,-3.0281,-3.008,-3.0633,-3.116,-3.1537,-3.1913,-3.3319,0.0,-3.4776,-3.5328,-3.5554,-3.5579,-3.5855,-3.5604,-3.4931,-3.3847,-3.2918,0.0,0.0,-3.1009,-3.0884,0.0,-3.0206,-3.0156,0.0,0.0,0.0,-2.9804,0.0,0.0,0.0,-2.9804,-2.9804,-2.9804,-2.9804,-2.9804,-2.9804,-2.9804,-2.988,-3.0156,-3.0206,-3.0382,-3.0934,-3.1235,-3.1587,-3.2164,-3.1989,-3.2039,-3.2591,-3.2641,-3.2867,-3.342,-3.3997,-3.4299,-3.4299,-3.5056,-3.5508,-3.5508,-3.6081,-3.6405,-3.6405,-3.6405,-3.6405,-3.6405,-3.6405,-3.6405,-3.6405,-3.6405,-3.6405,-3.643,-3.6707,-3.7086,-3.7638,-3.8216,-3.8944,-3.9697,-3.9697,-3.9697,-3.9697,-3.9697,-3.9697,-3.9697,0.0,0.0,0.0,-2.9553,-3.0608,-3.1537,-3.1989,0.0,-3.3219,-3.4098,-3.5132,-3.5683,-3.5357,0.0,0.0,0.0,0.0,0.0,0.0,-3.1788,-3.1537,-3.1537,-3.1461,-3.1436,-3.1537,-3.1436,-3.1436,-3.1537,-3.1035,-3.126,-3.219,-3.0758,-3.0859,-3.2164,-3.0733,-3.0583,-3.1411,-3.1512,-3.1863,-3.2516,0.0,-3.468,-3.4826,-3.583,-3.6329,-3.638,-3.6279,-3.5855,-3.5182,-3.4248,-3.352,-3.2893,-3.1863,-3.1537,0.0,0.0,0.0,0.0,0.0,0.0,0.0,0.0,0.0,-2.9955,0.0,0.0,0.0,-2.9804,-2.9804,-2.9804,0.0,0.0,0.0,-2.9654,0.0,0.0,0.0,-3.0457,0.0,-3.1085,-3.1085,-3.111,-3.1235,-3.1336,-3.1562,-3.2014,-3.2893,-3.347,-3.3571,-3.4525,-3.5082,-3.5182,-3.5855,-3.6207,-3.6207,-3.6355,-3.6405,-3.6405,-3.6405,-3.6405,-3.6405,-3.6405,-3.6405,-3.6405,-3.6405,-3.6908,-3.7713,-3.7914,-3.8492,-3.9245,-3.9572,-3.9697,-3.9697,-3.9697,-3.9697,-3.9697,-2.8097,-2.8499,0.0,0.0,-3.0331,-3.1411,0.0,0.0,-3.3043,-3.5031,-3.6307,-3.7161,0.0,0.0,0.0,0.0,0.0,0.0,-3.4931,0.0,0.0,-3.2114,-3.1662,-3.1612,-3.2114,-3.1637,-3.1637,-3.2114,-3.1562,-3.1612,-3.219,-3.1537,-3.1562,-3.219,-3.1512,-3.1286,-3.1411,-3.1913,-3.2441,0.0,-3.4248,-3.468,0.0,-3.5357,-3.5931,-3.6355,-3.5805,-3.5232,-3.468,0.0,-3.352,-3.2968,0.0,-3.2114,-3.2014,-3.1461,0.0,0.0,0.0,0.0,0.0,0.0,-3.0859,0.0,0.0,0.0,-2.9804,-2.9804,0.0,0.0,0.0,0.0,0.0,0.0,0.0,0.0,-2.9063,-2.9578,-2.998,-2.998,-2.998,-3.0156,-3.0658,-3.111,-3.1411,-3.1486,-3.1587,-3.1888,-3.239,-3.3018,-3.3571,-3.4073,-3.5056,-3.5583,-3.5583,-3.6107,-3.6405,-3.6405,-3.6405,-3.6405,-3.6405,-3.6405,-3.6405,-3.6405,-3.6405,-3.648,-3.6681,-3.7613,-3.7789,-3.7613,-3.912,-3.9697,-3.9697,-3.9697,-3.9697,-3.9697,-2.8587,-2.9051,0.0,0.0,-3.0482,0.0,0.0,0.0,-3.6031,-3.7312,-3.8165,-3.8969,0.0,0.0,0.0,0.0,0.0,-3.4675,0.0,0.0,0.0,0.0,-3.2491,-3.2466,-3.2717,-3.2491,-3.2491,-3.2717,-3.2139,-3.2164,-3.2692,-3.1813,-3.1863,-3.2667,-3.1788,-3.1763,-3.239,0.0,-3.3043,0.0,0.0,-3.4881,0.0,-3.5805,-3.6157,-3.638,-3.6107,-3.5655,-3.5082,0.0,-3.3997,0.0,0.0,0.0,0.0,0.0,0.0,0.0,0.0,0.0,0.0,0.0,0.0,0.0,-3.106,0.0,-3.0633,0.0,0.0,0.0,0.0,0.0,0.0,0.0,-2.9628,0.0,0.0,0.0,-2.9804,0.0,0.0,0.0,-3.0105,-3.0331,-3.0457,-3.0457,-3.0758,-3.1035,-3.126,-3.2416,-3.3194,-3.342,-3.45,-3.5182,-3.5508,-3.578,-3.6031,-3.6405,-3.6405,-3.6405,-3.6405,-3.6405,-3.6405,-3.6405,-3.6405,-3.6581,-3.6933,-3.7337,-3.7588,-3.7764,-3.8818,-3.922,-3.922,-3.922,-3.9421,-3.9697,-2.9176,0.0,0.0,0.0,0.0,0.0,0.0,0.0,-3.7538,-3.8718,-3.922,0.0,-4.163,-4.0074,0.0,0.0,-3.8065,-3.6411,0.0,0.0,-3.3545,0.0,0.0,0.0,0.0,-3.3111,-3.3111,-3.3111,-3.2641,-3.2667,-3.3068,-3.224,-3.229,-3.3043,-3.2365,-3.2541,-3.3319,0.0,-3.3847,-3.4374,-3.4731,-3.5232,-3.5805,-3.6207,-3.6405,-3.638,-3.6182,-3.5881,-3.5408,-3.4856,-3.4349,0.0,-3.342,0.0,0.0,0.0,0.0,0.0,-3.1964,0.0,0.0,0.0,0.0,0.0,0.0,0.0,0.0,0.0,0.0,0.0,0.0,0.0,0.0,0.0,0.0,-2.9729,0.0,-2.9704,0.0,0.0,0.0,0.0,0.0,-2.9804,-2.9804,-2.9804,-3.0156,-3.0457,-3.0608,-3.1888,-3.2692,-3.2842,-3.3922,-3.4731,-3.5282,-3.5282,-3.568,-3.6405,-3.6207,-3.6254,-3.6405,-3.6405,-3.6405,-3.6405,-3.6405,-3.6631,-3.696,-3.7111,-3.7337,-3.7638,-3.8341,-3.8642,-3.8668,-3.8969,-3.9346,-3.9697,-2.9754,-2.9779,0.0,0.0,0.0,0.0,0.0,-3.4073,-3.5805,-3.8517,-3.8894,0.0,0.0,0.0,0.0,0.0,0.0,-3.932,-3.8768,0.0,-3.4751,0.0,0.0,-3.3111,0.0,0.0,-3.3111,-3.3111,-3.3068,-3.3068,-3.3111,-3.3043,-3.3043,-3.3093,-3.3596,-3.3847,-3.3897,-3.4449,-3.4931,-3.5458,-3.5458,-3.5855,-3.638,0.0,-3.6405,-3.6329,-3.5755,0.0,0.0,-3.4856,-3.4349,0.0,0.0,0.0,0.0,0.0,0.0,0.0,0.0,0.0,0.0,-3.3061,0.0,0.0,0.0,0.0,-3.1386,0.0,0.0,0.0,0.0,0.0,0.0,0.0,0.0,0.0,0.0,0.0,0.0,0.0,0.0,0.0,0.0,-2.9804,-2.9804,0.0,-2.9804,-3.0055,-3.0583,-3.1135,-3.1687,-3.2215,-3.3345,-3.4198,-3.4705,-3.4751,-3.5303,-3.6405,-3.583,-3.5855,-3.6405,-3.6405,-3.6405,-3.6405,-3.6405,-3.6405,-3.648,-3.7008,-3.6885,-3.6581,-3.7613,-3.804,-3.8165,-3.927,-3.9672,-3.9697,-2.9804,-2.9804,-2.9804,-2.9804,0.0,0.0,-3.3244,-3.5177,-3.7613,-4.1128,-4.158,0.0,0.0,-4.5824,-4.5547,0.0,0.0,-4.2409,-4.1182,-3.8969,0.0,0.0,0.0,-3.4374,0.0,0.0,0.0,0.0,0.0,-3.3111,-3.3111,-3.3111,-3.3111,0.0,0.0,-3.3545,0.0,0.0,0.0,0.0,0.0,-3.6408,-3.6908,0.0,-3.6405,-3.638,-3.6157,-3.5855,0.0,-3.5282,-3.4856,-3.4374,-3.4022,-3.4022,-3.4022,-3.3294,-3.3345,-3.3545,0.0,0.0,-3.3111,-3.3111,0.0,0.0,0.0,0.0,0.0,0.0,0.0,0.0,0.0,0.0,0.0,0.0,0.0,0.0,0.0,0.0,0.0,0.0,0.0,0.0,0.0,0.0,0.0,0.0,-2.9804,0.0,-3.0055,-3.0909,-3.1461,-3.1662,-3.2767,-3.3621,-3.4173,-3.455,-3.5102,-3.583,-3.6006,-3.6182,-3.6405,-3.6405,-3.6405,-3.6405,-3.6405,-3.6405,-3.643,-3.6606,-3.6782,-3.6985,-3.7713,-3.8241,-3.8617,-3.9019,-3.9371,-3.9697,-3.008,-2.993,-2.9804,-2.9804,-3.0256,-3.1386,-3.3571,-3.6282,-3.9195,-4.2338,-4.3539,0.0,-4.8711,0.0,-4.8134,0.0,-4.7029,-4.497,-4.2389,-4.1056,0.0,-3.6807,-3.6307,0.0,0.0,0.0,0.0,0.0,0.0,-3.3269,-3.3111,-3.3111,0.0,0.0,0.0,-3.3671,-3.4223,-3.4776,-3.5282,0.0,0.0,-3.6631,0.0,0.0,-3.6531,-3.6681,0.0,-3.6132,-3.583,-3.583,-3.5479,-3.4906,-3.46,-3.46,-3.4575,-3.3872,-3.3771,-3.3872,-3.3696,-3.352,0.0,-3.337,-3.337,0.0,-3.3162,0.0,0.0,0.0,0.0,0.0,0.0,0.0,0.0,0.0,0.0,0.0,0.0,-2.9804,0.0,0.0,0.0,0.0,0.0,0.0,0.0,0.0,0.0,0.0,0.0,-3.0809,-3.1386,-3.1386,-3.2533,-3.3345,-3.3897,-3.4248,-3.4756,-3.5508,-3.5906,-3.6182,-3.6405,-3.6405,-3.6405,-3.6405,-3.6405,-3.6531,-3.6707,-3.6707,-3.6985,-3.7538,-3.809,-3.8542,-3.8944,-3.9094,-3.9396,-3.9697,-3.0608,-3.0231,-2.993,-2.9955,-3.1235,-3.2641,-3.3796,-3.7236,-4.0325,-4.2137,-4.4719,-4.728,-4.9515,-4.9766,-4.9766,-4.9766,-4.9238,-4.714,-4.2866,-4.2992,0.0,0.0,-3.7462,-3.7111,-3.6505,0.0,0.0,0.0,0.0,0.0,0.0,0.0,0.0,0.0,-3.3621,0.0,-3.4705,-3.5232,-3.583,-3.6405,-3.6405,-3.643,-3.6455,-3.6405,-3.6757,-3.7111,-3.6606,-3.6405,-3.6405,-3.6405,-3.6006,-3.5533,-3.5508,-3.5157,-3.4801,-3.4751,-3.4374,-3.4098,-3.46,-3.4349,-3.3947,-3.3947,-3.3947,0.0,0.0,0.0,-3.3119,0.0,0.0,0.0,0.0,0.0,0.0,0.0,0.0,0.0,0.0,0.0,0.0,0.0,0.0,0.0,0.0,0.0,0.0,0.0,0.0,0.0,0.0,-3.0809,-3.1386,-3.1386,-3.2516,-3.337,-3.3897,-3.3947,-3.45,-3.5508,-3.5533,-3.5855,-3.6405,-3.6405,-3.6405,-3.6405,-3.6405,-3.6732,-3.7186,-3.7186,-3.7513,-3.809,-3.8668,-3.8944,-3.8969,-3.9496,-3.9697,-3.9697,-3.0608,-3.1135,-3.1738,-3.2164,-3.2566,-3.337,-3.4856,-3.7713,-4.0877,-4.4192,-4.6677,-4.9138,-5.1774,-5.2076,-5.2076,-5.2076,-5.1197,0.0,0.0,0.0,0.0,-4.2208,-4.1329,-3.9899,-3.7638,-3.691,0.0,-3.45,0.0,0.0,-3.3671,0.0,0.0,0.0,0.0,-3.3822,-3.4726,-3.4831,-3.5479,-3.6405,-3.6405,-3.6656,-3.6935,0.0,-3.6757,-3.7111,-3.6606,-3.6405,-3.6405,-3.6405,-3.6329,-3.6081,-3.5633,-3.573,-3.578,-3.4951,-3.4856,-3.5031,-3.4756,-3.4625,-3.45,-3.45,-3.45,-3.4374,0.0,0.0,0.0,0.0,0.0,0.0,0.0,0.0,0.0,0.0,0.0,0.0,0.0,0.0,0.0,-2.9804,0.0,0.0,0.0,0.0,0.0,0.0,0.0,0.0,0.0,0.0,-3.1386,-3.1386,-3.2893,-3.3746,-3.3897,-3.468,-3.5232,-3.5508,-3.5956,-3.6279,-3.6405,-3.6405,-3.6405,-3.6405,-3.6405,-3.6732,-3.7186,-3.7186,-3.7764,-3.8668,-3.8869,-3.912,-3.9496,-3.9647,-3.9697,-3.9697,-3.126,-3.2767,-3.3972,-3.3822,-3.5203,-3.6558,-3.7262,-3.9094,-4.163,-4.5045,-4.7606,0.0,-5.1297,-5.2352,-5.2829,-5.2578,-5.2,0.0,-4.8987,0.0,0.0,-4.4292,-4.3338,-4.1681,-3.917,-3.809,0.0,-3.468,0.0,0.0,-3.352,0.0,0.0,0.0,0.0,-3.3696,-3.4705,-3.5228,-3.578,-3.6405,-3.6405,-3.6606,0.0,-3.6531,-3.6606,-3.6832,-3.6531,-3.6405,-3.6405,-3.6405,-3.6405,-3.6355,-3.6006,-3.6107,-3.6279,-3.5629,-3.5479,-3.5483,-3.5454,-3.5253,-3.5031,-3.5031,-3.5031,-3.4831,-3.4073,-3.3897,-3.3746,0.0,-3.3111,-3.3011,0.0,0.0,0.0,0.0,0.0,0.0,0.0,0.0,0.0,0.0,-2.9804,0.0,0.0,0.0,0.0,0.0,0.0,0.0,0.0,0.0,-3.1386,-3.1386,-3.3269,-3.4148,-3.3897,-3.5228,-3.578,-3.5508,-3.6107,-3.6405,-3.6405,-3.6405,-3.6531,-3.6782,-3.6782,-3.7235,-3.7914,-3.7914,-3.8442,-3.922,-3.922,-3.9421,-3.9697,-3.9697,-3.9697,-3.9697,-3.234,-3.4675,0.0,0.0,-3.809,-4.0576,-4.0475,-4.1455,-4.3087,-4.5598,-4.8309,-5.0017,-5.0017,-5.1774,-5.2729,-5.2251,0.0,-5.1046,-4.851,-4.9188,-4.8309,-4.5196,-4.4468,-4.3037,-4.0676,-3.9044,0.0,0.0,0.0,-3.4198,-3.3194,0.0,0.0,0.0,0.0,0.0,0.0,-3.5952,-3.6405,-3.6405,-3.6405,-3.6405,-3.6405,-3.6405,-3.6405,-3.6405,-3.6405,-3.6405,-3.6405,-3.6405,-3.6405,-3.6405,-3.6405,-3.6405,-3.6405,-3.6405,-3.6031,-3.5708,-3.6279,-3.6006,-3.5608,-3.5608,-3.5608,-3.5332,-3.4349,-3.4048,-3.3872,-3.3395,-3.3212,-3.3093,0.0,0.0,0.0,0.0,0.0,0.0,0.0,0.0,0.0,0.0,0.0,0.0,0.0,0.0,0.0,0.0,0.0,0.0,0.0,0.0,-3.1386,-3.1386,-3.3571,-3.4525,-3.4123,-3.5604,-3.6157,-3.5708,-3.6157,-3.6405,-3.6405,-3.648,-3.6782,-3.7186,-3.7262,-3.7889,-3.8919,-3.8919,-3.9195,-3.9697,-3.9697,-3.9697,-3.9697,-3.9697,-3.9697,-3.9697,-3.3596,0.0,0.0,0.0,-3.8919,-4.1932,-4.4141,-4.5773,-4.7104,-4.8058,-5.0619,-5.2352,-5.2352,-5.2703,-5.2879,-5.2804,-5.2377,0.0,0.0,0.0,0.0,-4.7431,-4.6401,-4.4392,-4.12,-4.0023,-3.809,0.0,-3.4906,-3.4399,-3.3746,0.0,0.0,0.0,0.0,0.0,-3.4801,-3.5952,0.0,-3.6405,-3.6405,-3.6405,-3.6405,-3.6405,-3.6405,-3.6405,-3.6405,-3.6405,-3.6405,-3.6405,-3.6405,-3.6405,-3.6405,-3.6405,-3.6405,-3.6405,-3.6355,-3.6279,-3.638,-3.6329,-3.6254,-3.6254,-3.6254,-3.6056,-3.5357,-3.4856,-3.455,-3.4449,-3.3721,-3.3262,-3.3671,0.0,0.0,0.0,0.0,0.0,0.0,0.0,0.0,0.0,0.0,-2.9804,0.0,0.0,0.0,0.0,0.0,0.0,0.0,0.0,-3.1386,0.0,-3.3571,0.0,0.0,0.0,-3.6581,-3.6885,-3.6581,-3.6405,-3.643,-3.6883,-3.7086,-3.7211,-3.7663,-3.8241,-3.8919,-3.8919,-3.9195,-3.9697,-3.9697,-3.9697,-3.9697,-3.9697,-3.9697,-3.9697,-3.6408,0.0,0.0,0.0,-4.1882,-4.4644,-4.6853,-4.9088,-5.0193,-4.9314,-5.0368,-5.1197,-5.1197,-5.2226,-5.2929,-5.2929,-5.2678,-5.2176,-5.1348,-5.1021,-5.0117,-4.8435,-4.733,0.0,-4.2258,-4.0827,-3.8743,-3.5981,-3.5127,-3.4449,-3.3897,0.0,0.0,0.0,0.0,-3.465,0.0,0.0,0.0,-3.6405,-3.6405,-3.6405,-3.6405,-3.6405,-3.6405,-3.6405,-3.6405,-3.6405,-3.6405,-3.6405,-3.6405,-3.6405,-3.6405,-3.6405,-3.6405,-3.6405,-3.6405,-3.6405,-3.6405,-3.6405,-3.6405,-3.6405,-3.6405,-3.6254,-3.5633,-3.5282,-3.5031,-3.4776,-3.4299,-3.3922,-3.3897,-3.3219,0.0,0.0,0.0,0.0,0.0,0.0,0.0,0.0,0.0,0.0,0.0,0.0,0.0,0.0,0.0,-2.9804,-2.9804,0.0,-3.1386,0.0,0.0,0.0,-3.5082,0.0,-3.6784,-3.6807,-3.6832,-3.6784,-3.6857,-3.7362,-3.7789,-3.8065,-3.8341,-3.8768,-3.9295,-3.9295,-3.9446,-3.9697,-3.9697,-3.9697,-3.9697,-3.9697,-3.9697,-3.9697,0.0,-4.0199,0.0,0.0,-4.5171,-4.7456,-4.8761,-5.1222,-5.2302,-5.0544,-5.0293,-5.0293,-5.0293,-5.1875,-5.2929,-5.2929,-5.2829,-5.2327,-5.1348,-5.1172,-5.0343,-4.8661,-4.7657,-4.5824,-4.3037,-4.1354,-3.922,0.0,-3.5429,-3.4675,-3.4248,0.0,0.0,0.0,0.0,0.0,0.0,0.0,-3.6405,-3.6405,-3.6405,-3.6405,-3.6405,-3.6405,-3.6405,-3.6405,-3.6405,-3.6405,-3.6405,-3.6405,-3.6405,-3.6405,-3.6405,-3.6405,-3.6405,-3.6405,-3.6405,-3.6405,-3.6405,-3.6405,-3.6405,-3.6405,-3.6405,-3.6304,-3.5805,-3.5583,-3.5408,-3.5127,-3.4876,-3.455,-3.3997,-3.3445,0.0,0.0,0.0,0.0,0.0,0.0,0.0,0.0,0.0,0.0,-2.9854,0.0,0.0,0.0,0.0,-2.9804,-2.9804,-3.0809,-3.1386,0.0,0.0,-3.5232,-3.5077,0.0,-3.7086,-3.6933,-3.7211,-3.7362,-3.7387,-3.7939,-3.8442,-3.8919,-3.9045,-3.9295,-3.9697,-3.9697,-3.9697,-3.9697,-3.9697,-3.9697,-3.9697,-3.9697,-3.9697,-3.9697,0.0,0.0,-4.4367,-4.507,-4.7456,-4.9339,-4.949,-5.1473,-5.2854,-5.2653,-5.2628,-5.2628,-5.2628,-5.2804,-5.2929,-5.2929,-5.2477,-5.1925,-5.1322,-5.0795,-4.9741,-4.8058,-4.7431,-4.5824,-4.3037,-4.1354,-3.9396,0.0,-3.5959,-3.5382,0.0,0.0,0.0,0.0,0.0,0.0,0.0,-3.6132,-3.6405,-3.6405,-3.6405,-3.6405,-3.6405,-3.6405,-3.6405,-3.6405,-3.6405,-3.6405,-3.6405,-3.6405,-3.6405,-3.6405,-3.6405,-3.6405,-3.6405,-3.6405,-3.6405,-3.6405,-3.6405,-3.6405,-3.6405,-3.6405,-3.6405,-3.6405,-3.6355,-3.5906,-3.5633,-3.6153,-3.5403,-3.455,-3.3997,-3.3445,-3.3068,0.0,0.0,0.0,0.0,0.0,0.0,0.0,0.0,0.0,0.0,-2.9804,0.0,0.0,-2.9804,-2.9804,-2.9804,-3.0809,-3.1386,-3.1386,-3.3596,-3.5253,-3.6254,-3.686,-3.7663,-3.8668,-3.8165,-3.7939,-3.7939,-3.8517,-3.8869,-3.8944,-3.9396,-3.9647,-3.9697,-3.9697,-3.9697,-3.9697,-3.9697,-3.9697,-3.9697,-3.9697,-3.9697,-3.9697,-4.4995,-4.5146,-4.5849,-4.8058,-4.8812,-4.9665,-5.1348,-5.2352,-5.2929,-5.2929,-5.2929,-5.2929,-5.2929,-5.2929,-5.2929,-5.2929,-5.2729,-5.2226,-5.1348,-5.1071,-5.0193,-4.851,-4.7883,-4.6451,-4.4016,-4.2359,-4.0425,0.0,0.0,0.0,0.0,0.0,0.0,0.0,0.0,-3.6279,-3.6056,-3.6329,-3.6405,-3.6405,-3.6405,-3.6405,-3.6405,-3.6405,-3.6405,-3.6405,-3.6405,-3.6405,-3.6405,-3.6405,-3.6405,-3.6405,-3.6405,-3.6405,-3.6405,-3.6405,-3.6405,-3.6405,-3.6405,-3.6405,-3.6405,-3.6405,-3.6405,-3.6405,-3.6405,-3.6182,-3.6107,-3.6355,-3.5755,-3.5006,-3.45,-3.3947,-3.347,-3.3144,0.0,0.0,0.0,0.0,0.0,0.0,0.0,0.0,0.0,0.0,0.0,0.0,0.0,-2.993,-3.0256,-3.0984,-3.1537,-3.1863,0.0,-3.5102,-3.5855,-3.6734,-3.7588,-3.8341,-3.8467,-3.8517,-3.8542,-3.9094,-3.9371,-3.9371,-3.9597,-3.9697,-3.9697,-3.9697,-3.9697,-3.9697,-3.9697,-3.9697,-3.9697,-3.9697,-3.9697,-3.9697,-4.7631,-4.723,-4.7631,-5.0645,-5.0519,-5.067,-5.2628,-5.2929,-5.2929,-5.2929,-5.2929,-5.2929,-5.2929,-5.3055,-5.308,-5.2929,-5.2779,-5.2277,-5.1348,-5.0971,-5.0193,-4.8837,-4.8209,0.0,-4.5171,-4.3338,-4.1534,-3.9597,-3.7739,0.0,0.0,0.0,0.0,0.0,-3.6405,-3.6405,-3.6405,-3.6405,-3.6405,-3.6405,-3.6405,-3.6405,-3.6405,-3.6405,-3.6405,-3.6405,-3.6405,-3.6405,-3.6405,-3.6405,-3.6405,-3.6405,-3.6405,-3.6405,-3.6405,-3.6405,-3.6405,-3.6405,-3.6405,-3.6405,-3.6405,-3.6405,-3.6405,-3.6405,-3.6405,-3.6405,-3.6405,-3.6405,-3.5931,-3.5382,-3.4981,-3.4525,-3.3947,-3.3395,0.0,0.0,0.0,0.0,0.0,0.0,-3.1637,-3.126,-3.0357,-3.0256,0.0,0.0,0.0,-3.0507,-3.106,-3.1436,-3.1888,0.0,0.0,0.0,-3.5984,-3.7136,-3.7965,-3.8517,-3.8919,-3.917,-3.912,-3.9521,-3.9697,-3.9697,-3.9697,-3.9697,-3.9697,-3.9697,-3.9697,-3.9697,-3.9697,-3.9697,-3.9697,-3.9697,-3.9798,-3.9923,-4.9038,-4.9565,-5.0243,-5.2503,-5.2879,-5.2879,-5.2929,-5.2929,-5.2929,-5.2929,-5.2929,-5.2929,-5.2929,-5.3381,-5.3482,-5.298,-5.2427,-5.1875,-5.1322,-5.0243,-4.9364,0.0,0.0,-4.7405,-4.6301,-4.4116,-4.2434,-4.125,0.0,0.0,-3.7965,0.0,-3.6885,-3.6405,-3.6405,-3.6405,-3.6405,-3.6405,-3.6405,-3.6405,-3.6405,-3.6405,-3.6405,-3.6405,-3.6405,-3.6405,-3.6405,-3.6405,-3.6405,-3.6405,-3.6405,-3.6405,-3.6405,-3.6405,-3.6405,-3.6405,-3.6405,-3.6405,-3.6405,-3.6405,-3.6405,-3.6405,-3.6405,-3.6405,-3.6405,-3.6405,-3.6405,-3.6405,-3.5931,-3.5508,-3.5483,-3.5031,-3.4525,-3.3972,0.0,0.0,0.0,0.0,0.0,0.0,-3.2215,-3.1989,-3.1411,-3.1361,0.0,0.0,0.0,0.0,0.0,0.0,0.0,-3.3043,-3.4675,0.0,-3.7161,-3.8291,-3.912,-3.9672,-3.9672,-3.9697,-3.9697,-3.9697,-3.9697,-3.9697,-3.9697,-3.9697,-3.9697,-3.9697,-3.9697,-3.9697,-3.9697,-3.9697,-3.9697,-3.9697,-4.0049,-4.0425,-5.0494,-5.1046,-5.1649,-5.2729,-5.2929,-5.2929,-5.2929,-5.2929,-5.2929,-5.2929,-5.2929,-5.2929,-5.2929,-5.308,-5.3256,0.0,-5.298,-5.2427,0.0,-5.1147,-5.0318,-4.9364,-4.841,-4.7405,-4.6326,-4.4493,-4.2811,-4.1275,0.0,0.0,0.0,-3.7262,-3.6885,-3.643,-3.6807,-3.6983,-3.6983,-3.6983,-3.6983,-3.6885,-3.6556,-3.6405,-3.6405,-3.6405,-3.6405,-3.6405,-3.6405,-3.6405,-3.6405,-3.6405,-3.6405,-3.6405,-3.6405,-3.6405,-3.6405,-3.6405,-3.6405,-3.6405,-3.6405,-3.6405,-3.6405,-3.6405,-3.6405,-3.6405,-3.6405,-3.6405,-3.6405,-3.6405,-3.6279,-3.5981,-3.5583,-3.5357,-3.4931,-3.4048,-3.3897,0.0,-3.3187,0.0,0.0,0.0,-3.2215,-3.1989,-3.1436,-3.1386,0.0,0.0,0.0,0.0,0.0,0.0,0.0,0.0,-3.5429,0.0,-3.7739,-3.8492,-3.9145,-3.9697,-3.9697,-3.9697,-3.9697,-3.9697,-3.9697,-3.9697,-3.9697,-3.9697,-3.9697,-3.9697,-3.9697,-3.9697,-3.9697,-3.9697,-3.9747,-4.0124,-4.0375,-4.0501,-5.1473,-5.1875,-5.2277,-5.2829,-5.2929,-5.2929,-5.2929,-5.2929,-5.2929,-5.2929,-5.2929,-5.3005,-5.3206,-5.3055,-5.3055,-5.3381,-5.3105,-5.2603,-5.185,-5.1272,-5.0469,-4.9339,-4.841,-4.7506,-4.6652,-4.497,0.0,-4.2258,-4.0526,-3.8944,-3.7487,-3.7487,-3.7312,-3.6985,-3.7337,-3.7387,-3.7186,-3.7186,-3.7061,-3.6883,-3.6556,-3.6405,-3.6405,-3.6405,-3.6405,-3.6405,-3.6405,-3.6405,-3.6405,-3.6405,-3.6405,-3.6405,-3.6405,-3.6405,-3.6405,-3.6405,-3.6405,-3.6405,-3.6405,-3.6405,-3.6405,-3.6405,-3.6405,-3.6405,-3.6405,-3.6405,-3.6405,-3.6405,-3.6405,-3.6304,-3.5906,-3.5855,-3.5554,-3.465,-3.4349,-3.4022,-3.347,0.0,0.0,0.0,0.0,0.0,0.0,-3.2215,-3.2541,0.0,0.0,0.0,0.0,0.0,0.0,-3.4956,-3.6107,-3.7211,-3.8316,-3.8894,-3.9346,-3.9697,-3.9697,-3.9697,-3.9697,-3.9697,-3.9697,-3.9697,-3.9697,-3.9697,-3.9697,-3.9697,-3.9697,-3.9697,-3.9697,-3.9697,-3.9747,-4.03,-4.0526,-4.0526,-5.2,-5.2126,-5.2327,-5.2829,-5.2929,-5.2929,-5.2929,-5.2929,-5.2929,-5.2929,-5.2929,-5.3105,-5.3607,-5.3231,-5.2929,-5.2929,0.0,0.0,-5.1398,-5.077,-4.9967,-4.8937,-4.8259,-4.7682,-4.7205,-4.5497,-4.4292,-4.3639,-4.1028,-3.917,-3.8065,-3.8065,-3.804,-3.8015,-3.804,-3.7789,-3.7312,-3.7262,-3.6983,-3.6505,-3.648,-3.643,-3.6405,-3.6455,-3.643,-3.6405,-3.6405,-3.6405,-3.6405,-3.6405,-3.643,-3.6455,-3.6405,-3.643,-3.6455,-3.6405,-3.6405,-3.6405,-3.6405,-3.6405,-3.6405,-3.6455,-3.648,-3.6531,-3.6531,-3.6531,-3.6505,-3.648,-3.6455,-3.6455,-3.6405,-3.6405,-3.6182,-3.5533,-3.5006,-3.4525,-3.3922,-3.3395,0.0,0.0,0.0,0.0,-3.3187,-3.3646,-3.3746,0.0,0.0,0.0,0.0,0.0,-3.455,-3.5583,-3.6734,-3.7814,-3.8919,-3.9446,-3.9697,-3.9697,-3.9697,-3.9697,-3.9697,-3.9697,-3.9697,-3.9697,-3.9697,-3.9697,-3.9697,-3.9697,-3.9697,-3.9697,-3.9697,-3.9697,-3.9747,-4.03,-4.0526,-4.0526,-5.2076,-5.2452,-5.2779,-5.2904,-5.2929,-5.2929,-5.2929,-5.2929,-5.2929,-5.2929,-5.2929,-5.298,-5.3105,-5.3005,-5.2929,-5.2929,-5.2553,-5.2176,-5.1925,-5.0971,-5.0293,-5.0042,-4.8661,-4.7857,-4.7732,-4.5698,-4.374,-4.1877,-4.0852,-3.9747,-3.8668,-3.8668,-3.8442,-3.8015,-3.8467,-3.8592,-3.8492,-3.799,-3.7739,-3.7588,-3.7161,-3.6782,-3.6455,-3.6835,-3.6782,-3.6405,-3.6405,-3.6405,-3.6405,-3.6405,-3.6681,-3.6958,-3.6531,-3.6707,-3.6958,-3.6531,-3.6405,-3.6405,-3.6405,-3.6405,-3.6505,-3.6885,-3.7312,-3.7613,-3.7613,-3.7613,-3.7487,-3.7086,-3.6985,-3.6908,-3.648,-3.6405,-3.6078,-3.5031,-3.4756,-3.4374,-3.3395,-3.3169,-3.3111,0.0,-3.3445,-3.3696,-3.3696,-3.4198,-3.4474,0.0,0.0,0.0,-3.4525,-3.5328,-3.6081,-3.6784,-3.7889,-3.8793,-3.9496,-3.9622,-3.9697,-3.9697,-3.9697,-3.9697,-3.9697,-3.9697,-3.9697,-3.9697,-3.9697,-3.9697,-3.9697,-3.9697,-3.9697,-3.9697,-3.9697,-3.9697,-3.9747,-4.03,-4.0526,-4.0526,-5.2477,-5.2729,-5.2929,-5.2929,-5.2929,-5.2929,-5.2929,-5.2929,-5.2929,-5.2929,-5.2929,-5.2929,-5.2929,-5.2929,-5.2929,-5.2929,-5.2427,-5.2,-5.1749,-5.0896,-5.0067,-4.9314,-4.8385,-4.7556,-4.6828,-4.5372,-4.3539,-4.1275,-4.1,-4.0325,-3.9245,-3.9245,-3.9069,-3.8793,-3.9094,-3.912,-3.8894,-3.8542,-3.8241,-3.799,-3.7688,-3.7387,-3.7111,-3.7161,-3.6985,-3.6782,-3.6782,-3.6631,-3.6455,-3.6707,-3.6935,-3.7136,-3.6883,-3.6983,-3.7136,-3.6883,-3.6782,-3.6782,-3.6782,-3.6782,-3.6857,-3.7111,-3.7588,-3.8015,-3.8015,-3.8015,-3.7914,-3.7613,-3.7563,-3.7387,-3.6835,-3.6782,-3.6383,-3.5232,-3.4831,-3.4424,-3.3571,-3.3244,-3.3212,-3.342,-3.3947,-3.4374,-3.4625,-3.5378,-3.5629,-3.5082,-3.5554,0.0,-3.5479,-3.6508,-3.7136,-3.7186,-3.8341,-3.9145,-3.9697,-3.9697,-3.9697,-3.9697,-3.9697,-3.9697,-3.9697,-3.9697,-3.9697,-3.9697,-3.9697,-3.9697,-3.9697,-3.9697,-3.9697,-3.9697,-3.9697,-3.9697,-3.9747,-4.03,-4.035,-4.0174,-5.2929,-5.2929,-5.2929,-5.2929,-5.2929,-5.2929,-5.2929,-5.2929,-5.2929,-5.2929,-5.2929,-5.2929,-5.2929,-5.2929,-5.2929,-5.2929,-5.2427,-5.1875,-5.1322,-5.0745,-4.9715,-4.8109,-4.7958,-4.723,-4.5773,-4.492,-4.3407,-4.1275,-4.12,-4.0701,-3.9697,-3.9697,-3.9697,-3.9697,-3.9697,-3.9421,-3.9045,-3.8944,-3.8592,-3.814,-3.814,-3.809,-3.7965,-3.7588,-3.7337,-3.7186,-3.7287,-3.7008,-3.6606,-3.7111,-3.7362,-3.7412,-3.7337,-3.7362,-3.7412,-3.7337,-3.7362,-3.7412,-3.7236,-3.7312,-3.7437,-3.7437,-3.7864,-3.8266,-3.8266,-3.8266,-3.8241,-3.814,-3.814,-3.7939,-3.7312,-3.7186,-3.6835,-3.5683,-3.5107,-3.4605,-3.4098,0.0,-3.352,-3.4073,-3.4625,-3.5177,-3.5683,-3.6709,-3.691,-3.5934,-3.6784,-3.7111,-3.6681,-3.7588,-3.7965,-3.7588,-3.8492,-3.922,-3.9697,-3.9697,-3.9747,-3.9823,-3.9747,-3.9772,-3.9948,-3.9848,-3.9823,-3.9823,-3.9823,-3.9772,-3.9697,-3.9697,-3.9697,-3.9697,-3.9697,-3.9697,-3.9747,-4.03,-4.0174,-3.9772,-5.2929,-5.2929,-5.2929,-5.2929,-5.2929,-5.2929,-5.2929,-5.2929,-5.2929,-5.2929,-5.2929,-5.2929,-5.2929,-5.2929,-5.2929,-5.2929,-5.2427,-5.1875,-5.1322,-5.0745,-4.9891,-4.8686,-4.8159,-4.7581,-4.6903,-4.4945,-4.3087,-4.1275,-4.0877,-4.0325,-3.9697,-3.9697,-3.9697,-3.9697,-3.9697,-3.9647,-3.9546,-3.9069,-3.8869,-3.8793,-3.8793,-3.8442,-3.804,-3.8442,-3.8015,-3.7236,-3.7713,-3.7513,-3.7136,-3.7688,-3.8191,-3.8567,-3.804,-3.8216,-3.8517,-3.8015,-3.8241,-3.8441,-3.7437,-3.7889,-3.8668,-3.8668,-3.9019,-3.9446,-3.9446,-3.9446,-3.9295,-3.8818,-3.8793,-3.8417,-3.7387,-3.7186,-3.6835,-3.5683,-3.5433,-3.5182,-3.4675,0.0,-3.4675,-3.5182,-3.578,-3.638,-3.6885,-3.7513,-3.7814,-3.7638,-3.7789,-3.7839,-3.7764,-3.8366,-3.8919,-3.9295,-3.9471,-3.9597,-3.9697,-3.9697,-3.9923,-4.0375,-3.9923,-4.0174,-4.1025,-4.0601,-4.04,-4.04,-4.04,-4.0124,-3.9697,-3.9697,-3.9697,-3.9697,-3.9697,-3.9697,-3.9747,-4.03,-4.0174,-3.9772,-5.2929,-5.2929,-5.2929,-5.2929,-5.2929,-5.2929,-5.2929,-5.2929,-5.2929,-5.2929,-5.2929,-5.2929,-5.2929,-5.2929,-5.2929,-5.2929,-5.2703,-5.2176,-5.1348,-5.0745,-4.9791,-4.836,-4.8058,-4.723,-4.5739,-4.4192,-4.2836,-4.1781,-4.1229,-4.0676,-4.0124,-3.9848,-3.9697,-3.9697,-3.9697,-3.9697,-3.9672,-3.9421,-3.932,-3.932,-3.932,-3.9145,-3.8919,-3.8868,-3.8542,-3.8115,-3.8391,-3.8115,-3.7713,-3.8291,-3.8642,-3.8818,-3.8567,-3.8668,-3.8869,-3.8542,-3.8668,-3.8818,-3.8241,-3.8693,-3.9245,-3.8994,-3.927,-3.9697,-3.9697,-3.9697,-3.9622,-3.9371,-3.932,-3.9069,-3.8241,-3.7839,-3.7362,-3.6558,-3.5884,0.0,-3.5157,-3.5132,-3.5332,-3.5909,-3.6734,-3.7462,-3.804,-3.8592,-3.8793,-3.8492,-3.8467,-3.8467,-3.8467,-3.8994,-3.9572,-4.0124,-4.0425,-4.0576,-4.0576,-4.0576,-4.0701,-4.0953,-4.0701,-4.0852,-4.1275,-4.1025,-4.0899,-4.0899,-4.0899,-4.0651,-4.0149,-4.0149,-3.9973,-3.9697,-3.9697,-3.9697,-3.9747,-4.03,-4.035,-4.0224,-5.2929,-5.2929,-5.2929,-5.2929,-5.2929,-5.2929,-5.2929,-5.2929,-5.2929,-5.2929,-5.2929,-5.2929,-5.2929,-5.2929,-5.2929,-5.2929,-5.2804,-5.2327,-5.1348,-5.0619,-4.954,-4.7983,-4.7556,-4.6476,-4.4669,-4.3539,-4.2766,-4.2213,-4.148,-4.0874,-4.0501,-3.9948,-3.9697,-3.9697,-3.9697,-3.9697,-3.9697,-3.9697,-3.9697,-3.9697,-3.9697,-3.9697,-3.9647,-3.922,-3.8994,-3.8944,-3.9019,-3.8693,-3.8291,-3.8868,-3.912,-3.912,-3.912,-3.912,-3.912,-3.912,-3.912,-3.9044,-3.8944,-3.927,-3.9597,-3.917,-3.9371,-3.9697,-3.9697,-3.9697,-3.9697,-3.9697,-3.9697,-3.9521,-3.902,-3.8517,-3.799,-3.7287,0.0,-3.5884,-3.5884,-3.5884,-3.6182,-3.691,-3.7713,-3.8442,-3.9019,-3.9446,-3.9521,-3.9094,-3.912,-3.912,-3.9245,-3.9647,-4.0199,-4.0877,-4.1178,-4.1225,-4.11,-4.1225,-4.1351,-4.153,-4.1351,-4.1426,-4.1652,-4.158,-4.153,-4.153,-4.153,-4.1229,-4.0701,-4.0701,-4.045,-4.0074,-4.0074,-4.0074,-4.0149,-4.0701,-4.0827,-4.0724,-5.2929,-5.2929,-5.2929,-5.2929,-5.2929,-5.2929,-5.2929,-5.2929,-5.2929,-5.2929,-5.2929,-5.2929,-5.2929,-5.2929,-5.2929,-5.2929,-5.2452,-5.1925,-5.1322,-5.0268,-4.9138,-4.7958,-4.6476,-4.5347,-4.4644,-4.3539,-4.2766,-4.2213,-4.1103,-4.0551,-4.0501,-3.9948,-3.9697,-3.9697,-3.9697,-3.9697,-3.9697,-3.9697,-3.9697,-3.9697,-3.9697,-3.9697,-3.9697,-3.9647,-3.932,-3.8994,-3.9446,-3.927,-3.8944,-3.9446,-3.9647,-3.9647,-3.9647,-3.9647,-3.9647,-3.9647,-3.9647,-3.9521,-3.9019,-3.927,-3.9697,-3.9647,-3.9672,-3.9697,-3.9697,-3.9697,-3.9697,-3.9697,-3.9697,-3.9521,-3.902,-3.8894,-3.8492,-3.7362,0.0,0.0,-3.7061,-3.7061,-3.7462,-3.8617,-3.8818,-3.9019,-3.9572,-3.9672,-3.9672,-3.9647,-3.9647,-3.9848,-4.0375,-4.0425,-4.0927,-4.2062,-4.158,-4.105,-4.0576,-4.1025,-4.1605,-4.2137,-4.158,-4.1882,-4.2836,-4.2389,-4.2137,-4.2137,-4.2137,-4.1781,-4.1225,-4.1225,-4.12,-4.1175,-4.1175,-4.1175,-4.1225,-4.1831,-4.1706,-4.13,-5.2929,-5.2929,-5.2929,-5.2929,-5.2929,-5.2929,-5.2929,-5.2929,-5.2929,-5.2929,-5.2929,-5.2929,-5.2929,-5.2929,-5.2929,-5.2929,-5.2427,-5.1875,-5.1322,-5.0218,-4.8937,-4.7481,-4.5849,-4.4844,-4.4618,-4.3212,-4.2414,-4.2213,-4.1404,-4.0852,-4.0501,-4.03,-4.0023,-3.9697,-3.9697,-3.9697,-3.9697,-3.9697,-3.9697,-3.9697,-3.9697,-3.9697,-3.9697,-3.9697,-3.9572,-3.9396,-3.9622,-3.9572,-3.9421,-3.9622,-3.9697,-3.9697,-3.9697,-3.9697,-3.9697,-3.9697,-3.9697,-3.9647,-3.9446,-3.9546,-3.9697,-3.9697,-3.9697,-3.9697,-3.9697,-3.9697,-3.9697,-3.9697,-3.9697,-3.9622,-3.9421,-3.9094,-3.8894,-3.8768,0.0,-3.7814,-3.8165,-3.8216,-3.8391,-3.8869,-3.917,-3.9471,-3.9672,-3.9697,-3.9697,-3.9697,-4.0023,-4.03,-4.0501,-4.1153,-4.1785,-4.2187,-4.2283,-4.2258,-4.2032,-4.2258,-4.2459,-4.266,-4.2459,-4.2585,-4.2961,-4.276,-4.2715,-4.2715,-4.2715,-4.2414,-4.1856,-4.1856,-4.1656,-4.1275,-4.1275,-4.1275,-4.1351,-4.1957,-4.2062,-4.1932,-5.2929,-5.2929,-5.2929,-5.2929,-5.2929,-5.2929,-5.2929,-5.2929,-5.2929,-5.2929,-5.2929,-5.2929,-5.2929,-5.2929,-5.2929,-5.2929,-5.2427,-5.1875,-5.1322,-4.9891,-4.8485,-4.7143,-4.5522,-4.4618,-4.4618,-4.3162,-4.2389,-4.2213,-4.1605,-4.1,-4.0526,-4.035,-4.0049,-3.9697,-3.9697,-3.9697,-3.9697,-3.9697,-3.9697,-3.9697,-3.9697,-3.9697,-3.9697,-3.9697,-3.9697,-3.9697,-3.9697,-3.9697,-3.9697,-3.9697,-3.9697,-3.9697,-3.9697,-3.9697,-3.9697,-3.9697,-3.9697,-3.9697,-3.9697,-3.9697,-3.9697,-3.9697,-3.9697,-3.9697,-3.9697,-3.9697,-3.9697,-3.9697,-3.9697,-3.9697,-3.9697,-3.9371,-3.9195,-3.9396,-3.8793,-3.8417,-3.8818,-3.8919,-3.8944,-3.912,-3.9622,-3.9948,-3.9948,-4.0099,-4.0199,-4.0199,-4.0551,-4.0852,-4.1028,-4.181,-4.2288,-4.2464,-4.2665,-4.2811,-4.2986,-4.2986,-4.2986,-4.2986,-4.2986,-4.2986,-4.2986,-4.2986,-4.2986,-4.2986,-4.2986,-4.276,-4.2464,-4.2464,-4.2183,-4.1856,-4.1856,-4.1856,-4.1907,-4.2283,-4.2464,-4.2514,-5.2929,-5.2929,-5.2929,-5.2929,-5.2929,-5.2929,-5.2929,-5.2929,-5.2929,-5.2929,-5.2929,-5.2929,-5.2929,-5.2929,-5.2929,-5.2929,-5.2427,-5.185,-5.1297,-4.9163,-4.7682,-4.7093,-4.5522,-4.4618,-4.4618,-4.3539,-4.2766,-4.2213,-4.1605,-4.1,-4.0501,-3.9948,-3.9697,-3.9697,-3.9697,-3.9697,-3.9697,-3.9697,-3.9697,-3.9697,-3.9697,-3.9697,-3.9697,-3.9697,-3.9697,-3.9697,-3.9697,-3.9697,-3.9697,-3.9697,-3.9697,-3.9697,-3.9697,-3.9697,-3.9697,-3.9697,-3.9697,-3.9697,-3.9697,-3.9697,-3.9697,-3.9697,-3.9697,-3.9697,-3.9697,-3.9697,-3.9697,-3.9697,-3.9697,-3.9697,-3.9697,-3.9697,-3.9521,-3.902,-3.8919,-3.8919,-3.8919,-3.8894,-3.9094,-3.9647,-4.0199,-4.0526,-4.0526,-4.0974,-4.1275,-4.1275,-4.1275,-4.158,-4.2187,-4.2213,-4.2464,-4.2961,-4.2489,-4.2489,-4.2961,-4.2986,-4.2986,-4.2986,-4.2986,-4.2986,-4.2986,-4.2986,-4.2986,-4.2986,-4.2986,-4.2986,-4.2986,-4.2986,-4.2986,-4.2986,-4.2986,-4.2986,-4.2986,-4.2986,-4.2986,-4.2986,-5.2929,-5.2929,-5.2929,-5.2929,-5.2929,-5.2929,-5.2929,-5.2929,-5.2929,-5.2929,-5.2929,-5.2929,-5.2929,-5.2929,-5.2929,-5.2929,-5.2076,-5.0946,-4.9615,-4.851,-4.7682,-4.7093,-4.5522,-4.4618,-4.4618,-4.3162,-4.2133,-4.158,-4.1376,-4.0799,-3.9948,-4.0174,-4.0074,-3.9697,-3.9697,-3.9697,-3.9697,-3.9697,-3.9697,-3.9697,-3.9697,-3.9697,-3.9697,-3.9697,-3.9697,-3.9697,-3.9697,-3.9697,-3.9697,-3.9697,-3.9697,-3.9697,-3.9697,-3.9697,-3.9697,-3.9697,-3.9697,-3.9772,-4.0174,-4.0275,-4.0174,-3.9798,-3.9973,-4.0174,-3.9798,-4.03,-4.0752,-4.035,-4.0576,-4.0852,-4.0852,-4.0526,-4.0224,-4.0049,-3.9697,-3.9597,-3.9973,-4.0023,-4.0224,-4.0777,-4.0949,-4.105,-4.105,-4.12,-4.1275,-4.1275,-4.1681,-4.2158,-4.271,-4.2791,-4.2811,-4.2961,-4.2811,-4.2811,-4.2986,-4.2986,-4.2986,-4.2986,-4.2986,-4.2986,-4.2986,-4.2986,-4.2986,-4.2986,-4.2986,-4.2986,-4.2986,-4.2986,-4.2986,-4.2986,-4.2986,-4.2986,-4.2986,-4.2986,-4.2986,-4.2986,-5.2929,-5.2929,-5.2929,-5.2929,-5.2929,-5.2929,-5.2929,-5.2929,-5.2929,-5.2929,-5.2929,-5.2929,-5.2929,-5.2929,-5.2929,-5.2929,-5.1925,-5.0745,-4.9515,-4.8485,-4.7782,-4.7456,-4.5849,-4.4844,-4.4644,-4.3438,-4.2434,-4.1656,-4.1656,-4.1204,-4.035,-4.0676,-4.0551,-4.0023,-4.0023,-3.9898,-3.9697,-3.9697,-3.9697,-3.9697,-3.9697,-3.9697,-3.9697,-3.9697,-3.9697,-3.9697,-3.9697,-3.9697,-3.9697,-3.9697,-3.9697,-3.9697,-3.9697,-3.9697,-3.9747,-3.9948,-4.0023,-4.0149,-4.0701,-4.0852,-4.0752,-4.0425,-4.0601,-4.0701,-4.0149,-4.0701,-4.12,-4.0849,-4.105,-4.1275,-4.1275,-4.1025,-4.0852,-4.0852,-4.0551,-4.045,-4.0802,-4.0852,-4.0924,-4.125,-4.153,-4.1656,-4.1656,-4.1856,-4.1982,-4.1982,-4.2283,-4.269,-4.2961,-4.3187,-4.3212,-4.2986,-4.3187,-4.3187,-4.2986,-4.3187,-4.3187,-4.2986,-4.2986,-4.3087,-4.3313,-4.3313,-4.3313,-4.3313,-4.3313,-4.3187,-4.2986,-4.2986,-4.2986,-4.2986,-4.2986,-4.2986,-4.2986,-4.2986,-4.2986,-4.2986,-5.2929,-5.2929,-5.2929,-5.2929,-5.2929,-5.2929,-5.2929,-5.2929,-5.2929,-5.2929,-5.2929,-5.2929,-5.2929,-5.2929,-5.2904,-5.2854,-5.185,-5.0971,-5.0368,-4.8862,-4.7958,-4.7908,-4.6451,-4.5347,-4.4719,-4.4116,-4.3288,-4.2288,-4.2238,-4.1882,-4.1275,-4.1275,-4.1025,-4.0601,-4.0601,-4.0275,-3.9772,-3.9772,-3.9747,-3.9697,-3.9697,-3.9697,-3.9697,-3.9697,-3.9697,-3.9697,-3.9697,-3.9697,-3.9697,-3.9747,-3.9772,-3.9772,-3.9823,-3.9848,-3.9948,-4.045,-4.0601,-4.0701,-4.12,-4.1351,-4.1376,-4.1426,-4.1426,-4.1275,-4.0727,-4.1053,-4.1426,-4.1376,-4.1401,-4.1426,-4.1426,-4.1401,-4.1351,-4.1351,-4.1326,-4.13,-4.1351,-4.1351,-4.1376,-4.1426,-4.1932,-4.2288,-4.2288,-4.274,-4.2986,-4.2986,-4.3011,-4.3062,-4.3062,-4.3589,-4.3639,-4.3137,-4.3614,-4.3639,-4.3137,-4.3614,-4.3564,-4.2986,-4.3087,-4.3363,-4.379,-4.384,-4.384,-4.379,-4.379,-4.3489,-4.2986,-4.2986,-4.2986,-4.2986,-4.3037,-4.3011,-4.2986,-4.3087,-4.3062,-4.2986,-5.2854,-5.2929,-5.2929,-5.2929,-5.2929,-5.2929,-5.2929,-5.2929,-5.2929,-5.2929,-5.2929,-5.2929,-5.2929,-5.2929,-5.2754,-5.2327,-5.1247,-5.0368,-4.9816,-4.9038,-4.8385,-4.7933,-4.7179,-4.6326,-4.5321,-4.4317,-4.3463,-4.2866,-4.2414,-4.1882,-4.1275,-4.1275,-4.1225,-4.11,-4.11,-4.0852,-4.035,-4.035,-4.0099,-3.9697,-3.9697,-3.9697,-3.9697,-3.9697,-3.9697,-3.9697,-3.9697,-3.9697,-3.9747,-4.0199,-4.035,-4.04,-4.0852,-4.0924,-4.1003,-4.1075,-4.11,-4.1279,-4.1831,-4.1982,-4.2082,-4.2509,-4.2635,-4.2359,-4.1379,-4.1932,-4.2509,-4.2057,-4.2308,-4.2635,-4.2635,-4.2258,-4.1982,-4.1982,-4.163,-4.1505,-4.1907,-4.1982,-4.2133,-4.2585,-4.2735,-4.2866,-4.2866,-4.2911,-4.2986,-4.2986,-4.3388,-4.3614,-4.3614,-4.4141,-4.4392,-4.4267,-4.4392,-4.4392,-4.4267,-4.4392,-4.394,-4.2986,-4.384,-4.4091,-4.3815,-4.4242,-4.4217,-4.379,-4.379,-4.3489,-4.2986,-4.2986,-4.2986,-4.3011,-4.3463,-4.3363,-4.3087,-4.394,-4.3544,-4.2644,-5.2427,-5.2528,-5.2628,-5.2879,-5.2929,-5.2929,-5.2929,-5.2929,-5.2929,-5.2929,-5.2929,-5.2929,-5.2929,-5.2929,-5.2603,-5.1774,-5.1172,-5.0469,-4.964,-4.9088,-4.8636,-4.8335,-4.7556,-4.6853,-4.6276,-4.5171,-4.4192,-4.3363,-4.2811,-4.2409,-4.2133,-4.2133,-4.1982,-4.1731,-4.1731,-4.1279,-4.0526,-4.0526,-4.0199,-3.9697,-3.9697,-3.9697,-3.9697,-3.9697,-3.9848,-4.0099,-4.0099,-4.0249,-4.0526,-4.0802,-4.0849,-4.0899,-4.12,-4.1275,-4.1351,-4.1656,-4.1731,-4.1856,-4.2464,-4.2615,-4.274,-4.3237,-4.3363,-4.3162,-4.2308,-4.276,-4.3288,-4.3011,-4.3388,-4.3765,-4.3765,-4.3313,-4.3037,-4.3288,-4.2886,-4.261,-4.2911,-4.2936,-4.2961,-4.2986,-4.2986,-4.3087,-4.3338,-4.3614,-4.3765,-4.3765,-4.4041,-4.4192,-4.4192,-4.4719,-4.492,-4.4644,-4.4895,-4.4895,-4.4618,-4.4895,-4.4593,-4.3765,-4.4342,-4.4618,-4.4618,-4.4895,-4.4869,-4.4593,-4.4593,-4.4292,-4.3765,-4.3765,-4.3765,-4.379,-4.4091,-4.4016,-4.384,-4.4418,-4.3861,-4.2878,-5.2126,-5.2251,-5.2402,-5.2854,-5.2929,-5.2929,-5.2929,-5.2929,-5.2929,-5.2929,-5.2929,-5.2929,-5.2929,-5.2754,-5.2277,-5.1373,-5.1096,-5.0594,-4.9665,-4.9163,-4.8837,-4.8636,-4.7757,-4.7179,-4.7004,-4.5999,-4.502,-4.4091,-4.3438,-4.3112,-4.3112,-4.3011,-4.2791,-4.2363,-4.2363,-4.1731,-4.0802,-4.0701,-4.035,-3.9823,-3.9747,-3.9697,-3.9697,-3.9697,-3.9973,-4.04,-4.0475,-4.0824,-4.13,-4.1401,-4.148,-4.1505,-4.1526,-4.1626,-4.1856,-4.2308,-4.2564,-4.274,-4.3137,-4.3263,-4.3388,-4.394,-4.4016,-4.384,-4.3489,-4.3614,-4.384,-4.3915,-4.4242,-4.4518,-4.4593,-4.4242,-4.4091,-4.4543,-4.4242,-4.394,-4.394,-4.394,-4.3765,-4.3313,-4.3263,-4.3438,-4.389,-4.4342,-4.4618,-4.4618,-4.4794,-4.4869,-4.4769,-4.5397,-4.5497,-4.492,-4.5372,-4.5397,-4.492,-4.5397,-4.5397,-4.492,-4.492,-4.5121,-4.5497,-4.5573,-4.5573,-4.5497,-4.5497,-4.5171,-4.4618,-4.4618,-4.4618,-4.4644,-4.4744,-4.4719,-4.456,-4.4402,-4.397,-4.3441,-5.2628,-5.2804,-5.2829,-5.2904,-5.2929,-5.2929,-5.2929,-5.2929,-5.2929,-5.2929,-5.2929,-5.2929,-5.2929,-5.2076,-5.1448,-5.1297,-5.0393,-4.9766,-4.9615,-4.9515,-4.9038,-4.8058,-4.7883,-4.738,-4.6451,-4.5799,-4.5422,-4.5271,-4.4217,-4.3689,-4.3689,-4.3212,-4.2936,-4.2861,-4.2861,-4.2564,-4.1961,-4.143,-4.0849,-4.035,-3.9898,-3.9697,-3.9697,-3.9697,-3.9747,-3.9873,-4.035,-4.0824,-4.1351,-4.1882,-4.2112,-4.2187,-4.261,-4.3087,-4.3489,-4.3564,-4.3915,-4.4292,-4.4367,-4.4392,-4.4543,-4.5121,-4.4869,-4.4618,-4.5045,-4.4443,-4.394,-4.4418,-4.4192,-4.4066,-4.4543,-4.4568,-4.4543,-4.4618,-4.4568,-4.4518,-4.4518,-4.4518,-4.4493,-4.4418,-4.4392,-4.4443,-4.4493,-4.4593,-4.4618,-4.4618,-4.5522,-4.5874,-4.5397,-4.6351,-4.6652,-4.61,-4.615,-4.615,-4.6075,-4.615,-4.615,-4.6075,-4.6075,-4.5874,-4.5497,-4.5974,-4.5949,-4.5497,-4.5497,-4.5171,-4.4618,-4.4618,-4.4618,-4.4669,-4.5171,-4.507,-4.4452,-4.3482,-4.3653,-4.4175,-5.2251,-5.2477,-5.2578,-5.2879,-5.2929,-5.2929,-5.2929,-5.2929,-5.2929,-5.2929,-5.2929,-5.2929,-5.2929,-5.2503,-5.195,-5.1348,-5.082,-5.0268,-4.964,-4.959,-4.9364,-4.8862,-4.8234,-4.7682,-4.7205,-4.6376,-4.5949,-4.5949,-4.4819,-4.4091,-4.379,-4.3564,-4.3263,-4.2986,-4.2986,-4.2715,-4.2187,-4.1907,-4.148,-4.0953,-4.0701,-4.0601,-4.0601,-4.0601,-4.0802,-4.1207,-4.1681,-4.2057,-4.2283,-4.2534,-4.2866,-4.3112,-4.3363,-4.3815,-4.4267,-4.4267,-4.4443,-4.4618,-4.4618,-4.4618,-4.4769,-4.5347,-4.5296,-4.5246,-4.5824,-4.5321,-4.4819,-4.5045,-4.5146,-4.5271,-4.5522,-4.5321,-4.5196,-4.5522,-4.5296,-4.5095,-4.5095,-4.5095,-4.4995,-4.4669,-4.492,-4.5221,-4.5547,-4.5849,-4.615,-4.6426,-4.6652,-4.6652,-4.6426,-4.6577,-4.6552,-4.6326,-4.6301,-4.6301,-4.6301,-4.6301,-4.6301,-4.6301,-4.6301,-4.6175,-4.5949,-4.62,-4.6175,-4.5949,-4.5949,-4.5799,-4.5573,-4.5573,-4.5573,-4.5598,-4.5849,-4.5799,-4.5379,-4.4215,-4.388,-4.3944]},{"header":{"parameterUnit":"m.s-1","parameterCategory":1,"la1":30.6,"la2":28.766,"lo1":-90.7593,"lo2":-88.6598,"dy":0.0162,"dx":0.0183,"nx":116,"ny":114,"refTime":"2023-04-17T12:00:00:Z","depth":0,"parameterNumber":3,"parameterNumberName":"V-component_of_WINDS"},"data":[0.0,0.0,0.0,0.0,0.0,0.0,0.0,0.0,0.0,0.0,0.0,0.0,0.0,0.0,0.0,0.0,0.0,0.0,0.0,0.0,0.0,0.0,0.0,0.0,0.0,0.0,0.0,0.0,0.0,0.0,0.0,0.0,0.0,0.0,0.0,0.0,0.0,0.0,0.0,0.0,0.0,0.0,0.0,0.0,0.0,0.0,0.0,0.0,0.0,0.0,0.0,0.0,0.0,0.0,0.0,0.0,0.0,0.0,0.0,0.0,0.0,0.0,0.0,0.0,0.0,0.0,0.0,0.0,0.0,0.0,0.0,0.0,0.0,0.0,0.0,0.0,0.0,0.0,0.0,0.0,0.0,0.0,0.0,0.0,0.0,0.0,0.0,0.0,0.0,0.0,0.0,0.0,0.0,0.0,0.0,0.0,0.0,0.0,0.0,0.0,0.0,0.0,0.0,0.0,0.0,0.0,0.0,0.0,0.0,0.0,0.0,0.0,0.0,0.0,0.0,0.0,0.0,0.0,0.0,0.0,0.0,0.0,0.0,0.0,0.0,0.0,0.0,0.0,0.0,0.0,0.0,0.0,0.0,0.0,0.0,0.0,0.0,0.0,0.0,0.0,0.0,0.0,0.0,0.0,0.0,0.0,0.0,0.0,0.0,0.0,0.0,0.0,0.0,0.0,0.0,0.0,0.0,0.0,0.0,0.0,0.0,0.0,0.0,0.0,0.0,0.0,0.0,0.0,0.0,0.0,0.0,0.0,0.0,0.0,0.0,0.0,0.0,0.0,0.0,0.0,0.0,0.0,0.0,0.0,0.0,0.0,0.0,0.0,0.0,0.0,0.0,0.0,0.0,0.0,0.0,0.0,0.0,0.0,0.0,0.0,0.0,0.0,0.0,0.0,0.0,0.0,0.0,0.0,0.0,0.0,0.0,0.0,0.0,0.0,0.0,0.0,0.0,0.0,0.0,0.0,0.0,0.0,0.0,0.0,0.0,0.0,0.0,0.0,0.0,0.0,0.0,0.0,0.0,0.0,0.0,0.0,0.0,0.0,0.0,0.0,0.0,0.0,0.0,0.0,0.0,0.0,0.0,0.0,0.0,0.0,0.0,0.0,0.0,0.0,0.0,0.0,0.0,0.0,0.0,0.0,0.0,0.0,0.0,0.0,0.0,0.0,0.0,0.0,0.0,0.0,0.0,0.0,0.0,0.0,0.0,0.0,0.0,0.0,0.0,0.0,0.0,0.0,0.0,0.0,0.0,0.0,0.0,0.0,0.0,0.0,0.0,0.0,0.0,0.0,0.0,0.0,0.0,0.0,0.0,0.0,0.0,0.0,0.0,0.0,0.0,0.0,0.0,0.0,0.0,0.0,0.0,0.0,0.0,0.0,0.0,0.0,0.0,0.0,0.0,0.0,0.0,0.0,0.0,0.0,0.0,0.0,0.0,0.0,0.0,0.0,0.0,0.0,0.0,0.0,0.0,0.0,0.0,0.0,0.0,0.0,0.0,0.0,0.0,0.0,0.0,0.0,0.0,0.0,0.0,0.0,0.0,0.0,0.0,0.0,0.0,0.0,0.0,0.0,0.0,0.0,0.0,0.0,0.0,0.0,0.0,0.0,0.0,0.0,0.0,0.0,0.0,0.0,0.0,0.0,0.0,0.0,0.0,0.0,0.0,0.0,0.0,0.0,0.0,0.0,0.0,0.0,0.0,0.0,0.0,0.0,0.0,0.0,0.0,0.0,0.0,0.0,0.0,0.0,0.0,0.0,0.0,0.0,0.0,0.0,0.0,0.0,0.0,0.0,0.0,0.0,0.0,0.0,0.0,0.0,0.0,0.0,0.0,0.0,0.0,0.0,0.0,0.0,0.0,0.0,0.0,0.0,0.0,0.0,0.0,0.0,0.0,0.0,0.0,0.0,0.0,0.0,0.0,0.0,0.0,0.0,0.0,0.0,0.0,0.0,0.0,0.0,0.0,0.0,0.0,0.0,0.0,0.0,0.0,0.0,0.0,0.0,0.0,0.0,0.0,0.0,0.0,0.0,0.0,0.0,0.0,0.0,0.0,0.0,0.0,0.0,0.0,0.0,0.0,0.0,0.0,0.0,0.0,0.0,0.0,0.0,0.0,0.0,0.0,0.0,0.0,0.0,0.0,0.0,0.0,0.0,0.0,0.0,0.0,0.0,0.0,0.0,0.0,0.0,0.0,0.0,0.0,0.0,0.0,0.0,0.0,0.0,0.0,0.0,0.0,0.0,0.0,0.0,0.0,0.0,0.0,0.0,0.0,0.0,0.0,0.0,0.0,0.0,0.0,0.0,0.0,0.0,0.0,0.0,0.0,0.0,0.0,0.0,0.0,0.0,0.0,0.0,0.0,0.0,0.0,0.0,0.0,0.0,0.0,0.0,0.0,0.0,0.0,0.0,0.0,0.0,0.0,0.0,0.0,0.0,0.0,0.0,0.0,0.0,0.0,0.0,0.0,0.0,0.0,0.0,0.0,0.0,0.0,0.0,0.0,0.0,0.0,0.0,0.0,0.0,0.0,0.0,0.0,0.0,0.0,0.0,0.0,0.0,0.0,0.0,0.0,0.0,0.0,0.0,0.0,0.0,0.0,0.0,0.0,0.0,0.0,0.0,0.0,0.0,0.0,0.0,0.0,0.0,0.0,0.0,0.0,0.0,0.0,0.0,0.0,0.0,0.0,0.0,0.0,0.0,0.0,0.0,0.0,0.0,0.0,0.0,0.0,0.0,0.0,0.0,0.0,0.0,0.0,0.0,0.0,0.0,0.0,0.0,0.0,0.0,0.0,0.0,0.0,0.0,0.0,0.0,0.0,0.0,0.0,0.0,0.0,0.0,0.0,0.0,0.0,0.0,0.0,0.0,0.0,0.0,0.0,0.0,0.0,0.0,0.0,0.0,0.0,0.0,0.0,0.0,0.0,0.0,0.0,0.0,0.0,0.0,0.0,0.0,0.0,0.0,0.0,0.0,0.0,0.0,0.0,0.0,0.0,0.0,0.0,0.0,0.0,0.0,0.0,0.0,0.0,0.0,0.0,0.0,0.0,0.0,0.0,0.0,0.0,0.0,0.0,0.0,0.0,0.0,0.0,0.0,0.0,0.0,0.0,0.0,0.0,0.0,0.0,0.0,0.0,0.0,0.0,0.0,0.0,0.0,0.0,0.0,0.0,0.0,0.0,0.0,0.0,0.0,0.0,0.0,0.0,0.0,0.0,0.0,0.0,0.0,0.0,0.0,0.0,0.0,0.0,0.0,0.0,0.0,0.0,0.0,0.0,0.0,0.0,0.0,0.0,0.0,0.0,0.0,0.0,0.0,0.0,0.0,0.0,0.0,0.0,0.0,0.0,0.0,0.0,0.0,0.0,0.0,0.0,0.0,0.0,0.0,0.0,0.0,0.0,0.0,0.0,0.0,0.0,0.0,0.0,0.0,0.0,0.0,0.0,0.0,0.0,0.0,0.0,0.0,0.0,0.0,0.0,0.0,0.0,0.0,0.0,0.0,0.0,0.0,0.0,0.0,0.0,0.0,0.0,0.0,0.0,0.0,0.0,0.0,0.0,0.0,0.0,0.0,0.0,0.0,0.0,0.0,0.0,0.0,0.0,0.0,0.0,0.0,0.0,0.0,0.0,0.0,0.0,0.0,0.0,0.0,0.0,0.0,0.0,0.0,0.0,0.0,0.0,0.0,0.0,0.0,0.0,0.0,0.0,0.0,0.0,0.0,0.0,0.0,0.0,0.0,0.0,0.0,0.0,0.0,0.0,0.0,0.0,0.0,0.0,0.0,0.0,0.0,0.0,0.0,0.0,0.0,0.0,0.0,0.0,0.0,0.0,0.0,0.0,0.0,0.0,0.0,0.0,0.0,0.0,0.0,0.0,0.0,0.0,0.0,0.0,0.0,0.0,0.0,0.0,0.0,0.0,0.0,0.0,0.0,0.0,0.0,0.0,0.0,0.0,0.0,0.0,0.0,0.0,0.0,0.0,0.0,0.0,0.0,0.0,0.0,0.0,0.0,0.0,0.0,0.0,0.0,0.0,0.0,0.0,0.0,0.0,0.0,0.0,0.0,0.0,0.0,0.0,0.0,0.0,0.0,0.0,0.0,0.0,0.0,0.0,0.0,0.0,0.0,0.0,0.0,0.0,0.0,0.0,0.0,0.0,0.0,0.0,0.0,0.0,0.0,0.0,0.0,0.0,0.0,0.0,0.0,0.0,0.0,0.0,0.0,0.0,0.0,0.0,0.0,0.0,0.0,0.0,0.0,0.0,0.0,0.0,0.0,0.0,0.0,0.0,0.0,0.0,0.0,0.0,0.0,0.0,0.0,0.0,0.0,0.0,0.0,0.0,0.0,0.0,0.0,0.0,0.0,0.0,0.0,0.0,0.0,0.0,0.0,0.0,0.0,0.0,0.0,0.0,0.0,0.0,0.0,0.0,0.0,0.0,0.0,0.0,0.0,0.0,0.0,0.0,0.0,0.0,0.0,0.0,0.0,0.0,0.0,0.0,0.0,0.0,0.0,0.0,0.0,0.0,0.0,0.0,0.0,0.0,0.0,0.0,0.0,0.0,0.0,0.0,0.0,0.0,0.0,0.0,0.0,0.0,0.0,0.0,0.0,0.0,0.0,0.0,0.0,0.0,0.0,0.0,0.0,0.0,0.0,0.0,0.0,0.0,0.0,0.0,0.0,0.0,0.0,0.0,0.0,0.0,0.0,0.0,0.0,0.0,0.0,0.0,0.0,0.0,0.0,0.0,0.0,0.0,0.0,0.0,0.0,0.0,0.0,0.0,0.0,0.0,0.0,0.0,0.0,0.0,0.0,0.0,0.0,0.0,0.0,0.0,0.0,0.0,0.0,0.0,0.0,0.0,0.0,0.0,0.0,0.0,0.0,0.0,0.0,0.0,0.0,0.0,0.0,0.0,0.0,0.0,0.0,0.0,0.0,0.0,0.0,0.0,0.0,0.0,0.0,0.0,0.0,0.0,0.0,0.0,0.0,0.0,0.0,0.0,0.0,0.0,0.0,0.0,0.0,0.0,0.0,0.0,0.0,0.0,0.0,0.0,0.0,0.0,0.0,0.0,0.0,0.0,0.0,0.0,0.0,0.0,0.0,0.0,0.0,0.0,0.0,0.0,0.0,0.0,0.0,0.0,0.0,0.0,0.0,0.0,0.0,0.0,0.0,0.0,0.0,0.0,0.0,0.0,0.0,0.0,0.0,0.0,0.0,0.0,0.0,0.0,0.0,0.0,0.0,0.0,0.0,0.0,0.0,0.0,0.0,0.0,0.0,0.0,0.0,0.0,0.0,0.0,0.0,0.0,0.0,0.0,0.0,0.0,0.0,0.0,0.0,0.0,0.0,0.0,0.0,0.0,0.0,0.0,0.0,0.0,0.0,0.0,0.0,0.0,0.0,0.0,0.0,0.0,0.0,0.0,0.0,0.0,0.0,0.0,0.0,0.0,0.0,0.0,0.0,0.0,0.0,0.0,0.0,0.0,0.0,0.0,0.0,0.0,0.0,0.0,0.0,0.0,0.0,0.0,0.0,0.0,0.0,0.0,0.0,0.0,0.0,0.0,0.0,0.0,0.0,0.0,0.0,0.0,0.0,0.0,0.0,0.0,0.0,0.0,0.0,0.0,0.0,0.0,0.0,0.0,0.0,0.0,0.0,0.0,0.0,0.0,0.0,0.0,0.0,0.0,0.0,0.0,0.0,0.0,0.0,0.0,0.0,0.0,0.0,0.0,0.0,0.0,0.0,0.0,0.0,0.0,0.0,0.0,0.0,0.0,0.0,0.0,0.0,0.0,0.0,0.0,0.0,0.0,0.0,0.0,0.0,0.0,0.0,0.0,0.0,0.0,0.0,0.0,0.0,0.0,0.0,0.0,0.0,0.0,0.0,0.0,0.0,0.0,0.0,0.0,0.0,0.0,0.0,0.0,0.0,0.0,0.0,0.0,0.0,0.0,0.0,0.0,0.0,0.0,0.0,0.0,0.0,0.0,0.0,0.0,0.0,0.0,0.0,0.0,0.0,0.0,0.0,0.0,0.0,0.0,0.0,0.0,0.0,0.0,0.0,0.0,0.0,2.4817,2.4343,0.0,0.0,0.0,0.0,0.0,0.0,0.0,0.0,0.0,0.0,0.0,0.0,0.0,0.0,0.0,0.0,0.0,0.0,0.0,0.0,0.0,0.0,0.0,0.0,0.0,0.0,0.0,0.0,0.0,0.0,0.0,0.0,0.0,0.0,0.0,0.0,0.0,0.0,2.6581,2.74,2.9029,2.9609,2.9811,2.9592,0.0,0.0,0.0,0.0,0.0,0.0,0.0,0.0,0.0,0.0,0.0,0.0,0.0,0.0,0.0,0.0,0.0,0.0,0.0,0.0,0.0,0.0,0.0,0.0,0.0,0.0,0.0,0.0,0.0,0.0,0.0,0.0,0.0,0.0,0.0,0.0,0.0,0.0,0.0,0.0,0.0,0.0,0.0,0.0,0.0,0.0,0.0,0.0,0.0,0.0,0.0,0.0,0.0,0.0,0.0,0.0,0.0,0.0,0.0,0.0,0.0,0.0,0.0,0.0,0.0,0.0,0.0,0.0,0.0,0.0,2.7741,2.6392,0.0,0.0,0.0,0.0,0.0,0.0,0.0,0.0,0.0,0.0,0.0,0.0,0.0,0.0,0.0,0.0,0.0,0.0,0.0,0.0,0.0,0.0,0.0,0.0,2.4308,2.4383,2.4826,2.5334,0.0,0.0,0.0,0.0,0.0,0.0,0.0,0.0,0.0,2.8193,2.8611,2.9791,3.1582,3.1683,3.1247,3.0276,2.9587,0.0,0.0,0.0,0.0,0.0,0.0,0.0,0.0,0.0,0.0,0.0,0.0,0.0,0.0,0.0,0.0,0.0,0.0,0.0,0.0,0.0,0.0,0.0,0.0,0.0,0.0,0.0,0.0,0.0,0.0,0.0,0.0,0.0,0.0,0.0,0.0,0.0,0.0,0.0,0.0,0.0,0.0,0.0,0.0,0.0,0.0,0.0,0.0,0.0,0.0,0.0,0.0,0.0,0.0,0.0,0.0,0.0,0.0,0.0,0.0,0.0,0.0,0.0,2.9767,3.0884,3.0885,3.2917,3.407,3.4283,3.1186,2.9192,2.8154,2.8062,0.0,0.0,0.0,0.0,0.0,0.0,0.0,0.0,0.0,0.0,0.0,0.0,0.0,0.0,0.0,0.0,0.0,0.0,0.0,0.0,0.0,2.4947,2.5066,2.5532,2.5651,2.5708,0.0,0.0,0.0,0.0,0.0,0.0,0.0,2.7157,2.7006,2.6179,2.8783,3.0712,3.1954,3.2925,3.3294,3.3108,3.2277,3.2836,3.4322,0.0,0.0,0.0,0.0,0.0,0.0,0.0,0.0,0.0,0.0,0.0,0.0,0.0,0.0,0.0,0.0,0.0,0.0,0.0,0.0,0.0,0.0,0.0,0.0,0.0,0.0,0.0,0.0,0.0,0.0,0.0,0.0,0.0,0.0,0.0,0.0,0.0,0.0,0.0,0.0,0.0,2.6226,2.5678,0.0,0.0,0.0,0.0,0.0,0.0,0.0,0.0,0.0,0.0,0.0,0.0,0.0,2.8499,2.9106,2.9854,3.0394,3.0827,3.2397,3.3014,3.296,3.4538,3.603,3.7402,3.6728,0.0,3.2256,3.0567,0.0,0.0,0.0,0.0,0.0,0.0,0.0,0.0,0.0,0.0,0.0,0.0,0.0,0.0,0.0,0.0,0.0,0.0,0.0,0.0,0.0,2.5824,2.6564,2.6894,2.8053,2.8354,2.7488,2.7914,0.0,0.0,0.0,2.7,2.6719,2.7236,2.7881,2.8726,3.1045,3.2951,3.4468,3.4862,3.5506,3.6309,3.5492,3.4597,3.3504,3.2496,0.0,0.0,0.0,0.0,0.0,0.0,0.0,0.0,0.0,0.0,0.0,0.0,0.0,0.0,0.0,0.0,0.0,0.0,0.0,0.0,0.0,0.0,0.0,0.0,0.0,0.0,0.0,0.0,0.0,0.0,0.0,0.0,0.0,0.0,0.0,0.0,0.0,0.0,0.0,2.6398,2.6422,2.5845,2.6046,2.5981,0.0,0.0,0.0,0.0,0.0,0.0,0.0,0.0,0.0,2.924,3.0252,3.1055,3.168,3.2288,3.2803,3.3344,3.509,3.587,3.5809,3.7277,3.8374,3.9039,3.8807,3.8118,3.6874,3.4262,3.2229,3.0702,0.0,0.0,0.0,0.0,2.9328,2.9983,0.0,0.0,0.0,0.0,0.0,0.0,0.0,0.0,0.0,0.0,0.0,0.0,2.6012,2.7571,2.8738,2.9235,3.0869,3.1217,2.9619,2.9767,0.0,0.0,0.0,2.7307,2.6896,2.8046,2.9735,3.2097,3.3979,3.5769,3.7417,3.7411,3.8033,3.9109,3.8813,3.7068,3.4277,3.3258,3.2905,3.2826,0.0,0.0,0.0,0.0,0.0,0.0,0.0,0.0,0.0,0.0,0.0,0.0,0.0,0.0,0.0,0.0,0.0,0.0,0.0,0.0,0.0,0.0,0.0,0.0,0.0,0.0,0.0,0.0,0.0,0.0,0.0,0.0,0.0,0.0,0.0,0.0,0.0,2.6698,2.7003,2.6156,2.7052,2.7118,0.0,0.0,0.0,0.0,0.0,0.0,2.9528,3.0658,3.1687,3.2641,3.3345,3.3972,3.4595,3.5102,3.5655,3.6207,3.7775,3.8523,3.8678,3.9675,4.0301,4.0529,4.0155,4.0219,4.0335,3.7491,3.5242,3.3455,3.2766,3.2318,3.2019,3.2198,3.2706,3.3365,0.0,0.0,0.0,0.0,0.0,0.0,0.0,0.0,0.0,0.0,0.0,2.6039,2.8813,3.0481,3.192,3.3198,3.3916,3.3578,3.178,3.0325,2.9194,2.8368,2.7811,2.749,2.7464,3.0179,3.2711,3.5077,3.7351,3.9024,4.0223,4.0775,4.1112,4.1185,4.2043,4.1706,4.0152,3.5647,3.5065,3.6709,3.2182,0.0,0.0,0.0,0.0,0.0,0.0,0.0,0.0,0.0,0.0,0.0,0.0,0.0,0.0,0.0,0.0,0.0,0.0,0.0,0.0,0.0,0.0,0.0,0.0,0.0,0.0,0.0,0.0,0.0,0.0,0.0,0.0,0.0,0.0,0.0,0.0,0.0,0.0,2.7429,2.9528,0.0,0.0,0.0,0.0,2.9578,3.1537,3.2993,3.3571,3.4605,3.5504,3.6128,3.7161,3.799,3.8617,3.912,3.9672,4.0224,4.0327,4.0629,4.1131,4.0919,4.1363,4.2224,4.1576,4.1474,4.1625,3.9518,3.7712,3.6207,3.5549,3.4532,3.3484,3.4083,3.4771,3.537,0.0,0.0,0.0,0.0,0.0,0.0,0.0,0.0,2.4514,2.5662,2.6627,2.8028,3.0137,3.3823,3.6266,3.6465,3.8312,3.8379,3.5837,3.3465,3.1772,3.102,2.9125,2.8961,3.0817,3.296,3.5391,3.8083,3.9991,4.1324,4.2108,4.2683,4.2971,4.2971,4.3703,4.3909,4.3488,3.98,3.8035,3.7346,3.3844,3.2287,0.0,0.0,0.0,0.0,0.0,0.0,0.0,0.0,0.0,0.0,0.0,0.0,0.0,0.0,0.0,0.0,0.0,0.0,0.0,0.0,0.0,0.0,0.0,0.0,0.0,0.0,0.0,0.0,0.0,0.0,0.0,0.0,0.0,0.0,0.0,0.0,0.0,3.1436,3.2717,0.0,3.1662,3.2089,3.2717,3.3401,3.4876,3.6282,3.7563,3.8668,3.9521,4.0126,4.0827,4.1128,4.1031,4.1232,4.1204,4.1,4.1,4.11,4.1275,4.1182,4.125,4.1441,4.1471,4.1421,4.1314,4.0976,4.0015,3.8589,3.7535,3.7216,3.7345,3.7584,3.8093,3.8661,0.0,0.0,0.0,0.0,0.0,0.0,0.0,0.0,2.4742,2.5691,2.7499,2.9819,3.2703,3.7249,4.0239,4.0575,4.1939,4.1352,3.8044,3.4848,3.257,3.1397,3.0024,3.0644,3.3509,3.6044,3.8658,4.135,4.3258,4.4382,4.4774,4.514,4.5218,4.5062,4.5637,4.5888,4.5848,4.3729,4.1497,3.9149,3.6305,3.4993,3.447,0.0,0.0,0.0,0.0,0.0,0.0,0.0,0.0,0.0,0.0,0.0,0.0,0.0,0.0,0.0,0.0,0.0,0.0,0.0,0.0,0.0,0.0,0.0,0.0,0.0,0.0,0.0,0.0,0.0,0.0,0.0,0.0,0.0,0.0,3.1619,3.3456,3.4826,3.6332,3.6709,3.5403,3.5956,3.6634,3.7138,3.8241,3.9521,4.1003,4.1781,4.2434,4.2961,4.3338,4.3263,4.2766,4.2766,4.2434,4.1882,4.1882,4.1882,4.1882,4.1706,4.1411,4.1069,4.1209,4.1119,4.0864,4.1194,4.1011,4.0435,3.9287,3.9267,3.9882,3.958,3.9959,4.0677,0.0,0.0,0.0,0.0,0.0,0.0,0.0,2.5047,2.5195,2.5792,2.7923,3.1352,3.6469,4.0516,4.3594,4.5411,4.4553,4.2188,3.8181,3.4273,3.1289,2.9476,3.0477,3.2463,3.5417,3.9364,4.2526,4.4826,4.7074,4.8172,4.8146,4.8172,4.7911,4.7357,4.7989,4.7937,4.7393,4.7185,4.5465,4.2552,3.9586,3.8841,3.9009,0.0,0.0,0.0,0.0,0.0,0.0,0.0,0.0,0.0,0.0,0.0,0.0,0.0,0.0,0.0,0.0,0.0,0.0,0.0,0.0,0.0,0.0,0.0,0.0,0.0,0.0,0.0,0.0,0.0,0.0,0.0,0.0,0.0,3.1914,3.5238,3.7602,3.7461,4.0327,4.1232,3.8492,4.0147,4.12,4.0727,4.1681,4.2816,4.3865,4.389,4.4141,4.4694,4.4694,4.4392,4.384,4.3815,4.3539,4.2986,4.2986,4.2986,4.2961,4.2489,4.1882,4.1304,4.1069,4.0771,4.0465,4.0151,4.0728,4.1714,4.0836,4.0716,4.0903,4.0052,4.0272,4.1197,0.0,0.0,0.0,0.0,0.0,0.0,0.0,2.5522,2.554,2.701,2.9472,3.2803,3.7261,4.1625,4.4434,4.4891,4.4042,4.2133,3.9034,3.4615,3.1827,3.113,3.262,3.5417,3.9573,4.1951,4.4095,4.6003,4.7466,4.7989,4.7571,4.7989,4.8329,4.8616,4.9191,4.9348,4.9199,4.9515,4.8681,4.6672,4.2161,4.0833,4.1024,0.0,0.0,0.0,0.0,0.0,0.0,0.0,0.0,0.0,0.0,0.0,0.0,0.0,0.0,0.0,0.0,0.0,0.0,0.0,0.0,0.0,0.0,0.0,0.0,0.0,0.0,0.0,0.0,0.0,0.0,0.0,3.4255,3.6013,3.606,3.7806,4.0053,4.2637,4.3557,4.3815,4.3463,4.3991,4.4443,4.4694,4.4995,4.5648,4.6728,4.605,4.5874,4.6426,4.605,4.5372,4.4418,4.4392,4.3915,4.2986,4.2986,4.2986,4.2961,4.2866,4.2343,4.1572,4.1686,4.1284,4.0491,4.0614,4.1284,4.2124,4.124,4.1057,4.1397,4.1766,4.2216,4.2703,0.0,0.0,0.0,0.0,0.0,0.0,0.0,2.615,2.6302,2.7932,3.1082,3.4769,3.8964,4.3146,4.5567,4.5458,4.376,4.1235,3.7881,3.388,3.2122,3.3221,3.5391,3.8397,4.2291,4.48,4.6656,4.7911,4.9061,4.9453,4.9139,4.9714,5.0054,5.0159,5.0734,5.0838,5.0638,5.0698,5.0564,5.0002,4.5732,4.4592,4.4801,3.9621,3.8851,4.0129,3.6454,3.6,3.6902,3.4719,0.0,0.0,0.0,0.0,0.0,0.0,0.0,0.0,0.0,0.0,0.0,0.0,0.0,0.0,0.0,0.0,0.0,0.0,0.0,0.0,0.0,0.0,0.0,0.0,3.7895,4.0593,4.1925,4.2322,4.3498,4.6323,4.6899,4.7004,4.6878,4.7079,4.7154,4.6979,4.6979,4.7154,4.7556,4.7004,4.6702,4.6778,4.6476,4.5874,4.4995,4.4744,4.4192,4.3313,4.3087,4.2986,4.2986,4.2986,4.2469,4.1544,4.1704,4.1281,4.0491,4.0542,4.1071,0.0,0.0,0.0,0.0,0.0,4.1909,4.2222,0.0,0.0,0.0,0.0,0.0,0.0,0.0,2.6762,2.7214,2.8622,3.2275,3.6315,4.045,4.3921,4.5912,4.5855,4.3004,3.9536,3.5575,3.2841,3.2698,3.5652,3.8553,4.1402,4.4199,4.7492,4.9401,4.9897,5.0969,5.1518,5.1518,5.2119,5.2119,5.1622,5.2302,5.2223,5.157,5.1152,5.1477,5.2063,4.9652,4.9036,4.896,4.4015,4.379,4.547,4.0285,3.8187,3.7783,3.6891,0.0,0.0,0.0,0.0,0.0,0.0,0.0,0.0,0.0,0.0,0.0,0.0,0.0,0.0,0.0,0.0,0.0,0.0,0.0,0.0,0.0,0.0,0.0,0.0,4.1744,4.5303,4.8214,4.7692,4.752,4.9002,4.9981,5.0117,4.9063,4.9389,4.9238,4.8184,4.8033,4.7832,4.7431,4.7168,0.0,0.0,0.0,4.605,4.5497,4.497,4.4418,4.379,4.3313,4.3037,4.2986,4.2986,4.2384,4.1329,4.1383,4.1071,4.0542,4.0287,4.0491,4.0818,4.0225,4.0799,4.1761,4.0602,4.0415,4.0844,0.0,0.0,0.0,0.0,0.0,0.0,0.0,2.7023,2.7336,2.921,3.1343,3.3938,3.725,3.947,4.0968,4.1753,3.9267,3.6674,3.4275,3.39,3.5234,3.8632,4.1507,4.4173,4.6604,4.8695,4.9793,4.9897,5.0603,5.0943,5.0969,5.1518,5.1701,5.1648,5.2746,5.2616,5.1622,5.2014,5.1747,5.1162,5.1489,5.0816,4.923,4.6072,4.4941,4.4837,4.2935,4.2744,4.2952,4.0062,3.9119,3.8637,3.5482,0.0,0.0,0.0,0.0,0.0,0.0,0.0,0.0,0.0,0.0,0.0,0.0,0.0,0.0,0.0,0.0,0.0,0.0,0.0,0.0,4.2604,4.5454,4.8256,5.1101,5.1306,5.1267,5.1572,5.1301,5.0845,5.0167,5.0193,4.9967,4.9314,4.8862,4.8761,4.9113,4.7857,4.728,4.7581,4.6753,4.605,4.5497,4.5372,4.4819,4.379,0.0,0.0,4.2986,4.2986,4.2494,4.1625,4.1864,4.1542,4.0846,4.0795,4.0795,4.0818,4.0225,4.0751,4.1721,4.1063,4.1048,4.1449,0.0,0.0,0.0,0.0,0.0,0.0,0.0,2.7331,2.7728,2.9358,3.1188,3.3165,3.5357,3.6671,3.7303,3.7151,3.4654,3.3274,3.3674,3.4421,3.7037,4.1951,4.4095,4.6264,4.8564,4.974,5.0185,4.9897,5.0185,5.0498,5.0812,5.1335,5.1753,5.2067,5.2668,5.2616,5.204,5.204,5.1727,5.124,5.183,5.1121,4.9651,4.8599,4.8348,4.8363,4.6376,4.5651,4.5298,4.2928,4.1522,4.0287,3.7505,3.5391,3.3494,0.0,0.0,0.0,0.0,0.0,0.0,0.0,0.0,0.0,0.0,0.0,0.0,0.0,0.0,3.5409,0.0,0.0,4.3482,4.6409,4.8781,5.0793,5.2485,5.2972,5.3017,5.2641,5.2506,5.1976,5.0921,5.0845,5.0494,4.9665,4.9088,4.8887,4.9163,4.8134,4.7531,4.7531,4.7004,4.6451,4.5899,4.5623,4.5255,4.485,4.4123,4.3778,4.3669,4.2922,4.2217,4.1518,4.1506,4.1234,4.0694,4.0846,4.0896,4.087,4.0585,4.072,4.1085,4.0792,4.0943,4.1294,0.0,0.0,0.0,0.0,0.0,0.0,0.0,2.7375,2.7705,2.9052,3.0702,3.2199,3.3416,3.4299,3.4301,3.3111,3.1259,3.1379,3.4233,3.5732,3.9175,4.5125,4.6402,4.7963,5.0028,5.042,5.0498,5.0211,5.0106,5.0368,5.0969,5.1622,5.2067,5.2328,5.2668,5.2642,5.2302,5.1936,5.1701,5.1596,5.1492,5.089,5.0123,5.05,5.1023,5.1292,4.9008,4.7163,4.56,4.4687,4.2605,4.0174,3.8815,3.7665,3.6123,3.2803,3.2228,0.0,0.0,0.0,0.0,0.0,0.0,0.0,0.0,0.0,3.3446,3.474,3.7175,3.9764,4.2087,4.4853,4.7464,4.9654,5.1447,5.2726,5.3253,5.3612,5.3572,5.2822,5.3096,5.2784,5.1439,5.1172,5.0695,4.9665,4.9188,4.8887,4.8786,4.8272,4.7794,4.7367,4.714,4.6864,4.6597,4.5984,4.575,4.5859,4.4616,4.42,4.4331,4.3118,4.2175,4.1518,4.1152,4.085,4.0669,4.0846,4.0946,4.0997,4.0946,4.0761,4.0592,4.0592,4.0632,4.0749,0.0,0.0,0.0,0.0,0.0,0.0,0.0,0.0,0.0,2.7645,2.8517,2.9328,3.008,3.1215,3.1634,3.0823,3.1944,3.4015,3.7127,3.9632,4.3013,4.7541,4.8435,4.9401,5.0655,5.0237,5.0446,5.1413,5.0917,5.0969,5.1544,5.2668,5.2668,5.1779,5.3321,5.3138,5.1727,5.2197,5.2093,5.1544,5.1073,5.0812,5.0629,5.0209,4.9462,4.8695,4.8915,4.6544,4.3415,4.3861,4.2367,4.0383,4.02,3.9703,3.8632,3.5678,0.0,3.2385,3.1052,3.034,3.0436,3.2581,3.2432,3.2829,0.0,0.0,3.8015,3.9677,4.1724,4.3675,4.5137,4.7741,5.0276,5.1862,5.2862,5.3504,5.3894,5.351,5.2919,5.2269,5.2515,5.2329,5.1414,5.082,5.0268,4.964,4.954,4.9289,4.8786,4.8484,4.8342,4.8353,4.7354,4.7025,4.743,4.6597,4.6069,4.5859,4.5251,4.484,4.4612,4.4024,4.3262,4.2395,4.1619,4.1226,4.1224,4.0997,4.1047,4.1198,4.0997,4.0995,4.1219,4.1219,4.0589,3.9886,0.0,0.0,0.0,0.0,0.0,0.0,0.0,0.0,0.0,0.0,2.726,2.7701,2.8366,2.8244,2.8024,2.7769,2.9373,3.2215,3.6424,3.9436,4.3163,4.7839,4.8691,4.9425,5.0237,4.9714,4.9819,5.0603,4.9714,4.9897,5.1126,5.1282,5.1439,5.1622,5.2354,5.2119,5.1178,5.1727,5.1439,5.0603,5.0734,5.0185,4.9165,4.825,4.6761,4.5273,4.6187,4.4599,0.0,0.0,4.0749,3.9939,3.9939,3.9337,3.8187,3.594,3.4528,0.0,3.2579,3.2304,3.2573,3.4059,3.5305,3.6831,3.921,4.0515,4.1543,4.2785,4.5206,4.7445,4.8666,5.0701,5.2518,0.0,5.3911,5.4106,5.4241,5.3561,5.2565,5.1402,5.065,5.0355,5.0761,5.0268,4.9906,4.9873,4.9417,4.9291,4.9558,4.8661,4.8245,4.8661,4.754,4.7207,4.7592,4.6758,4.6415,4.6611,4.5628,4.5151,4.5155,4.3592,4.2444,4.1595,4.1204,4.1147,4.1274,4.1147,4.1198,4.1274,4.1147,4.1198,4.1324,4.1324,4.101,4.0641,0.0,0.0,0.0,0.0,0.0,0.0,0.0,0.0,0.0,0.0,2.6153,2.6312,2.6974,2.625,2.5701,2.5743,2.7456,3.0551,3.5218,3.8547,4.2491,4.738,4.8001,4.8691,4.9825,4.9213,4.9191,4.9897,4.9061,4.9296,5.0551,5.0263,5.0498,5.1126,5.1309,5.1073,5.0577,5.0969,5.0655,4.9897,5.0028,4.9218,4.778,4.6133,4.399,4.1951,4.2971,4.1533,0.0,0.0,3.7743,3.7325,3.7795,3.7586,3.6907,3.5469,3.4591,3.4001,3.342,3.3798,3.465,3.5922,3.8019,4.026,4.1977,4.3467,4.4919,4.6289,4.8406,5.029,5.1379,5.2679,5.3679,5.4226,5.434,5.4257,5.401,5.2904,5.1575,5.0028,4.8498,4.7958,4.8976,4.8962,4.9101,4.9659,4.9178,4.9077,4.9584,4.8888,4.8522,4.8748,4.7901,4.7668,4.81,4.705,4.6891,4.7555,4.6218,4.5662,4.5773,4.3478,4.2086,4.1438,4.1126,4.1097,4.1324,4.1324,4.1324,4.1324,4.1324,4.1324,4.1324,4.1324,4.1219,4.1036,0.0,0.0,0.0,0.0,0.0,0.0,0.0,0.0,0.0,0.0,0.0,0.0,0.0,2.5702,2.5666,2.561,2.7492,3.0367,3.4319,3.7761,4.1676,4.6235,4.6293,4.7298,4.9616,4.8721,4.8773,4.9897,4.9845,4.9871,4.9923,5.0498,5.0472,4.9976,5.0551,5.0472,4.9923,4.9923,4.9923,4.9793,4.8695,4.7911,4.6991,4.4199,4.135,3.8919,3.9547,0.0,0.0,3.4397,3.3091,3.1548,3.3247,3.4502,0.0,3.4607,3.3908,3.3301,3.3234,3.4135,3.574,3.8653,4.0336,4.2246,4.6108,4.7248,4.8288,5.0992,5.1456,5.1716,5.2828,5.3125,5.3351,5.3668,5.3907,5.3724,5.2784,5.1254,4.9702,4.8158,4.6338,4.5309,0.0,4.6602,4.7657,4.8774,4.8786,4.8724,4.8444,4.93,4.9405,4.8601,4.8549,4.8842,4.936,4.7889,4.7606,4.8532,4.7419,4.6679,4.6395,4.4015,4.2945,4.284,4.1744,4.1274,4.1324,4.1324,4.1324,4.1324,4.1324,4.1324,4.1324,4.1324,4.0958,4.0357,0.0,0.0,0.0,0.0,0.0,0.0,0.0,0.0,0.0,0.0,0.0,0.0,0.0,0.0,0.0,0.0,2.6639,2.878,3.2288,3.5666,3.8823,4.1747,4.3953,4.5379,4.6058,4.6544,4.7248,4.8198,4.744,4.744,4.8172,4.7623,4.7466,4.7649,4.825,4.8172,4.7649,4.8041,4.8131,4.7878,4.5623,4.4837,4.4512,4.0496,3.7717,3.5626,0.0,0.0,0.0,3.0947,3.0503,3.0121,3.1444,3.1862,3.1797,3.1588,3.2578,3.3953,3.4915,3.6743,3.912,4.2395,4.4675,4.6746,4.9101,5.032,5.0901,5.0842,5.0854,5.0563,4.9545,4.9794,5.0426,5.1238,5.191,5.2642,5.3513,5.1974,4.991,4.7777,4.5879,0.0,0.0,0.0,0.0,4.8793,4.8734,4.9087,5.0124,4.9933,4.9831,4.9929,4.9235,4.9229,4.9981,4.854,4.8077,4.8558,4.703,4.5775,4.4696,4.3546,4.2814,4.2422,4.1638,4.1324,4.1324,4.1324,4.1324,4.1324,4.1324,4.1324,4.1324,4.1324,4.1193,4.0984,0.0,0.0,0.0,0.0,0.0,0.0,0.0,0.0,0.0,0.0,0.0,0.0,0.0,0.0,0.0,0.0,0.0,2.6991,2.9567,3.2437,3.4958,3.6975,3.9661,4.1114,4.1194,4.2274,4.3122,4.3624,4.331,4.3625,4.4546,4.3834,4.3885,4.4643,4.5009,4.5088,4.5012,4.536,4.5236,4.4512,4.2213,4.1037,4.0254,3.6332,3.3901,0.0,0.0,0.0,2.8072,2.8315,2.8368,2.8577,2.9729,3.0215,3.0492,3.0771,3.2573,3.494,3.7019,3.9449,4.2124,4.5312,4.7637,4.9596,5.1129,5.1646,5.1504,5.0262,4.9444,4.8421,4.6798,4.6385,4.6837,4.8386,4.8901,4.9852,5.1858,5.0278,4.84,4.7074,4.5431,4.4194,0.0,0.0,0.0,4.8179,4.8233,4.8866,5.0411,5.0238,5.0176,5.0374,4.9884,4.9929,5.0451,4.9153,4.8376,4.8139,4.6814,4.5601,4.4487,4.3676,4.3023,4.2448,4.1873,4.1507,4.1324,4.1324,4.1324,4.1324,4.1324,4.1324,4.1324,4.1324,4.1324,4.1298,0.0,0.0,0.0,0.0,0.0,0.0,0.0,0.0,0.0,0.0,0.0,0.0,0.0,0.0,0.0,0.0,0.0,0.0,2.6393,2.8364,3.0283,3.2168,3.3831,3.4996,3.5647,3.6457,3.6903,3.6914,3.7957,3.8747,3.9299,3.9254,3.9834,4.088,4.0906,4.1219,4.1841,4.1928,4.1271,4.0053,3.8363,3.6657,3.4847,3.1927,0.0,0.0,0.0,0.0,0.0,2.6556,2.6824,2.7027,2.8124,2.9693,3.1289,3.2211,3.399,3.6305,3.9474,4.212,4.4669,4.7431,4.9289,5.0786,5.2152,5.1362,5.0006,4.9204,4.7151,4.5284,0.0,0.0,4.2853,4.5391,4.533,4.5847,4.8263,4.6803,4.5731,0.0,0.0,0.0,0.0,0.0,0.0,4.7129,0.0,4.8176,4.9428,5.0212,5.0415,4.9967,5.0524,5.0812,5.0786,4.9662,4.8486,4.7278,4.6761,4.6186,4.5584,4.4382,4.352,4.2997,4.2396,4.1821,4.1324,4.1324,4.1324,4.1324,4.1324,4.1324,4.1324,4.1324,4.1324,4.1246,0.0,0.0,0.0,0.0,0.0,0.0,0.0,0.0,0.0,0.0,0.0,0.0,0.0,0.0,0.0,0.0,0.0,0.0,2.5053,2.6542,2.7799,2.8813,3.1545,3.3258,3.3624,3.4817,0.0,3.5707,3.5568,3.5345,3.5121,3.5122,3.5039,3.492,3.5365,3.5884,3.6348,3.6029,3.6308,3.6769,0.0,3.2593,3.2847,0.0,0.0,0.0,0.0,0.0,0.0,0.0,0.0,0.0,2.9274,3.0739,3.2731,3.4579,3.6875,3.9626,4.3295,4.5574,4.7531,5.0343,5.1046,5.1021,5.1003,4.9705,4.7945,4.5927,4.3487,4.1258,0.0,0.0,0.0,4.388,4.5479,0.0,5.1002,5.033,0.0,4.8472,0.0,4.6623,4.6544,4.6337,0.0,0.0,4.8058,4.8584,5.0602,5.1064,5.1153,5.0831,5.1184,5.1204,5.0786,4.9662,4.8486,4.7278,4.6761,4.6186,4.5584,4.3964,4.3154,4.2971,4.1977,4.1455,4.1324,4.1324,4.1324,4.1324,4.1324,4.1324,4.1324,4.1324,4.1324,4.1298,0.0,0.0,0.0,0.0,0.0,0.0,0.0,0.0,0.0,0.0,0.0,0.0,0.0,0.0,0.0,0.0,0.0,0.0,0.0,2.4866,2.5435,2.5848,2.7889,2.9123,2.9288,3.0332,0.0,0.0,0.0,0.0,3.1287,3.1298,3.1541,3.1978,3.2289,3.2772,3.3261,3.2793,0.0,0.0,0.0,0.0,0.0,0.0,0.0,0.0,0.0,0.0,0.0,0.0,0.0,3.1035,3.1883,3.3453,3.5513,3.8151,0.0,4.2557,4.6162,4.8259,4.9816,5.1649,5.1699,5.0937,4.9442,4.7604,4.5296,4.2062,3.9751,0.0,3.6206,3.6251,0.0,0.0,0.0,0.0,4.9048,4.9148,4.881,0.0,4.8566,0.0,4.8014,4.8165,4.8752,0.0,4.9421,4.9533,5.0867,5.1476,5.1606,5.1309,5.1471,5.1204,5.0394,4.9531,4.8486,4.7278,4.6996,4.6421,4.5584,4.4617,4.3885,4.3363,0.0,4.216,4.169,4.169,4.1533,4.1324,4.1324,4.1324,4.1324,4.1324,4.1324,4.1324,0.0,0.0,0.0,0.0,0.0,0.0,0.0,0.0,0.0,0.0,0.0,0.0,0.0,0.0,0.0,0.0,0.0,0.0,0.0,0.0,0.0,0.0,2.4395,2.4875,2.481,0.0,0.0,0.0,0.0,0.0,0.0,0.0,0.0,0.0,0.0,0.0,0.0,0.0,0.0,0.0,0.0,0.0,0.0,0.0,0.0,0.0,0.0,0.0,0.0,0.0,3.1679,3.3029,3.5054,3.6926,3.9015,4.2182,4.3846,4.5246,4.8397,5.0268,5.1498,5.1975,5.1523,5.0258,4.7576,4.5085,4.2182,3.8197,0.0,3.4857,3.3891,3.374,3.4761,3.7877,0.0,4.1204,4.573,4.6373,4.7074,4.8938,4.9348,4.9473,4.9389,4.9932,5.0655,5.1648,5.1007,5.0685,5.0959,5.1632,5.1866,5.1622,5.1518,5.1021,5.0028,4.9401,4.8564,4.7571,4.7357,4.6704,4.5741,4.5584,4.4905,4.3912,4.3807,4.3206,4.2265,4.2238,4.1873,4.1428,4.135,4.1324,4.1324,4.1324,4.1324,4.1324,0.0,0.0,0.0,0.0,0.0,0.0,0.0,0.0,0.0,0.0,2.4013,2.361,0.0,0.0,0.0,0.0,0.0,0.0,0.0,0.0,0.0,0.0,2.5285,2.5986,2.5473,0.0,0.0,0.0,0.0,0.0,0.0,0.0,0.0,0.0,0.0,0.0,0.0,0.0,0.0,0.0,0.0,0.0,0.0,0.0,0.0,0.0,0.0,0.0,0.0,0.0,3.3462,3.513,3.714,3.9474,4.2066,4.5355,4.6763,4.7894,5.0745,5.1749,5.1975,5.2076,5.0645,4.8422,4.538,4.19,0.0,0.0,3.3679,3.2225,3.2176,3.3172,3.502,3.8415,4.0304,0.0,0.0,0.0,4.8816,0.0,0.0,0.0,0.0,5.1977,0.0,0.0,5.2186,5.2007,5.1791,5.1721,5.1638,5.1596,5.1178,5.0838,5.0629,4.961,4.8982,4.8773,4.7806,4.697,4.629,4.5323,4.4513,4.3833,4.3363,0.0,4.284,4.2369,4.2159,4.1977,4.1507,4.1324,4.1324,4.1324,4.1324,4.1324,0.0,0.0,0.0,0.0,0.0,0.0,0.0,2.4494,2.4927,2.5289,2.4905,2.4657,2.4657,2.4306,2.4126,0.0,0.0,0.0,0.0,0.0,0.0,0.0,0.0,0.0,0.0,0.0,0.0,0.0,0.0,0.0,0.0,0.0,0.0,0.0,0.0,0.0,0.0,0.0,0.0,0.0,0.0,0.0,0.0,0.0,0.0,0.0,0.0,0.0,0.0,0.0,3.3274,3.5805,3.8894,4.171,4.4418,4.7179,4.836,4.9339,5.185,5.2528,5.2477,5.2176,4.9766,4.6612,4.33,0.0,0.0,0.0,3.1747,3.0901,3.1301,3.2604,0.0,3.6509,0.0,0.0,0.0,0.0,0.0,0.0,0.0,0.0,0.0,5.2644,5.3086,5.3373,5.2825,5.2291,5.1851,5.169,5.1596,5.1596,5.1073,5.0786,5.0786,4.9662,4.9087,4.9087,4.8198,4.7492,4.6891,4.6029,4.5323,4.4748,4.4173,4.3729,4.3441,4.3154,4.2761,4.2185,4.1873,4.1585,4.1324,4.1324,4.1324,4.1324,0.0,0.0,0.0,0.0,0.0,0.0,0.0,2.515,2.5417,2.5961,2.5942,2.5908,2.6004,2.5292,2.4814,0.0,0.0,0.0,0.0,0.0,0.0,0.0,0.0,0.0,0.0,0.0,0.0,0.0,0.0,0.0,0.0,0.0,0.0,0.0,0.0,0.0,0.0,0.0,0.0,0.0,0.0,0.0,0.0,0.0,0.0,0.0,0.0,0.0,0.0,0.0,3.2397,3.5283,3.8868,4.2363,4.5547,4.7693,4.895,5.0067,5.2176,5.2829,5.2729,5.195,4.8812,4.5036,4.1559,3.7326,0.0,0.0,3.0529,3.0257,3.0869,3.2045,3.3312,0.0,3.6159,0.0,0.0,0.0,0.0,0.0,0.0,0.0,0.0,5.2983,0.0,5.4001,5.3086,5.2223,5.1622,5.1596,5.1596,5.1596,5.1178,5.0969,5.0969,4.9819,4.9244,4.9244,4.8538,4.7885,4.7252,4.6734,4.6159,4.5584,4.4929,4.446,4.4042,4.3912,4.3311,4.2343,4.2264,4.1821,4.1324,4.1547,4.1498,4.1324,0.0,0.0,0.0,0.0,0.0,0.0,0.0,2.5635,2.6138,2.6812,2.6753,2.6898,2.7345,2.6273,2.5501,0.0,0.0,0.0,0.0,0.0,0.0,0.0,0.0,0.0,0.0,0.0,0.0,0.0,0.0,0.0,0.0,0.0,0.0,0.0,0.0,0.0,0.0,0.0,0.0,0.0,0.0,0.0,0.0,0.0,0.0,0.0,0.0,0.0,0.0,0.0,0.0,3.2859,3.5156,3.955,4.435,4.6238,0.0,0.0,5.1699,5.2553,5.2553,5.0971,4.7657,4.3878,4.0414,0.0,0.0,3.1289,3.0529,3.0257,3.0869,3.151,3.2566,0.0,0.0,3.7762,0.0,0.0,0.0,0.0,0.0,0.0,0.0,5.3373,5.3426,5.3478,5.2877,5.2223,5.1622,5.1596,5.1596,5.1596,5.1544,5.1518,5.1518,5.0394,4.9819,4.9793,4.8695,4.7885,4.7252,4.6734,4.6159,4.5584,4.4929,4.4642,0.0,4.4095,4.352,4.2892,4.2369,4.1821,4.1398,4.2333,4.2088,4.1448,0.0,0.0,0.0,0.0,0.0,0.0,2.5812,2.6253,2.6941,2.8137,2.7868,2.7744,2.8252,2.7475,2.6729,2.6243,0.0,0.0,0.0,0.0,0.0,0.0,0.0,0.0,0.0,0.0,0.0,2.7585,2.7585,0.0,0.0,0.0,0.0,0.0,0.0,0.0,0.0,0.0,0.0,0.0,0.0,0.0,0.0,0.0,0.0,0.0,0.0,0.0,0.0,0.0,0.0,0.0,3.1487,3.4681,0.0,0.0,4.5322,4.7255,5.0268,5.1749,5.2101,5.0745,4.7101,4.3063,4.016,0.0,3.1836,3.1133,3.0529,3.0257,3.0869,3.1182,3.1823,0.0,0.0,0.0,0.0,0.0,0.0,0.0,0.0,0.0,0.0,0.0,5.3086,5.238,5.2772,5.2616,5.1648,5.1596,5.1596,5.1596,5.1596,5.1596,5.1596,5.0472,4.9897,4.9871,4.8721,4.8068,4.7806,4.6891,4.6342,4.6081,4.514,4.4668,0.0,4.4487,4.3859,4.2997,4.2762,4.2134,4.1398,4.2431,4.255,4.2333,0.0,0.0,0.0,0.0,0.0,2.525,2.6121,2.6592,2.7266,2.8443,2.8246,2.8122,2.853,2.8062,2.7535,2.7005,2.737,0.0,0.0,0.0,0.0,0.0,0.0,0.0,0.0,0.0,2.7705,2.7914,2.7914,2.8004,0.0,0.0,0.0,0.0,0.0,0.0,0.0,0.0,0.0,0.0,0.0,0.0,0.0,0.0,0.0,0.0,0.0,0.0,0.0,0.0,0.0,0.0,0.0,0.0,0.0,0.0,4.2283,4.4702,4.8096,5.0082,5.082,4.9515,4.6002,4.2109,0.0,0.0,3.1617,3.1119,3.066,3.0503,3.0921,3.0973,3.1313,0.0,0.0,3.3454,0.0,0.0,0.0,0.0,0.0,4.9707,0.0,5.3347,5.3138,5.1962,5.2825,5.2877,5.1648,5.1596,5.1596,5.1596,5.1596,5.1518,5.1361,5.0394,4.9819,4.9636,4.8643,4.8094,4.7911,4.6917,4.6395,4.6159,4.5166,4.4668,0.0,4.4668,4.4042,4.3023,4.3023,4.2317,4.1448,4.2744,4.3081,4.2985,0.0,0.0,0.0,0.0,0.0,0.0,2.5901,2.6535,2.7064,2.721,2.7668,2.7995,2.7995,2.7765,2.7635,2.779,2.766,0.0,0.0,0.0,0.0,0.0,0.0,0.0,0.0,0.0,2.7944,2.8577,2.8577,2.8936,2.9592,2.9592,2.9592,0.0,0.0,0.0,0.0,0.0,0.0,0.0,0.0,0.0,0.0,0.0,0.0,0.0,0.0,0.0,0.0,0.0,0.0,0.0,0.0,0.0,0.0,0.0,3.9394,4.3017,4.5269,4.7313,4.841,4.6778,4.4011,4.0868,0.0,0.0,3.2149,3.1171,3.0973,3.0973,3.0973,3.0973,3.1182,3.1719,0.0,0.0,3.5887,0.0,0.0,0.0,0.0,4.7414,4.9714,5.2511,5.3713,5.2589,5.306,0.0,5.1648,5.1596,5.1596,5.1596,5.1596,5.1335,5.0812,5.0185,4.961,4.9087,4.8486,4.7885,4.7278,4.6734,4.6159,4.5611,4.4929,4.4668,0.0,4.4668,4.4042,4.3023,4.3023,4.2317,4.1547,4.3559,4.3654,4.3081,0.0,0.0,0.0,0.0,0.0,0.0,0.0,2.6093,2.6679,2.7857,2.7762,2.7905,2.8717,2.8238,2.784,2.779,2.769,0.0,0.0,0.0,0.0,0.0,0.0,0.0,0.0,0.0,2.8607,2.9265,2.9265,2.9412,2.9621,3.0013,3.0223,3.0223,3.0702,0.0,0.0,0.0,0.0,0.0,0.0,0.0,0.0,0.0,0.0,0.0,0.0,0.0,0.0,0.0,0.0,0.0,0.0,0.0,0.0,0.0,0.0,0.0,4.077,4.2801,4.3838,4.2544,4.0415,3.8133,3.5994,3.37,3.1772,3.113,3.0973,3.0973,3.0973,3.0973,3.1444,3.2803,3.3666,0.0,0.0,0.0,0.0,4.446,4.9296,5.2485,0.0,0.0,5.4184,5.2616,5.306,5.2877,5.1648,5.1596,5.1413,5.1047,5.1047,5.076,5.0185,4.961,4.9244,4.9087,4.8068,4.7492,4.7252,4.6342,4.5794,4.5584,4.4929,4.4668,4.4668,4.4668,4.4042,4.3023,4.3023,4.2317,4.1547,4.3559,4.4125,4.4125,0.0,0.0,0.0,0.0,0.0,0.0,0.0,2.5746,2.6302,2.7473,2.7441,2.7632,2.8413,2.821,2.7849,2.7533,2.7615,0.0,0.0,0.0,0.0,0.0,0.0,0.0,0.0,2.8607,2.9026,2.9924,3.0193,3.0313,3.0342,3.0971,3.112,3.0883,3.1301,3.1511,0.0,0.0,0.0,0.0,0.0,0.0,3.1511,0.0,0.0,0.0,0.0,0.0,0.0,0.0,0.0,0.0,0.0,0.0,0.0,0.0,3.0903,3.3724,0.0,3.9035,4.0236,3.9267,3.7851,3.6257,3.4598,3.2927,3.1641,3.1104,3.0973,3.0973,3.0973,3.0973,3.1339,3.2437,3.3247,0.0,0.0,0.0,0.0,4.548,0.0,0.0,0.0,5.4367,5.455,5.3243,5.3295,5.2981,5.1988,5.1727,5.1256,5.0472,5.0681,5.0394,4.9584,4.9244,4.8982,4.8721,4.778,4.7174,4.697,4.6055,4.5506,4.5216,4.4824,4.4668,0.0,4.4668,4.4255,4.354,4.354,4.3078,4.2625,4.4266,4.4869,4.5098,0.0,0.0,0.0,0.0,0.0,0.0,0.0,2.548,2.6042,2.6444,2.688,2.7264,2.7504,2.7765,2.7716,2.7115,0.0,0.0,0.0,0.0,0.0,0.0,0.0,0.0,2.8667,2.8667,2.9295,3.0582,3.1241,3.157,3.16,3.2258,3.2198,3.157,3.157,3.154,3.1511,3.1511,3.1511,3.1511,3.1511,3.1511,0.0,0.0,0.0,0.0,0.0,0.0,0.0,0.0,0.0,0.0,0.0,0.0,0.0,0.0,0.0,0.0,0.0,3.5814,3.7194,3.6683,3.5942,3.496,3.3374,3.2344,0.0,3.1104,3.0973,3.0999,3.1026,3.1026,3.1026,3.1156,3.2123,0.0,0.0,3.8083,0.0,0.0,4.9296,0.0,5.1622,5.3739,5.4863,5.4262,5.3687,5.3138,5.2537,5.1936,5.1073,4.9923,5.042,5.0185,4.9035,4.8982,4.8669,4.812,4.7519,4.6944,4.6395,4.582,4.5216,0.0,4.4668,4.4696,4.4778,4.4778,4.4678,4.4552,4.4552,4.4435,4.4406,4.5417,4.5779,4.5913,0.0,0.0,0.0,0.0,0.0,0.0,0.0,0.0,0.0,0.0,2.7199,2.7462,2.8566,2.7914,2.7503,0.0,0.0,0.0,0.0,0.0,0.0,0.0,0.0,0.0,2.9352,2.9355,2.9983,3.1271,3.1929,3.2258,3.2258,3.2946,3.2916,3.2258,3.2258,3.1959,3.1511,3.1511,3.1511,3.1511,3.1511,3.1511,0.0,0.0,0.0,0.0,3.1307,3.0837,0.0,0.0,0.0,0.0,0.0,0.0,0.0,0.0,2.815,2.8804,2.9673,0.0,3.2578,3.2422,3.2254,3.2019,0.0,3.1354,0.0,0.0,0.0,0.0,0.0,3.1287,3.1418,3.2751,0.0,3.4972,3.5809,0.0,0.0,4.8747,5.204,5.3609,5.2406,5.4001,5.4863,5.4262,5.3687,5.3138,5.2537,5.1936,5.1073,4.9923,5.0028,4.9557,4.8407,4.7963,4.7675,4.7519,4.6443,4.595,4.582,4.5218,4.4798,4.4668,4.4668,4.489,4.5256,4.5256,4.5193,4.5052,4.5052,4.4749,4.4406,4.5417,4.5779,4.5913,0.0,0.0,0.0,0.0,0.0,0.0,0.0,0.0,0.0,0.0,0.0,0.0,0.0,0.0,0.0,0.0,0.0,0.0,0.0,0.0,0.0,0.0,0.0,2.8693,2.9983,3.0013,3.0642,3.1959,3.2647,3.2976,3.2976,3.3634,3.3425,3.2497,3.2168,3.2019,3.1929,3.163,3.1511,3.1511,3.1511,0.0,0.0,0.0,0.0,0.0,3.1511,3.1073,0.0,3.0858,3.0048,2.892,0.0,0.0,0.0,0.0,2.7758,2.8046,2.8307,2.9457,3.0607,3.0607,3.079,3.0973,3.0973,0.0,0.0,0.0,0.0,0.0,0.0,0.0,0.0,0.0,3.3927,0.0,0.0,0.0,4.7127,4.9976,5.2433,5.3844,0.0,5.455,5.4968,5.4654,5.3844,5.3243,5.2929,5.1831,5.0812,4.9923,4.9636,4.9087,4.8198,4.7623,4.7278,4.7252,4.613,4.5581,4.5555,4.5009,4.4668,4.4722,4.4434,4.4705,4.5375,4.5078,4.5348,4.5902,4.5902,4.5809,4.5763,4.6255,4.6506,4.6594,0.0,0.0,0.0,0.0,0.0,0.0,0.0,0.0,0.0,0.0,0.0,0.0,0.0,0.0,0.0,0.0,0.0,0.0,0.0,0.0,0.0,0.0,0.0,2.9146,3.0342,3.0462,3.118,3.2527,3.3275,3.3694,3.3814,3.4472,3.4023,3.2647,3.1959,3.1899,3.2288,3.175,3.1511,3.1511,3.1511,0.0,0.0,0.0,0.0,0.0,0.0,0.0,0.0,3.1301,3.063,2.9547,2.9504,0.0,0.0,0.0,0.0,0.0,2.8333,2.9301,3.01,3.01,3.0555,3.0973,3.0973,0.0,0.0,0.0,0.0,0.0,0.0,3.1182,0.0,0.0,0.0,0.0,4.1376,4.4434,4.731,5.042,5.204,0.0,5.4445,5.4811,5.4942,5.4863,5.387,5.3217,5.3138,5.1648,5.0472,4.9793,4.9244,4.8669,4.8068,4.7492,4.7153,4.7017,4.6003,4.5425,4.5454,4.4879,4.4591,4.4565,0.0,0.0,4.5333,4.4989,4.5585,4.6787,4.6787,4.7007,4.7309,4.7309,4.7309,4.7309,0.0,0.0,0.0,0.0,0.0,0.0,0.0,0.0,0.0,0.0,0.0,0.0,0.0,0.0,0.0,0.0,0.0,0.0,0.0,0.0,0.0,2.9412,2.8906,2.8966,2.9741,3.0253,3.118,3.2527,3.3724,3.4622,3.522,3.5878,3.516,3.3305,3.2647,3.2079,3.166,3.154,3.1511,3.1511,3.1511,0.0,0.0,0.0,0.0,0.0,0.0,0.0,0.0,3.1455,3.094,3.015,2.9656,0.0,0.0,0.0,0.0,0.0,2.8856,2.9614,3.01,3.01,3.0555,3.0973,3.0973,3.0973,0.0,0.0,0.0,0.0,0.0,3.2097,3.2803,0.0,0.0,4.0331,0.0,0.0,4.9113,5.0603,0.0,5.4027,5.2302,5.3478,5.4158,5.3687,5.3034,5.2406,5.191,5.1178,5.0315,4.9244,4.8643,4.8041,4.7466,4.6891,4.6369,4.5816,4.5192,4.4853,4.4853,4.4278,4.399,4.4017,0.0,4.472,4.53,4.6054,4.667,4.7211,4.7211,4.7268,4.7309,4.7309,4.7309,4.7309,0.0,0.0,0.0,0.0,0.0,0.0,0.0,0.0,0.0,0.0,0.0,0.0,0.0,0.0,0.0,0.0,0.0,0.0,0.0,0.0,2.8603,2.9562,2.9624,3.0103,3.115,3.1779,3.2796,3.4143,3.51,3.5908,3.6537,3.6148,3.525,3.3993,3.2976,3.2318,3.2019,3.166,3.1511,3.1511,0.0,0.0,0.0,0.0,0.0,0.0,0.0,0.0,0.0,0.0,3.1804,3.1397,3.0742,0.0,0.0,0.0,0.0,0.0,2.8826,2.9518,3.0184,3.0131,3.0753,3.1365,3.1052,3.0973,0.0,0.0,0.0,0.0,0.0,0.0,3.4502,3.722,0.0,4.3232,4.5663,4.7231,4.8669,0.0,5.1779,5.272,5.2589,5.3295,5.3661,5.3426,5.2537,5.1884,5.1622,5.0498,4.9479,4.8616,4.8041,4.731,4.6365,4.6159,4.5872,4.5555,4.5009,4.4668,4.4668,4.446,4.4173,4.3939,0.0,4.4776,4.5231,4.5947,4.6637,4.7309,4.7309,4.7309,4.7309,4.7309,4.7309,4.7309,0.0,0.0,0.0,0.0,0.0,0.0,0.0,0.0,0.0,0.0,0.0,0.0,0.0,0.0,0.0,0.0,0.0,0.0,0.0,0.0,2.9116,2.9801,3.0402,3.1212,3.2228,3.3095,3.4173,3.5519,3.6297,3.6956,3.7375,3.6417,3.5429,3.4444,3.3275,3.2647,3.2467,3.178,3.1511,3.1511,0.0,0.0,0.0,0.0,0.0,0.0,0.0,0.0,0.0,0.0,0.0,0.0,0.0,0.0,0.0,3.0267,2.9873,2.9691,2.9421,3.005,3.0759,3.0815,3.1198,3.1615,3.1757,3.1679,3.1836,0.0,0.0,0.0,0.0,3.458,0.0,4.0435,4.3467,4.5663,4.6499,4.7623,4.8878,5.0315,5.1021,5.1805,5.2877,5.3112,5.3008,5.2616,5.1858,5.123,5.0812,4.9584,4.8538,4.7806,4.7231,4.6469,4.5637,4.548,4.5373,4.5346,4.4903,4.4643,4.4513,4.4382,4.4123,4.3886,4.4269,4.481,4.5383,4.5937,4.6594,4.7309,4.7309,4.7309,4.7309,4.7309,4.7309,4.7309,0.0,0.0,0.0,0.0,0.0,0.0,0.0,0.0,0.0,0.0,0.0,0.0,0.0,0.0,0.0,0.0,0.0,0.0,0.0,0.0,2.9774,3.0402,3.1062,3.1481,3.157,3.2856,3.4173,3.5519,3.6746,3.7375,3.7404,3.7315,3.6267,3.4474,3.3754,3.3095,3.2467,3.178,3.1511,3.1511,3.1511,0.0,0.0,0.0,0.0,0.0,0.0,0.0,0.0,0.0,0.0,0.0,0.0,0.0,3.1392,3.134,3.0922,3.066,3.1646,3.2004,3.2227,3.2772,3.1955,3.1601,3.3666,3.377,3.3875,3.5469,0.0,0.0,0.0,3.7377,4.0017,4.2448,4.5271,4.7728,4.9348,5.0577,5.1544,5.2223,5.2851,5.2825,5.1831,5.2223,5.1884,5.0263,5.0577,5.0132,4.8512,4.8329,4.7754,4.663,4.6055,4.566,4.5581,4.5007,4.4746,4.4746,4.4748,4.4434,4.3912,4.3389,4.333,4.3724,4.4137,4.4862,4.5837,4.68,4.7222,4.7309,4.7309,4.7309,4.7309,4.7309,4.7309,4.7309,0.0,0.0,0.0,0.0,0.0,0.0,0.0,0.0,0.0,0.0,0.0,0.0,0.0,0.0,0.0,0.0,0.0,0.0,0.0,2.9804,3.0462,3.1092,3.1361,3.1899,3.2736,3.4472,3.5998,3.7285,3.7793,3.7823,3.7404,3.7015,3.5998,3.4503,3.4264,3.3754,3.3095,3.2856,3.2527,3.2108,3.2108,3.1869,0.0,0.0,0.0,0.0,0.0,0.0,0.0,0.0,3.2258,3.258,3.2048,3.2575,3.3179,3.2357,3.1918,3.1676,3.1221,3.1629,3.2131,3.1971,3.1994,3.2581,3.4619,3.5221,3.5562,3.6472,3.7351,0.0,0.0,0.0,4.1821,4.3781,4.6212,4.8329,4.9688,5.0263,5.0629,5.0864,5.1073,5.1047,5.0577,5.0734,5.0603,4.9949,4.9793,4.927,4.825,4.7832,4.7127,4.5976,4.5741,4.5399,4.5007,4.4798,4.5046,4.5741,4.5341,4.4891,4.441,4.4738,4.4598,4.4253,4.5345,4.5792,4.5869,4.6887,4.7309,4.7309,4.7309,4.7309,4.7309,4.7309,4.7309,4.7309,0.0,0.0,0.0,0.0,0.0,0.0,0.0,0.0,0.0,0.0,0.0,0.0,0.0,0.0,0.0,0.0,0.0,0.0,2.9592,3.0372,3.1002,3.1481,3.169,3.2467,3.3784,3.5579,3.7015,3.8093,3.8512,3.8272,3.7404,3.6985,3.6178,3.5132,3.4683,3.4352,3.4113,3.3664,3.3245,3.2826,3.2826,3.2407,0.0,0.0,0.0,0.0,0.0,0.0,0.0,0.0,3.2258,3.2796,3.2288,3.3095,3.3993,3.3095,3.2824,3.2545,3.1406,3.1599,3.2068,3.1846,3.2624,3.4031,3.6329,3.701,3.7466,3.8647,3.9573,4.0148,4.0148,0.0,0.0,4.446,4.6682,4.859,4.974,4.9897,4.9897,4.9897,4.974,4.9636,4.9636,4.9636,4.9479,4.9113,4.8904,4.8381,4.7414,4.6996,4.6342,4.5375,4.5349,4.5062,4.446,4.4756,4.5235,4.5804,4.5816,4.5672,4.5473,4.568,4.5567,4.5268,4.606,4.635,4.6344,4.7019,4.7309,4.7309,4.7309,4.7309,4.7309,4.7309,4.7309,4.7309,0.0,0.0,0.0,0.0,0.0,0.0,0.0,0.0,0.0,0.0,0.0,0.0,0.0,0.0,0.0,0.0,0.0,0.0,2.9621,3.0821,3.1511,3.1511,3.2138,3.3125,3.4474,3.5821,3.6806,3.7434,3.8751,3.8721,3.7404,3.7404,3.7075,3.6417,3.5132,3.4861,3.5429,3.4083,3.3514,3.3514,3.3514,3.3125,3.2497,0.0,0.0,0.0,0.0,0.0,0.0,0.0,3.2049,3.175,3.3066,3.3484,3.3514,3.3484,3.3463,3.3267,3.2564,3.2302,3.2352,3.2968,3.4024,3.577,3.904,3.9217,3.9547,4.2448,4.2134,4.135,4.135,4.1821,0.0,4.446,4.6682,4.8564,4.9714,4.9871,4.9871,4.9871,4.9401,4.9061,4.9061,4.9061,4.859,4.7357,4.7858,4.7414,4.566,4.5581,4.5294,4.4748,4.4722,4.4434,4.3939,4.4885,4.5129,4.4556,4.5997,4.6842,4.7059,4.5774,4.5808,4.6737,4.6114,4.6388,4.7309,4.7309,4.7309,4.7309,4.7309,4.7309,4.7309,4.7309,4.7309,4.7309,0.0,0.0,0.0,0.0,0.0,0.0,0.0,0.0,0.0,0.0,0.0,0.0,0.0,0.0,0.0,0.0,0.0,0.0,3.0223,3.1032,3.1511,3.1511,3.2138,3.2916,3.3754,3.5549,3.7015,3.8093,3.8033,3.7584,3.6776,3.6776,3.6417,3.5789,3.5848,3.5759,3.5489,3.507,3.4622,3.4204,3.4204,3.3784,3.3155,0.0,0.0,0.0,0.0,0.0,0.0,0.0,0.0,0.0,3.2108,3.3066,3.4024,3.3066,3.3122,3.3319,3.2643,3.2302,3.2401,3.3536,3.4476,0.0,0.0,3.9953,0.0,0.0,4.3938,4.3232,4.365,4.4199,4.4774,4.5271,4.6604,4.7832,4.859,4.8355,4.825,4.8643,4.7832,4.7414,4.7806,4.7492,4.71,4.6761,4.6891,4.6578,4.5663,4.5581,4.5294,4.4748,4.433,4.4388,4.4937,4.4867,4.542,4.669,4.6685,4.6794,4.701,4.6761,4.6956,4.7346,4.7022,4.7019,4.7309,4.7309,4.7309,4.7309,4.7309,4.7309,4.7309,4.7309,4.7309,4.7309,0.0,0.0,0.0,0.0,0.0,0.0,0.0,0.0,0.0,0.0,0.0,0.0,0.0,0.0,0.0,0.0,0.0,0.0,0.0,3.1122,3.163,3.1899,3.2258,3.3066,3.4262,3.5729,3.6866,3.7644,3.7494,3.7105,3.654,3.6746,3.6656,3.6267,3.6686,3.6626,3.6237,3.5998,3.5489,3.4891,3.4891,3.4472,3.3844,0.0,0.0,0.0,0.0,0.0,0.0,0.0,0.0,0.0,3.163,3.2497,3.3454,3.2109,3.255,3.3252,3.2323,3.2404,3.3073,3.4333,3.5318,3.6752,3.9741,0.0,0.0,0.0,4.5532,4.4748,4.5323,4.514,4.5088,4.5558,4.6212,4.6865,4.7414,4.7205,4.7127,4.7466,4.6708,4.6369,4.6944,4.6473,4.6133,4.6133,4.6133,4.5898,4.5242,4.5062,4.491,4.497,4.444,4.4506,4.5326,4.5385,4.5873,4.6865,4.6927,4.717,4.751,4.7362,4.7496,4.7887,4.7465,4.7309,4.7309,4.7309,4.7309,4.7309,4.7309,4.7309,4.7309,4.7309,4.7309,4.7309,0.0,0.0,0.0,0.0,0.0,0.0,0.0,0.0,0.0,0.0,2.7675,0.0,0.0,0.0,0.0,0.0,0.0,0.0,0.0,0.0,3.1869,3.2467,3.2617,3.3574,3.5459,3.6088,3.6387,3.6387,3.7015,3.7015,3.6417,3.7105,3.7375,3.7315,3.7375,3.7375,3.7285,3.6656,3.6058,3.5519,3.5519,3.513,3.4593,3.4533,0.0,0.0,0.0,0.0,0.0,0.0,0.0,0.0,3.16,3.2019,3.2258,3.1041,3.1965,3.3144,3.2094,3.2818,3.4251,3.5493,3.6614,3.8135,4.0906,4.3677,4.6088,4.7602,0.0,4.5872,4.6395,4.5192,4.446,4.5532,4.5715,4.5872,4.6395,4.6421,4.6421,4.6473,4.5924,4.5741,4.6264,4.5846,4.5451,4.5401,4.5373,4.5218,4.4591,4.4175,4.4387,4.5294,4.4851,4.4798,4.5335,4.62,4.6388,4.5958,4.6887,4.7608,4.8177,4.7578,4.7638,4.8147,4.7549,4.7309,4.7309,4.7309,4.7309,4.7309,4.7309,4.7309,4.7309,4.7309,4.7309,4.7309,0.0,0.0,0.0,0.0,0.0,0.0,0.0,0.0,0.0,0.0,0.0,0.0,0.0,0.0,0.0,0.0,0.0,0.0,0.0,0.0,3.2348,3.2497,3.3514,3.4502,3.5489,3.5639,3.5729,3.5729,3.6357,3.6357,3.5729,3.6866,3.7165,3.6716,3.7195,3.7135,3.6656,3.5998,3.5639,3.5519,3.5519,3.54,3.522,3.4713,3.3993,0.0,0.0,0.0,0.0,0.0,0.0,0.0,3.2258,3.2378,3.2467,3.2139,3.2734,3.3654,3.4416,3.4792,0.0,3.7362,3.915,4.0906,4.2866,4.4811,4.6062,4.554,4.5898,4.6342,4.6447,4.6159,4.6003,4.6264,4.629,4.6342,4.6447,4.6081,4.5976,4.6421,4.5558,4.4983,4.514,4.5009,4.4485,4.365,4.399,4.399,4.3415,4.3985,4.4468,4.4722,4.4918,4.5447,4.6397,4.6107,4.6312,4.6975,4.7222,4.7369,4.7519,4.7369,4.7369,4.7519,4.7369,4.7309,4.7309,4.7309,4.7309,4.7309,4.7309,4.7309,4.7309,4.7309,4.7309,4.7309,0.0,0.0,0.0,0.0,0.0,0.0,0.0,0.0,0.0,0.0,0.0,0.0,0.0,0.0,0.0,0.0,0.0,0.0,0.0,0.0,3.2796,3.3425,3.4412,3.513,3.5489,3.5519,3.5519,3.5519,3.5848,3.5848,3.5519,3.6806,3.7225,3.6956,3.7584,3.7524,3.6896,3.6237,3.5789,3.5519,3.5519,3.5519,3.5429,3.4773,3.4053,3.3455,3.3155,0.0,0.0,0.0,0.0,0.0,0.0,0.0,3.202,3.2019,3.2703,3.3662,3.4327,3.5546,0.0,3.9759,0.0,4.4056,4.442,4.5426,4.6068,4.5454,4.6357,4.7092,4.6586,4.6029,4.5962,4.6696,4.5732,4.5122,4.5927,4.5046,4.4648,4.5448,4.4572,4.4124,4.4625,4.4598,4.415,4.3075,4.3728,4.4065,4.3694,4.396,4.4546,4.5496,4.5525,4.5953,4.6962,4.6683,4.677,4.7309,4.7309,4.7309,4.7309,4.7309,4.7309,4.7309,4.7309,4.7309,4.7309,4.7309,4.7309,4.7309,4.7309,4.7309,4.7309,4.7309,4.7309,4.7309,0.0,0.0,0.0,0.0,0.0,0.0,0.0,0.0,0.0,0.0,0.0,0.0,0.0,0.0,0.0,0.0,0.0,0.0,0.0,0.0,0.0,3.4623,3.519,3.5519,3.5519,3.5519,3.5519,3.5519,3.5519,3.5609,3.5848,3.6926,3.7404,3.7434,3.7973,3.7853,3.7195,3.6596,3.5998,3.5519,3.5519,3.5519,3.5459,3.4861,3.4233,3.3604,3.3036,3.2497,3.2019,3.2019,0.0,0.0,0.0,0.0,3.1692,3.1658,3.255,3.3571,3.3774,3.6067,3.8995,4.1724,4.4281,0.0,4.5373,4.5729,4.6172,4.6013,4.6648,4.7055,4.6508,4.536,4.4968,4.6515,4.4808,4.3674,4.4929,4.4013,4.354,4.4404,4.3592,4.3411,4.452,4.4552,4.4098,4.3019,4.3963,4.4516,4.4207,4.4092,4.4833,4.65,4.6205,4.6462,4.7309,4.7309,4.7309,4.7309,4.7309,4.7309,4.7309,4.7309,4.7309,4.7309,4.7309,4.7309,4.7309,4.7309,4.7309,4.7309,4.7309,4.7309,4.7309,4.7309,4.7309,4.7309,0.0,0.0,0.0,0.0,0.0,0.0,0.0,0.0,0.0,0.0,0.0,0.0,0.0,0.0,0.0,0.0,0.0,0.0,0.0,0.0,0.0,3.534,3.5459,3.5519,3.5519,3.5519,3.5519,3.5519,3.5519,3.6058,3.7165,3.7315,3.7404,3.7404,3.7494,3.7195,3.6567,3.5908,3.5579,3.5519,3.5519,3.5519,3.5489,3.54,3.4951,3.4354,3.4264,3.4204,3.4114,3.4114,3.4114,0.0,0.0,0.0,3.2378,3.2378,3.2915,3.3754,3.4914,0.0,4.0007,0.0,4.2879,4.4011,0.0,0.0,4.6562,0.0,4.4776,4.4173,4.5751,4.4528,4.3624,4.4654,4.4567,4.4052,4.3414,4.3875,4.4354,4.4455,4.3592,4.3559,4.4976,4.4755,4.4022,4.2922,4.4229,4.4477,4.3112,4.4593,4.5623,4.5924,4.6697,4.7149,4.7309,4.7309,4.7309,4.7309,4.7309,4.7309,4.7309,4.7309,4.7309,4.7309,4.7309,4.7309,4.7309,4.7309,4.7309,4.7309,4.7309,4.7309,4.7309,4.7309,4.7309,4.7309,0.0,0.0,0.0,0.0,0.0,0.0,0.0,0.0,0.0,0.0,0.0,0.0,0.0,0.0,0.0,0.0,0.0,0.0,0.0,0.0,0.0,3.5489,3.5519,3.5519,3.5519,3.5519,3.5519,3.5519,3.5519,3.6357,3.7973,3.8362,3.8721,3.908,3.8691,3.8153,3.7494,3.6477,3.5848,3.5519,3.5519,3.5519,3.5459,3.507,3.4773,3.4444,3.4053,0.0,3.3933,3.3933,3.3933,3.3873,3.3574,0.0,0.0,0.0,3.3275,3.3933,3.5998,3.7812,3.9475,0.0,4.2462,4.3571,4.4472,4.5214,4.5615,4.5373,4.4494,4.4163,4.5735,4.5029,4.4672,4.6006,4.5212,4.4567,4.5073,4.4699,4.4573,4.5147,4.4332,4.4201,4.5435,4.5354,4.478,4.3729,4.4818,4.5246,4.4545,4.5326,4.6077,4.6638,4.7062,4.7309,4.7309,4.7309,4.7309,4.7309,4.7309,4.7309,4.7309,4.7309,4.7309,4.7309,4.7309,4.7309,4.7309,4.7309,4.7309,4.7309,4.7309,4.7309,4.7309,4.7309,4.7309,4.7309,0.0,0.0,0.0,0.0,0.0,0.0,0.0,0.0,0.0,0.0,0.0,0.0,0.0,0.0,0.0,0.0,0.0,0.0,0.0,0.0,0.0,3.5519,3.5519,3.5519,3.5519,3.5519,3.5519,3.5519,3.5519,3.6596,3.8661,3.917,4.0127,4.1354,4.0187,3.92,3.8302,3.7015,3.6297,3.5968,3.5639,3.5519,3.5459,3.4921,3.4741,3.4651,3.3993,0.0,0.0,0.0,3.3873,3.3993,3.3814,3.3305,0.0,0.0,0.0,3.3993,0.0,0.0,3.8542,4.0217,4.1743,4.3021,0.0,0.0,4.4718,0.0,4.4744,4.4807,4.5702,4.5383,4.5364,4.6555,4.5606,4.5039,4.6034,4.5321,4.4961,4.5689,4.4915,4.4823,4.6077,4.5958,4.5508,4.473,4.5598,4.6077,4.5824,4.5857,4.6241,4.6997,4.689,4.689,4.704,4.707,4.713,4.7309,4.713,4.716,4.7309,4.7309,4.7309,4.7309,4.7309,4.7309,4.7309,4.7309,4.7309,4.7309,4.7309,4.7309,4.7309,4.7309,4.7309,4.7309,0.0,0.0,0.0,0.0,0.0,0.0,0.0,0.0,0.0,0.0,0.0,0.0,0.0,3.2527,3.2497,3.2557,0.0,0.0,0.0,0.0,0.0,3.5519,3.5519,0.0,3.5519,3.5519,3.5519,3.5519,3.5519,3.6836,3.9379,3.9373,4.1047,4.4018,4.1474,3.9619,3.8302,3.7015,3.6806,3.7195,3.5998,3.5519,3.5519,0.0,0.0,0.0,0.0,0.0,0.0,0.0,0.0,0.0,0.0,0.0,3.3335,0.0,0.0,0.0,0.0,3.6507,0.0,3.8362,4.0038,0.0,0.0,0.0,4.4504,4.5132,4.5239,4.5299,4.5317,4.4802,4.4369,4.4443,4.5173,4.5417,4.4527,4.5173,4.5734,4.5779,4.4915,4.5052,4.7019,4.6344,4.5779,4.5734,4.6638,4.6814,4.5824,4.6091,4.6296,4.6339,4.5753,4.5723,4.6339,4.6339,4.6681,4.7309,4.6681,4.6711,4.7309,4.7309,4.7309,4.7309,4.7309,4.7309,4.7309,4.7309,4.7309,4.7309,4.7309,4.7309,4.7309,4.7309,4.7309,4.7309,0.0,0.0,0.0,0.0,0.0,0.0,0.0,0.0,0.0,0.0,0.0,0.0,0.0,3.3784,3.3963,3.4382,3.4651,0.0,0.0,0.0,0.0,3.5519,3.5519,3.5519,3.5519,3.5519,3.5519,3.5519,3.5519,3.6417,3.8153,3.902,4.0001,4.1175,4.1085,4.0756,4.0157,3.8003,3.6985,3.6746,3.5848,3.5519,0.0,0.0,0.0,0.0,0.0,0.0,0.0,0.0,0.0,0.0,0.0,0.0,0.0,0.0,0.0,0.0,0.0,0.0,0.0,3.7015,3.8003,3.905,3.9948,4.1354,4.2455,4.2478,4.3642,4.4395,4.3517,4.424,4.5054,4.5493,4.5505,4.5516,4.5537,4.5887,4.5957,4.5513,4.5932,4.6359,4.6625,4.6737,4.6592,4.6134,4.6437,4.6301,4.5526,4.5615,4.5663,4.5663,4.5424,4.5424,4.5663,4.5663,4.5783,4.6022,4.5783,4.6022,4.6681,4.6681,4.689,4.7309,4.7309,4.7309,4.7309,4.7309,4.7309,4.7309,4.7309,4.7309,4.7309,4.7309,4.7309,4.7309,0.0,0.0,0.0,0.0,0.0,0.0,0.0,0.0,0.0,3.3125,0.0,0.0,0.0,0.0,3.4683,3.513,3.537,3.5519,3.5519,3.5519,3.5519,3.5519,3.5519,3.5519,3.5519,3.528,3.528,3.5519,3.528,3.5938,3.7434,3.8332,3.911,3.9768,4.0427,4.0846,4.0905,3.8691,3.7494,3.7045,3.6178,0.0,3.5848,0.0,0.0,0.0,0.0,0.0,0.0,0.0,0.0,0.0,0.0,0.0,0.0,0.0,0.0,0.0,3.531,0.0,0.0,0.0,0.0,3.7255,3.7913,3.926,4.0457,4.0666,4.1942,4.2782,4.2134,4.3113,4.4325,4.5302,4.5364,4.5454,4.5903,4.5963,4.5813,4.5334,4.6082,4.6471,4.6022,4.6381,4.6441,4.6022,4.5963,0.0,4.5304,4.5095,4.4855,4.4646,4.4855,4.4975,4.4975,4.4975,4.5065,4.5304,4.5065,4.5334,4.5963,4.5963,4.6352,4.698,4.698,4.71,4.7309,4.7309,4.7309,4.7309,4.7309,4.7309,4.7309,4.7309,4.7309,4.7309,0.0,0.0,0.0,0.0,0.0,0.0,0.0,0.0,0.0,3.4324,0.0,0.0,0.0,0.0,0.0,3.4563,3.516,3.5519,3.5519,3.5519,3.5519,3.5519,0.0,0.0,3.5519,3.4861,3.4863,3.5519,3.4863,3.5489,3.7345,3.7375,3.8422,4.0247,3.9649,3.9709,4.0217,3.8931,3.8362,3.8272,3.6985,3.6507,3.6596,0.0,0.0,0.0,3.7434,3.7045,0.0,3.5789,0.0,0.0,0.0,0.0,0.0,0.0,0.0,0.0,0.0,0.0,0.0,0.0,0.0,0.0,3.7225,0.0,3.8721,4.0038,4.0337,4.0546,4.1205,4.1324,4.1861,4.3425,4.4541,4.5185,4.5244,4.5214,4.5214,4.5244,4.5244,4.5274,4.5274,4.5274,4.5274,4.5274,4.5274,4.5244,4.5244,4.4616,4.3947,4.3319,4.3958,4.4287,4.4287,4.4287,4.4616,4.5214,4.4586,4.4616,4.5274,4.5274,4.5633,4.6249,4.6279,4.6681,4.7279,4.7309,4.7309,4.7309,4.7309,4.7309,4.7309,4.7309,4.7309,4.7309,0.0,0.0,0.0,0.0,0.0,0.0,3.3215,3.3634,3.4084,0.0,0.0,0.0,3.522,3.5639,3.5971,3.5971,3.6118,3.5998,3.5549,3.5519,3.5519,3.5519,3.5519,3.5519,3.5519,3.531,3.531,3.5519,3.531,3.5489,3.6058,3.6507,3.7045,3.7584,3.7853,3.8063,3.8212,3.7823,3.7973,3.8272,3.6985,3.7045,0.0,0.0,0.0,0.0,0.0,3.7704,3.7135,0.0,3.6596,3.6118,0.0,0.0,0.0,0.0,0.0,0.0,3.5459,0.0,0.0,0.0,0.0,0.0,0.0,0.0,3.7255,3.8063,3.8631,3.917,3.9828,3.9948,4.0256,4.119,4.1978,4.2791,4.3778,4.3479,4.3329,4.3808,4.4287,4.4586,4.4586,4.5005,4.5095,0.0,4.4586,4.4377,4.3898,4.3678,4.3469,4.329,4.3469,4.3559,4.3559,4.3559,4.3648,4.3828,4.3648,4.3958,4.4586,4.4586,4.4945,4.5603,4.6112,4.6441,4.6621,4.71,4.7309,4.7309,4.7309,4.7309,4.7309,4.7309,4.7309,4.7309,0.0,0.0,0.0,0.0,0.0,0.0,3.3934,3.4472,3.4921,0.0,0.0,0.0,3.5878,3.6716,3.7075,3.6537,3.6477,3.6207,3.5549,3.5519,3.5519,3.5519,3.5519,3.5519,3.5519,3.522,3.522,3.5519,3.522,3.537,3.5908,3.6028,3.6237,3.6507,3.6866,3.6866,3.6656,3.7195,3.7644,3.7973,3.7793,0.0,0.0,3.899,3.908,0.0,0.0,0.0,3.8571,3.8003,3.7225,0.0,0.0,0.0,0.0,0.0,0.0,0.0,0.0,0.0,0.0,0.0,0.0,0.0,3.5519,3.5789,3.6267,3.6896,3.7315,3.7793,3.8452,3.8571,3.8691,3.908,3.9469,4.0397,4.2282,4.2261,4.2102,4.2491,4.2851,4.309,4.309,4.3449,4.3629,4.3509,4.3509,4.3449,4.329,4.329,4.329,4.329,4.329,4.329,4.329,4.329,4.329,4.329,4.329,4.3499,4.3858,4.3858,4.4257,4.4915,4.5304,4.5771,4.6309,4.6741,4.707,4.7309,4.7309,4.7309,4.7309,4.7309,4.7309,4.7309,0.0,0.0,0.0,3.2617,3.3784,3.4743,3.4743,3.522,3.5669,0.0,3.5878,3.6178,3.6836,3.7853,3.8063,3.6896,3.6746,3.6417,3.5759,3.5639,3.5609,3.5609,3.5549,3.5549,3.5609,3.4951,3.4921,3.5609,3.4921,3.5282,3.6477,3.5818,3.5848,3.6477,0.0,0.0,3.5579,3.6866,3.7404,3.7524,3.8871,3.9499,0.0,0.0,4.1422,4.1384,4.1474,4.1055,4.0307,3.896,3.7644,0.0,0.0,0.0,0.0,0.0,3.5519,0.0,0.0,0.0,0.0,0.0,0.0,0.0,3.5519,3.5519,3.5669,3.6267,3.6387,3.6537,3.7105,3.7195,3.7225,3.7285,3.7315,3.8182,4.0696,4.0995,4.0995,4.1145,4.1085,4.1153,4.1265,4.1265,4.1572,4.2231,4.2291,4.2491,4.305,4.314,4.32,4.32,4.326,4.329,4.329,4.329,4.329,4.329,4.329,4.329,4.329,4.329,4.3618,4.4197,4.4287,4.5005,4.607,4.6219,4.6711,4.7309,4.7309,4.7309,4.7309,4.7309,4.7309,4.7309,0.0,0.0,0.0,3.3305,3.4861,3.6088,3.6088,3.6207,3.6656,3.7704,3.8302,3.8901,3.9559,3.9379,3.911,3.8871,3.8332,3.7734,3.7075,3.6567,3.6297,3.6297,3.5789,3.5759,3.6267,3.5639,3.5639,3.6297,3.5639,3.5699,3.6477,3.5818,3.5848,3.6477,3.5938,0.0,3.5579,3.6866,3.7404,3.7524,3.8871,4.0068,4.1025,4.1294,4.1422,4.1444,4.2021,4.1782,4.0995,3.9679,3.8332,3.7135,0.0,0.0,0.0,0.0,0.0,0.0,0.0,0.0,0.0,0.0,0.0,0.0,3.5519,3.5519,3.5549,3.5669,3.5699,3.5729,3.5848,3.5878,3.6058,3.6596,3.6656,3.7195,3.8751,3.8512,3.8571,3.9679,3.932,3.9409,4.0487,4.0606,4.0876,4.1534,4.1602,4.1624,4.1743,4.2252,4.259,4.259,4.306,4.329,4.329,4.329,4.329,4.329,4.329,4.329,4.329,4.329,4.3349,4.3529,4.4077,4.4466,4.4796,4.5831,4.6711,4.7309,4.7309,4.7309,4.7309,4.7309,4.7309,4.7309,0.0,0.0,3.4083,3.4442,3.5848,3.7045,3.7375,3.7734,3.8302,3.926,4.0277,4.0876,4.0876,4.0606,4.0127,0.0,0.0,0.0,0.0,3.7135,3.6956,3.6956,3.6626,3.6596,3.6926,3.6626,3.6626,3.6956,3.6297,3.6477,3.7404,3.6118,3.6207,3.7375,3.6088,3.5848,3.6507,3.7135,3.7584,3.8033,3.9709,0.0,4.1444,4.2102,4.2372,4.2402,4.2731,4.2432,4.1722,4.0337,3.923,0.0,0.0,3.6956,3.6806,0.0,3.5998,3.5938,0.0,0.0,0.0,3.5519,0.0,0.0,0.0,3.5519,3.5519,3.5519,3.5519,3.5519,3.5519,3.5519,3.5609,3.5938,3.5998,3.6207,3.6866,3.7225,3.7644,3.8332,3.8123,3.8182,3.8841,3.8901,3.917,3.9828,4.0516,4.0876,4.0876,4.1871,4.241,4.241,4.3,4.329,4.329,4.329,4.329,4.329,4.329,4.329,4.329,4.329,4.329,4.3319,4.3648,4.4197,4.4855,4.5544,4.6411,4.7309,4.7309,4.7309,4.7309,4.7309,4.7309,4.7309,0.0,0.0,0.0,3.522,3.6477,3.7584,3.8123,0.0,3.9589,4.0636,4.1961,4.262,4.2231,0.0,0.0,0.0,0.0,0.0,0.0,3.7883,3.7584,3.7584,3.7494,3.7464,3.7584,3.7464,3.7464,3.7584,3.6985,3.7255,3.8362,3.6656,3.6776,3.8332,3.6626,3.6447,3.7434,3.7554,3.7973,3.8751,0.0,4.1422,4.1504,4.2701,4.32,4.326,4.314,4.2731,4.2021,4.0816,3.9948,3.92,3.7973,3.7584,0.0,0.0,0.0,0.0,0.0,0.0,0.0,0.0,0.0,3.5699,0.0,0.0,0.0,3.5519,3.5519,3.5519,0.0,0.0,0.0,3.534,0.0,0.0,0.0,3.6297,0.0,3.7045,3.7045,3.7075,3.7225,3.7345,3.7614,3.8153,3.92,3.9888,4.0008,4.1145,4.1901,4.2021,4.2731,4.315,4.315,4.323,4.329,4.329,4.329,4.329,4.329,4.329,4.329,4.329,4.329,4.3888,4.4945,4.5185,4.5873,4.677,4.716,4.7309,4.7309,4.7309,4.7309,4.7309,3.3484,3.3963,0.0,0.0,3.6148,3.7434,0.0,0.0,3.9379,4.1841,4.3269,4.4287,0.0,0.0,0.0,0.0,0.0,0.0,4.1722,0.0,0.0,3.8272,3.7734,3.7674,3.8272,3.7704,3.7704,3.8272,3.7614,3.7674,3.8362,3.7584,3.7614,3.8362,3.7554,3.7285,3.7434,3.8033,3.8661,0.0,4.0816,4.1422,0.0,4.2231,4.2821,4.323,4.2671,4.2081,4.1422,0.0,3.9948,3.929,0.0,3.8272,3.8153,3.7494,0.0,0.0,0.0,0.0,0.0,0.0,3.6776,0.0,0.0,0.0,3.5519,3.5519,0.0,0.0,0.0,0.0,0.0,0.0,0.0,0.0,3.4713,3.525,3.5729,3.5729,3.5729,3.5938,3.6537,3.7075,3.7434,3.7524,3.7644,3.8003,3.8601,3.9349,4.0008,4.0606,4.1871,4.25,4.25,4.303,4.329,4.329,4.329,4.329,4.329,4.329,4.329,4.329,4.329,4.3379,4.3618,4.4825,4.5035,4.4825,4.6621,4.7309,4.7309,4.7309,4.7309,4.7309,3.4144,3.4622,0.0,0.0,3.6327,0.0,0.0,0.0,4.294,4.4466,4.5484,4.6441,0.0,0.0,0.0,0.0,0.0,4.1324,0.0,0.0,0.0,0.0,3.8721,3.8691,3.899,3.8721,3.8721,3.899,3.8302,3.8332,3.896,3.7913,3.7973,3.8931,3.7883,3.7853,3.8601,0.0,3.9379,0.0,0.0,4.1662,0.0,4.2671,4.309,4.326,4.303,4.2491,4.1901,0.0,4.0516,0.0,0.0,0.0,0.0,0.0,0.0,0.0,0.0,0.0,0.0,0.0,0.0,0.0,3.7015,0.0,3.6507,0.0,0.0,0.0,0.0,0.0,0.0,0.0,3.531,0.0,0.0,0.0,3.5519,0.0,0.0,0.0,3.5878,3.6148,3.6297,3.6297,3.6656,3.6985,3.7255,3.8631,3.9559,3.9828,4.1115,4.2021,4.241,4.2641,4.294,4.329,4.329,4.329,4.329,4.329,4.329,4.329,4.329,4.3499,4.3917,4.4496,4.4796,4.5005,4.6262,4.6741,4.6741,4.6741,4.698,4.7309,3.4771,0.0,0.0,0.0,0.0,0.0,0.0,0.0,4.4736,4.6142,4.6741,0.0,4.9613,4.7758,0.0,0.0,4.5364,4.3489,0.0,0.0,3.9978,0.0,0.0,0.0,0.0,3.9373,3.9373,3.9373,3.8901,3.8931,3.9409,3.8422,3.8482,3.9379,3.8571,3.8781,3.9709,0.0,4.0337,4.0965,4.1482,4.2081,4.2671,4.315,4.329,4.326,4.312,4.2761,4.2291,4.1632,4.0935,0.0,3.9828,0.0,0.0,0.0,0.0,0.0,3.8093,0.0,0.0,0.0,0.0,0.0,0.0,0.0,0.0,0.0,0.0,0.0,0.0,0.0,0.0,0.0,0.0,3.5429,0.0,3.54,0.0,0.0,0.0,0.0,0.0,3.5519,3.5519,3.5519,3.5938,3.6297,3.6477,3.8003,3.896,3.914,4.0427,4.1482,4.2141,4.2141,4.2521,4.329,4.315,4.311,4.329,4.329,4.329,4.329,4.329,4.3559,4.4047,4.4227,4.4496,4.4855,4.5693,4.6052,4.6082,4.6441,4.689,4.7309,3.5459,3.5489,0.0,0.0,0.0,0.0,0.0,4.0606,4.2671,4.5903,4.6352,0.0,0.0,0.0,0.0,0.0,0.0,4.686,4.6202,0.0,4.1414,0.0,0.0,3.9373,0.0,0.0,3.9373,3.9373,3.9409,3.9409,3.9373,3.9379,3.9379,3.9439,4.0038,4.0337,4.0397,4.1055,4.1722,4.2351,4.2351,4.2731,4.326,0.0,4.329,4.32,4.2611,0.0,0.0,4.1632,4.0935,0.0,0.0,0.0,0.0,0.0,0.0,0.0,0.0,0.0,0.0,3.9313,0.0,0.0,0.0,0.0,3.7404,0.0,0.0,0.0,0.0,0.0,0.0,0.0,0.0,0.0,0.0,0.0,0.0,0.0,0.0,0.0,0.0,3.5519,3.5519,0.0,3.5519,3.5818,3.6447,3.7105,3.7764,3.8392,3.9738,4.0756,4.1452,4.1414,4.2073,4.329,4.2701,4.2731,4.329,4.329,4.329,4.329,4.329,4.329,4.3379,4.4007,4.3958,4.3499,4.4825,4.5334,4.5484,4.68,4.7279,4.7309,3.5519,3.5519,3.5519,3.5519,0.0,0.0,3.9619,4.1923,4.4825,4.9015,4.9553,0.0,0.0,5.461,5.4281,0.0,0.0,5.0541,4.897,4.6441,0.0,0.0,0.0,4.0965,0.0,0.0,0.0,0.0,0.0,3.9373,3.9373,3.9373,3.9373,0.0,0.0,3.9978,0.0,0.0,0.0,0.0,0.0,4.3389,4.3888,0.0,4.329,4.326,4.309,4.2731,0.0,4.2141,4.1632,4.0965,4.0546,4.0546,4.0546,3.9679,3.9738,3.9978,0.0,0.0,3.9373,3.9373,0.0,0.0,0.0,0.0,0.0,0.0,0.0,0.0,0.0,0.0,0.0,0.0,0.0,0.0,0.0,0.0,0.0,0.0,0.0,0.0,0.0,0.0,0.0,0.0,3.5519,0.0,3.5818,3.6836,3.7494,3.7734,3.905,4.0068,4.0726,4.1175,4.1833,4.2701,4.291,4.312,4.329,4.329,4.329,4.329,4.329,4.329,4.3319,4.3529,4.3738,4.4077,4.4945,4.5574,4.6022,4.6501,4.692,4.7309,3.5848,3.5669,3.5519,3.5519,3.6058,3.7404,4.0008,4.324,4.6711,5.0345,5.1887,0.0,5.8052,0.0,5.7363,0.0,5.6047,5.3593,5.0405,4.882,0.0,4.3768,4.3269,0.0,0.0,0.0,0.0,0.0,0.0,3.9649,3.9373,3.9373,0.0,0.0,0.0,4.0127,4.0786,4.1444,4.2141,0.0,0.0,4.3559,0.0,0.0,4.3439,4.3618,0.0,4.306,4.2701,4.2701,4.2282,4.1692,4.1235,4.1235,4.1205,4.0367,4.0247,4.0367,4.0157,3.9948,0.0,3.9768,3.9768,0.0,3.9433,0.0,0.0,0.0,0.0,0.0,0.0,0.0,0.0,0.0,0.0,0.0,0.0,3.5519,0.0,0.0,0.0,0.0,0.0,0.0,0.0,0.0,0.0,0.0,0.0,3.6716,3.7404,3.7404,3.8686,3.9738,4.0397,4.0816,4.1512,4.241,4.2791,4.312,4.329,4.329,4.329,4.329,4.329,4.3439,4.3648,4.3648,4.4077,4.4736,4.5394,4.5933,4.6309,4.6591,4.695,4.7309,3.6477,3.6028,3.5669,3.5699,3.7225,3.8901,4.0277,4.4377,4.8057,5.0106,5.3294,5.6346,5.9009,5.9308,5.9308,5.9308,5.868,5.6055,5.0973,5.1122,0.0,0.0,4.4646,4.4227,4.3409,0.0,0.0,0.0,0.0,0.0,0.0,0.0,0.0,0.0,4.0068,0.0,4.1452,4.2081,4.2701,4.329,4.329,4.3319,4.3349,4.329,4.3708,4.4227,4.3529,4.329,4.329,4.329,4.291,4.244,4.241,4.1991,4.1474,4.1414,4.0965,4.0636,4.1235,4.0935,4.0457,4.0457,4.0457,0.0,0.0,0.0,3.9469,0.0,0.0,0.0,0.0,0.0,0.0,0.0,0.0,0.0,0.0,0.0,0.0,0.0,0.0,0.0,0.0,0.0,0.0,0.0,0.0,0.0,0.0,3.6716,3.7404,3.7404,3.8751,3.9768,4.0397,4.0457,4.1115,4.241,4.244,4.2731,4.329,4.329,4.329,4.329,4.329,4.3678,4.4317,4.4317,4.4706,4.5394,4.6082,4.6309,4.6441,4.707,4.7309,4.7309,3.6477,3.7105,3.7823,3.8332,3.8811,3.9768,4.1632,4.4945,4.8716,5.2665,5.5628,5.856,6.1702,6.2061,6.2061,6.2061,6.1014,0.0,0.0,0.0,0.0,5.0301,4.9254,4.7445,4.4855,4.3988,0.0,4.1115,0.0,0.0,4.0127,0.0,0.0,0.0,0.0,4.0307,4.1384,4.1602,4.2282,4.329,4.329,4.3589,4.4018,0.0,4.3708,4.4227,4.3529,4.329,4.329,4.329,4.32,4.3,4.256,4.2581,4.2641,4.1654,4.1632,4.1841,4.1512,4.1265,4.1115,4.1115,4.1115,4.0965,0.0,0.0,0.0,0.0,0.0,0.0,0.0,0.0,0.0,0.0,0.0,0.0,0.0,0.0,0.0,3.5519,0.0,0.0,0.0,0.0,0.0,0.0,0.0,0.0,0.0,0.0,3.7404,3.7404,3.92,4.0217,4.0397,4.1422,4.2081,4.241,4.2851,4.314,4.329,4.329,4.329,4.329,4.329,4.3678,4.4317,4.4317,4.5005,4.6082,4.6219,4.6621,4.707,4.7249,4.7309,4.7309,3.7255,3.905,4.0487,4.0307,4.1953,4.3569,4.4407,4.6591,4.9613,5.3683,5.6735,0.0,6.1134,6.2391,6.2959,6.266,6.1972,0.0,5.8381,0.0,0.0,5.2785,5.1648,4.9673,4.6681,4.5394,0.0,4.1422,0.0,0.0,3.9948,0.0,0.0,0.0,0.0,4.0157,4.1452,4.1983,4.2641,4.329,4.329,4.3529,0.0,4.3439,4.3529,4.3798,4.3439,4.329,4.329,4.329,4.329,4.323,4.291,4.303,4.314,4.2462,4.2282,4.2381,4.2252,4.2013,4.1841,4.1841,4.1841,4.1602,4.0606,4.0397,4.0217,0.0,3.9373,3.9254,0.0,0.0,0.0,0.0,0.0,0.0,0.0,0.0,0.0,0.0,3.5519,0.0,0.0,0.0,0.0,0.0,0.0,0.0,0.0,0.0,3.7404,3.7404,3.9649,4.0696,4.0397,4.1983,4.2641,4.241,4.303,4.329,4.329,4.329,4.3439,4.3738,4.3738,4.4276,4.5185,4.5185,4.5813,4.6741,4.6741,4.698,4.7309,4.7309,4.7309,4.7309,3.8542,4.1324,0.0,0.0,4.5394,4.8356,4.8237,4.9404,5.1349,5.4341,5.7573,5.9608,5.9608,6.1702,6.2839,6.2271,0.0,6.0835,5.7812,5.862,5.7573,5.3862,5.2995,5.1289,4.8476,4.6531,0.0,0.0,0.0,4.0756,3.9559,0.0,0.0,0.0,0.0,0.0,0.0,4.2751,4.329,4.329,4.329,4.329,4.329,4.329,4.329,4.329,4.329,4.329,4.329,4.329,4.329,4.329,4.329,4.329,4.329,4.329,4.294,4.265,4.314,4.291,4.253,4.253,4.253,4.2201,4.0935,4.0576,4.0367,3.9798,3.9493,3.9439,0.0,0.0,0.0,0.0,0.0,0.0,0.0,0.0,0.0,0.0,0.0,0.0,0.0,0.0,0.0,0.0,0.0,0.0,0.0,0.0,3.7404,3.7404,4.0008,4.1145,4.0666,4.2432,4.309,4.265,4.309,4.329,4.329,4.3379,4.3738,4.4317,4.4407,4.5155,4.6279,4.6279,4.6711,4.7309,4.7309,4.7309,4.7309,4.7309,4.7309,4.7309,4.0038,0.0,0.0,0.0,4.6381,4.9972,5.2606,5.4551,5.6137,5.7274,6.0326,6.2391,6.2391,6.281,6.3019,6.2929,6.2421,0.0,0.0,0.0,0.0,5.6526,5.5299,5.2905,4.9209,4.7698,4.5394,0.0,4.1692,4.0995,4.0217,0.0,0.0,0.0,0.0,0.0,4.1474,4.2751,0.0,4.329,4.329,4.329,4.329,4.329,4.329,4.329,4.329,4.329,4.329,4.329,4.329,4.329,4.329,4.329,4.329,4.329,4.323,4.314,4.326,4.32,4.311,4.311,4.311,4.297,4.2231,4.1632,4.1175,4.1055,4.0187,3.9553,4.0127,0.0,0.0,0.0,0.0,0.0,0.0,0.0,0.0,0.0,0.0,3.5519,0.0,0.0,0.0,0.0,0.0,0.0,0.0,0.0,3.7404,0.0,4.0008,0.0,0.0,0.0,4.3499,4.3958,4.3499,4.329,4.3319,4.3858,4.4197,4.4347,4.4885,4.5574,4.6279,4.6279,4.6711,4.7309,4.7309,4.7309,4.7309,4.7309,4.7309,4.7309,4.3389,0.0,0.0,0.0,4.9912,5.3204,5.5837,5.8501,5.9817,5.877,6.0027,6.1014,6.1014,6.2241,6.3079,6.3079,6.278,6.2181,6.1194,6.0805,5.9727,5.7723,5.6406,0.0,5.0361,4.8656,4.6172,4.288,4.1863,4.1055,4.0397,0.0,0.0,0.0,0.0,4.1294,0.0,0.0,0.0,4.329,4.329,4.329,4.329,4.329,4.329,4.329,4.329,4.329,4.329,4.329,4.329,4.329,4.329,4.329,4.329,4.329,4.329,4.329,4.329,4.329,4.329,4.329,4.329,4.311,4.256,4.2141,4.1841,4.1444,4.0876,4.0427,4.0397,3.9589,0.0,0.0,0.0,0.0,0.0,0.0,0.0,0.0,0.0,0.0,0.0,0.0,0.0,0.0,0.0,3.5519,3.5519,0.0,3.7404,0.0,0.0,0.0,4.1901,0.0,4.3838,4.3768,4.3798,4.3838,4.3828,4.4526,4.5035,4.5364,4.5693,4.6202,4.683,4.683,4.701,4.7309,4.7309,4.7309,4.7309,4.7309,4.7309,4.7309,0.0,4.7908,0.0,0.0,5.3832,5.6555,5.8112,6.1044,6.2331,6.0236,5.9937,5.9937,5.9937,6.1822,6.3079,6.3079,6.2959,6.2361,6.1194,6.0984,5.9997,5.7992,5.6795,5.461,5.1289,4.9284,4.6741,0.0,4.2222,4.1324,4.0816,0.0,0.0,0.0,0.0,0.0,0.0,0.0,4.329,4.329,4.329,4.329,4.329,4.329,4.329,4.329,4.329,4.329,4.329,4.329,4.329,4.329,4.329,4.329,4.329,4.329,4.329,4.329,4.329,4.329,4.329,4.329,4.329,4.317,4.2671,4.25,4.2291,4.1863,4.1564,4.1175,4.0516,3.9858,0.0,0.0,0.0,0.0,0.0,0.0,0.0,0.0,0.0,0.0,3.5579,0.0,0.0,0.0,0.0,3.5519,3.5519,3.6716,3.7404,0.0,0.0,4.2081,4.1803,0.0,4.4197,4.3917,4.4347,4.4526,4.4556,4.5214,4.5813,4.6279,4.6429,4.683,4.7309,4.7309,4.7309,4.7309,4.7309,4.7309,4.7309,4.7309,4.7309,4.7309,0.0,0.0,5.2875,5.3713,5.6555,5.88,5.8979,6.1343,6.2989,6.275,6.272,6.272,6.272,6.2929,6.3079,6.3079,6.254,6.1882,6.1164,6.0535,5.9279,5.7274,5.6526,5.461,5.1289,4.9284,4.695,0.0,4.295,4.2261,0.0,0.0,0.0,0.0,0.0,0.0,0.0,4.306,4.329,4.329,4.329,4.329,4.329,4.329,4.329,4.329,4.329,4.329,4.329,4.329,4.329,4.329,4.329,4.329,4.329,4.329,4.329,4.329,4.329,4.329,4.329,4.329,4.329,4.329,4.323,4.2791,4.256,4.2991,4.2192,4.1175,4.0516,3.9858,3.9409,0.0,0.0,0.0,0.0,0.0,0.0,0.0,0.0,0.0,0.0,3.5519,0.0,0.0,3.5519,3.5519,3.5519,3.6716,3.7404,3.7404,4.0038,4.2013,4.311,4.3928,4.4885,4.598,4.5484,4.5214,4.5214,4.5903,4.6219,4.6309,4.695,4.7249,4.7309,4.7309,4.7309,4.7309,4.7309,4.7309,4.7309,4.7309,4.7309,4.7309,5.3623,5.3803,5.464,5.7274,5.8171,5.9189,6.1194,6.2391,6.3079,6.3079,6.3079,6.3079,6.3079,6.3079,6.3079,6.3079,6.2839,6.2241,6.1194,6.0864,5.9817,5.7812,5.7064,5.5359,5.2456,5.0481,4.8177,0.0,0.0,0.0,0.0,0.0,0.0,0.0,0.0,4.314,4.297,4.32,4.329,4.329,4.329,4.329,4.329,4.329,4.329,4.329,4.329,4.329,4.329,4.329,4.329,4.329,4.329,4.329,4.329,4.329,4.329,4.329,4.329,4.329,4.329,4.329,4.329,4.329,4.329,4.312,4.303,4.323,4.2611,4.1811,4.1115,4.0457,3.9888,3.9499,0.0,0.0,0.0,0.0,0.0,0.0,0.0,0.0,0.0,0.0,0.0,0.0,0.0,3.5669,3.6058,3.6926,3.7584,3.7973,0.0,4.1833,4.2731,4.3778,4.4796,4.5693,4.5843,4.5903,4.5933,4.6591,4.692,4.692,4.7189,4.7309,4.7309,4.7309,4.7309,4.7309,4.7309,4.7309,4.7309,4.7309,4.7309,4.7309,5.6765,5.6286,5.6765,6.0356,6.0206,6.0386,6.272,6.3079,6.3079,6.3079,6.3079,6.3079,6.3079,6.3228,6.3258,6.3079,6.2899,6.2301,6.1194,6.0745,5.9817,5.8201,5.7453,0.0,5.3832,5.1648,4.9388,4.7189,4.4975,0.0,0.0,0.0,0.0,0.0,4.329,4.329,4.329,4.329,4.329,4.329,4.329,4.329,4.329,4.329,4.329,4.329,4.329,4.329,4.329,4.329,4.329,4.329,4.329,4.329,4.329,4.329,4.329,4.329,4.329,4.329,4.329,4.329,4.329,4.329,4.329,4.329,4.329,4.329,4.2821,4.2261,4.1782,4.1145,4.0457,3.9798,0.0,0.0,0.0,0.0,0.0,0.0,3.7704,3.7255,3.6178,3.6058,0.0,0.0,0.0,3.6357,3.7015,3.7464,3.8003,0.0,0.0,0.0,4.298,4.4257,4.5244,4.5903,4.6381,4.6578,4.6621,4.71,4.7309,4.7309,4.7309,4.7309,4.7309,4.7309,4.7309,4.7309,4.7309,4.7309,4.7309,4.7309,4.7429,4.7578,5.8441,5.9069,5.9877,6.257,6.3019,6.3019,6.3079,6.3079,6.3079,6.3079,6.3079,6.3079,6.3079,6.3617,6.3737,6.3139,6.248,6.1822,6.1164,5.9877,5.883,0.0,0.0,5.6496,5.5179,5.2576,5.0571,4.9269,0.0,0.0,4.5244,0.0,4.3958,4.329,4.329,4.329,4.329,4.329,4.329,4.329,4.329,4.329,4.329,4.329,4.329,4.329,4.329,4.329,4.329,4.329,4.329,4.329,4.329,4.329,4.329,4.329,4.329,4.329,4.329,4.329,4.329,4.329,4.329,4.329,4.329,4.329,4.329,4.329,4.2821,4.241,4.2381,4.1841,4.1145,4.0487,0.0,0.0,0.0,0.0,0.0,0.0,3.8392,3.8123,3.7434,3.7375,0.0,0.0,0.0,0.0,0.0,0.0,0.0,3.9379,4.1324,0.0,4.4287,4.5633,4.6621,4.7279,4.7279,4.7309,4.7309,4.7309,4.7309,4.7309,4.7309,4.7309,4.7309,4.7309,4.7309,4.7309,4.7309,4.7309,4.7309,4.7309,4.7728,4.8177,6.0176,6.0835,6.1553,6.2839,6.3079,6.3079,6.3079,6.3079,6.3079,6.3079,6.3079,6.3079,6.3079,6.3258,6.3468,0.0,6.3139,6.248,0.0,6.0954,5.9967,5.883,5.7693,5.6496,5.5209,5.3025,5.102,4.9299,0.0,0.0,0.0,4.4407,4.3958,4.3319,4.3768,4.3977,4.3977,4.3977,4.3977,4.3958,4.3469,4.329,4.329,4.329,4.329,4.329,4.329,4.329,4.329,4.329,4.329,4.329,4.329,4.329,4.329,4.329,4.329,4.329,4.329,4.329,4.329,4.329,4.329,4.329,4.329,4.329,4.329,4.329,4.314,4.288,4.25,4.2231,4.1722,4.0576,4.0397,0.0,3.9463,0.0,0.0,0.0,3.8392,3.8123,3.7464,3.7404,0.0,0.0,0.0,0.0,0.0,0.0,0.0,0.0,4.2222,0.0,4.4975,4.5873,4.6651,4.7309,4.7309,4.7309,4.7309,4.7309,4.7309,4.7309,4.7309,4.7309,4.7309,4.7309,4.7309,4.7309,4.7309,4.7309,4.7369,4.7818,4.8117,4.8267,6.1343,6.1822,6.2301,6.2959,6.3079,6.3079,6.3079,6.3079,6.3079,6.3079,6.3079,6.3169,6.3408,6.3228,6.3228,6.3617,6.3288,6.269,6.1792,6.1104,6.0146,5.88,5.7693,5.6615,5.5598,5.3593,0.0,5.0361,4.8297,4.6411,4.4676,4.4676,4.4466,4.4077,4.4496,4.4556,4.4317,4.4317,4.4167,4.3858,4.3469,4.329,4.329,4.329,4.329,4.329,4.329,4.329,4.329,4.329,4.329,4.329,4.329,4.329,4.329,4.329,4.329,4.329,4.329,4.329,4.329,4.329,4.329,4.329,4.329,4.329,4.329,4.329,4.329,4.317,4.2791,4.2731,4.2372,4.1294,4.0935,4.0546,3.9888,0.0,0.0,0.0,0.0,0.0,0.0,3.8392,3.8781,0.0,0.0,0.0,0.0,0.0,0.0,4.1752,4.303,4.4347,4.5663,4.6352,4.689,4.7309,4.7309,4.7309,4.7309,4.7309,4.7309,4.7309,4.7309,4.7309,4.7309,4.7309,4.7309,4.7309,4.7309,4.7309,4.7369,4.8027,4.8297,4.8297,6.1972,6.2121,6.2361,6.2959,6.3079,6.3079,6.3079,6.3079,6.3079,6.3079,6.3079,6.3288,6.3887,6.3438,6.3079,6.3079,0.0,0.0,6.1253,6.0505,5.9548,5.8321,5.7513,5.6825,5.6256,5.4221,5.2785,5.2007,4.8895,4.6681,4.5364,4.5364,4.5334,4.5304,4.5334,4.5035,4.4466,4.4407,4.3977,4.3409,4.3379,4.3319,4.329,4.3349,4.3319,4.329,4.329,4.329,4.329,4.329,4.3319,4.3349,4.329,4.3319,4.3349,4.329,4.329,4.329,4.329,4.329,4.329,4.3349,4.3379,4.3439,4.3439,4.3439,4.3409,4.3379,4.3349,4.3349,4.329,4.329,4.312,4.244,4.1811,4.1145,4.0427,3.9798,0.0,0.0,0.0,0.0,3.9463,4.0098,4.0217,0.0,0.0,0.0,0.0,0.0,4.1175,4.25,4.3778,4.5065,4.6381,4.701,4.7309,4.7309,4.7309,4.7309,4.7309,4.7309,4.7309,4.7309,4.7309,4.7309,4.7309,4.7309,4.7309,4.7309,4.7309,4.7309,4.7369,4.8027,4.8297,4.8297,6.2061,6.251,6.2899,6.3049,6.3079,6.3079,6.3079,6.3079,6.3079,6.3079,6.3079,6.3139,6.3288,6.3169,6.3079,6.3079,6.263,6.2181,6.1882,6.0745,5.9937,5.9638,5.7992,5.7034,5.6885,5.4461,5.2127,5.0018,4.8686,4.7369,4.6082,4.6082,4.5813,4.5304,4.5843,4.5992,4.5771,4.5274,4.4975,4.4796,4.4287,4.3738,4.3349,4.3898,4.3738,4.329,4.329,4.329,4.329,4.329,4.3618,4.3947,4.3439,4.3648,4.3947,4.3439,4.329,4.329,4.329,4.329,4.3409,4.3958,4.4466,4.4825,4.4825,4.4825,4.4676,4.4197,4.4077,4.3888,4.3379,4.329,4.2901,4.1841,4.1512,4.0965,3.9798,3.9529,3.9373,0.0,3.9858,4.0157,4.0157,4.0756,4.1085,0.0,0.0,0.0,4.1145,4.2102,4.3,4.3838,4.5155,4.6232,4.707,4.7219,4.7309,4.7309,4.7309,4.7309,4.7309,4.7309,4.7309,4.7309,4.7309,4.7309,4.7309,4.7309,4.7309,4.7309,4.7309,4.7309,4.7369,4.8027,4.8297,4.8297,6.254,6.2839,6.3079,6.3079,6.3079,6.3079,6.3079,6.3079,6.3079,6.3079,6.3079,6.3079,6.3079,6.3079,6.3079,6.3079,6.248,6.1972,6.1672,6.0655,5.9668,5.877,5.7663,5.6675,5.5807,5.4072,5.1887,4.9299,4.897,4.8057,4.677,4.677,4.6561,4.6232,4.6591,4.6621,4.6249,4.5933,4.5574,4.5274,4.4915,4.4556,4.4227,4.4287,4.4077,4.3738,4.3738,4.3559,4.3349,4.3648,4.4018,4.4257,4.3858,4.3977,4.4257,4.3858,4.3738,4.3738,4.3738,4.3738,4.3828,4.4227,4.4796,4.5304,4.5304,4.5304,4.5185,4.4825,4.4766,4.4556,4.3898,4.3738,4.3359,4.2081,4.1602,4.1025,4.0008,3.9619,3.9493,3.9828,4.0457,4.0965,4.1265,4.2162,4.2462,4.1901,4.2372,0.0,4.2282,4.3509,4.4257,4.4317,4.5592,4.6651,4.7309,4.7309,4.7309,4.7309,4.7309,4.7309,4.7309,4.7309,4.7309,4.7309,4.7309,4.7309,4.7309,4.7309,4.7309,4.7309,4.7309,4.7309,4.7369,4.8027,4.8087,4.7878,6.3079,6.3079,6.3079,6.3079,6.3079,6.3079,6.3079,6.3079,6.3079,6.3079,6.3079,6.3079,6.3079,6.3079,6.3079,6.3079,6.248,6.1822,6.1164,6.0475,5.9249,5.7334,5.7154,5.6286,5.4551,5.3533,5.1845,4.9299,4.9209,4.8506,4.7309,4.7309,4.7309,4.7309,4.7309,4.698,4.6429,4.6309,4.5992,4.5454,4.5454,4.5394,4.5244,4.4796,4.4496,4.4317,4.4436,4.4007,4.3529,4.4227,4.4526,4.4586,4.4496,4.4526,4.4586,4.4496,4.4526,4.4586,4.4377,4.4466,4.4616,4.4616,4.5125,4.5603,4.5603,4.5603,4.5574,4.5454,4.5454,4.5214,4.4466,4.4317,4.3898,4.262,4.1931,4.1332,4.0636,0.0,3.9948,4.0606,4.1265,4.1923,4.262,4.3748,4.3988,4.292,4.3838,4.4227,4.3618,4.4796,4.5244,4.4796,4.5873,4.6741,4.7309,4.7309,4.7369,4.7459,4.7369,4.7399,4.7608,4.7489,4.7459,4.7459,4.7459,4.7399,4.7309,4.7309,4.7309,4.7309,4.7309,4.7309,4.7369,4.8027,4.7878,4.7399,6.3079,6.3079,6.3079,6.3079,6.3079,6.3079,6.3079,6.3079,6.3079,6.3079,6.3079,6.3079,6.3079,6.3079,6.3079,6.3079,6.248,6.1822,6.1164,6.0475,5.9458,5.8022,5.7393,5.6705,5.5897,5.3563,5.1349,4.9299,4.8716,4.8057,4.7309,4.7309,4.7309,4.7309,4.7309,4.7249,4.713,4.6561,4.6219,4.613,4.613,4.5813,4.5334,4.5813,4.5304,4.4377,4.4945,4.4706,4.4257,4.4915,4.5514,4.5861,4.5334,4.5544,4.5903,4.5304,4.5574,4.5711,4.4616,4.5155,4.598,4.598,4.6501,4.701,4.701,4.701,4.683,4.6262,4.613,4.5783,4.4556,4.4317,4.3898,4.262,4.2321,4.2021,4.1324,0.0,4.1324,4.2021,4.2641,4.326,4.3958,4.4706,4.5065,4.4855,4.5035,4.5095,4.5005,4.5723,4.6381,4.683,4.704,4.7189,4.7309,4.7309,4.7578,4.8117,4.7578,4.7878,4.9,4.8386,4.8147,4.8147,4.8147,4.7818,4.7309,4.7309,4.7309,4.7309,4.7309,4.7309,4.7369,4.8027,4.7878,4.7399,6.3079,6.3079,6.3079,6.3079,6.3079,6.3079,6.3079,6.3079,6.3079,6.3079,6.3079,6.3079,6.3079,6.3079,6.3079,6.3079,6.281,6.2181,6.1194,6.0475,5.9338,5.7633,5.7274,5.6286,5.463,5.2665,5.105,4.9793,4.9134,4.8476,4.7818,4.7489,4.7309,4.7309,4.7309,4.7309,4.7279,4.698,4.686,4.686,4.686,4.6651,4.6381,4.6322,4.5933,4.5424,4.5753,4.5424,4.4945,4.5633,4.6052,4.6262,4.5963,4.6082,4.6219,4.5933,4.6082,4.616,4.5574,4.6112,4.677,4.6369,4.68,4.7309,4.7309,4.7309,4.7219,4.692,4.686,4.6561,4.5574,4.5095,4.4526,4.3569,4.286,0.0,4.1991,4.1961,4.2201,4.289,4.3778,4.4646,4.5334,4.5992,4.6232,4.5873,4.5843,4.5843,4.5843,4.6471,4.716,4.7818,4.8177,4.8356,4.8356,4.8356,4.8506,4.8805,4.8506,4.8686,4.9299,4.9,4.885,4.885,4.885,4.8446,4.7848,4.7848,4.7638,4.7309,4.7309,4.7309,4.7369,4.8027,4.8087,4.7938,6.3079,6.3079,6.3079,6.3079,6.3079,6.3079,6.3079,6.3079,6.3079,6.3079,6.3079,6.3079,6.3079,6.3079,6.3079,6.3079,6.2929,6.2361,6.1194,6.0326,5.9039,5.7184,5.6675,5.5388,5.3234,5.1887,5.0853,5.0196,4.9434,4.882,4.8267,4.7608,4.7309,4.7309,4.7309,4.7309,4.7309,4.7309,4.7309,4.7309,4.7309,4.7309,4.7249,4.6741,4.6471,4.6309,4.6501,4.6112,4.5633,4.6322,4.6518,4.6518,4.6518,4.6518,4.6518,4.6518,4.6518,4.6531,4.6309,4.68,4.7189,4.6681,4.692,4.7309,4.7309,4.7309,4.7309,4.7309,4.7309,4.71,4.6399,4.5903,4.5274,4.4436,0.0,4.286,4.286,4.286,4.312,4.3988,4.4945,4.5813,4.6501,4.701,4.71,4.6591,4.6518,4.6621,4.677,4.7249,4.7908,4.8716,4.9075,4.9239,4.909,4.9239,4.9389,4.9494,4.9389,4.9479,4.9748,4.9553,4.9494,4.9494,4.9494,4.9134,4.8506,4.8506,4.8207,4.7758,4.7758,4.7758,4.7848,4.8506,4.8656,4.864,6.3079,6.3079,6.3079,6.3079,6.3079,6.3079,6.3079,6.3079,6.3079,6.3079,6.3079,6.3079,6.3079,6.3079,6.3079,6.3079,6.251,6.1882,6.1164,5.9907,5.856,5.7154,5.5388,5.4042,5.3204,5.1887,5.0853,5.0196,4.8985,4.8327,4.8267,4.7608,4.7309,4.7309,4.7309,4.7309,4.7309,4.7309,4.7309,4.7309,4.7309,4.7309,4.7309,4.7249,4.686,4.6369,4.701,4.68,4.6309,4.701,4.7249,4.7249,4.7249,4.7249,4.7249,4.7249,4.7249,4.71,4.6501,4.68,4.7309,4.7249,4.7279,4.7309,4.7309,4.7309,4.7309,4.7309,4.7309,4.71,4.6399,4.6249,4.5771,4.4526,0.0,0.0,4.4167,4.4167,4.4646,4.592,4.616,4.6501,4.716,4.7279,4.7279,4.7249,4.7249,4.7489,4.8117,4.8177,4.8775,5.0016,4.9553,4.903,4.8356,4.9,4.9583,5.0106,4.9553,4.9912,5.105,5.0405,5.0106,5.0106,5.0106,4.9793,4.9239,4.9239,4.9209,4.9179,4.9179,4.9179,4.9239,4.9853,4.9703,4.9329,6.3079,6.3079,6.3079,6.3079,6.3079,6.3079,6.3079,6.3079,6.3079,6.3079,6.3079,6.3079,6.3079,6.3079,6.3079,6.3079,6.248,6.1822,6.1164,5.9847,5.8321,5.6585,5.464,5.3443,5.3174,5.1498,5.0435,5.0196,4.9344,4.8686,4.8267,4.8027,4.7698,4.7309,4.7309,4.7309,4.7309,4.7309,4.7309,4.7309,4.7309,4.7309,4.7309,4.7309,4.716,4.695,4.7219,4.716,4.698,4.7219,4.7309,4.7309,4.7309,4.7309,4.7309,4.7309,4.7309,4.7249,4.701,4.713,4.7309,4.7309,4.7309,4.7309,4.7309,4.7309,4.7309,4.7309,4.7309,4.7219,4.698,4.6591,4.6249,4.6202,0.0,4.5065,4.5484,4.5544,4.5753,4.6219,4.6681,4.704,4.7279,4.7309,4.7309,4.7309,4.7698,4.8027,4.8267,4.9045,4.9687,5.0166,5.0391,5.0361,5.0092,5.0361,5.0601,5.084,5.0601,5.075,5.1199,5.096,5.0794,5.0794,5.0794,5.0435,4.9883,4.9883,4.9643,4.9299,4.9299,4.9299,4.9389,5.0002,5.0016,4.9972,6.3079,6.3079,6.3079,6.3079,6.3079,6.3079,6.3079,6.3079,6.3079,6.3079,6.3079,6.3079,6.3079,6.3079,6.3079,6.3079,6.248,6.1822,6.1164,5.9458,5.7782,5.6308,5.4251,5.3174,5.3174,5.1439,5.0405,5.0196,4.9583,4.897,4.8297,4.8087,4.7728,4.7309,4.7309,4.7309,4.7309,4.7309,4.7309,4.7309,4.7309,4.7309,4.7309,4.7309,4.7309,4.7309,4.7309,4.7309,4.7309,4.7309,4.7309,4.7309,4.7309,4.7309,4.7309,4.7309,4.7309,4.7309,4.7309,4.7309,4.7309,4.7309,4.7309,4.7309,4.7309,4.7309,4.7309,4.7309,4.7309,4.7309,4.7309,4.692,4.6711,4.695,4.6232,4.5783,4.6262,4.6279,4.6411,4.6621,4.7219,4.7608,4.7608,4.7788,4.7908,4.7908,4.8327,4.8686,4.8895,4.9717,5.0285,5.0495,5.0734,5.102,5.1229,5.1229,5.1229,5.1229,5.1229,5.1229,5.1229,5.1229,5.1229,5.1229,5.1229,5.096,5.0495,5.0495,5.0272,4.9883,4.9883,4.9883,4.9942,5.0391,5.0495,5.0554,6.3079,6.3079,6.3079,6.3079,6.3079,6.3079,6.3079,6.3079,6.3079,6.3079,6.3079,6.3079,6.3079,6.3079,6.3079,6.3079,6.248,6.1792,6.1134,5.859,5.6825,5.6248,5.4251,5.3174,5.3174,5.1887,5.0853,5.0196,4.9583,4.897,4.8267,4.7608,4.7309,4.7309,4.7309,4.7309,4.7309,4.7309,4.7309,4.7309,4.7309,4.7309,4.7309,4.7309,4.7309,4.7309,4.7309,4.7309,4.7309,4.7309,4.7309,4.7309,4.7309,4.7309,4.7309,4.7309,4.7309,4.7309,4.7309,4.7309,4.7309,4.7309,4.7309,4.7309,4.7309,4.7309,4.7309,4.7309,4.7309,4.7309,4.7309,4.7309,4.71,4.6399,4.6279,4.6279,4.6279,4.6352,4.6591,4.7249,4.7908,4.8297,4.8297,4.894,4.9299,4.9299,4.9299,4.9553,5.0166,5.0196,5.0495,5.1199,5.0524,5.0524,5.1199,5.1229,5.1229,5.1229,5.1229,5.1229,5.1229,5.1229,5.1229,5.1229,5.1229,5.1229,5.1229,5.1229,5.1229,5.1229,5.1229,5.1229,5.1229,5.1229,5.1229,5.1229,6.3079,6.3079,6.3079,6.3079,6.3079,6.3079,6.3079,6.3079,6.3079,6.3079,6.3079,6.3079,6.3079,6.3079,6.3079,6.3079,6.2061,6.0715,5.9129,5.7812,5.6825,5.6248,5.4251,5.3174,5.3174,5.1439,5.0212,4.9553,4.9419,4.873,4.7608,4.7878,4.7758,4.7309,4.7309,4.7309,4.7309,4.7309,4.7309,4.7309,4.7309,4.7309,4.7309,4.7309,4.7309,4.7309,4.7309,4.7309,4.7309,4.7309,4.7309,4.7309,4.7309,4.7309,4.7309,4.7309,4.7309,4.7399,4.7878,4.7997,4.7878,4.7429,4.7638,4.7878,4.7429,4.8027,4.8566,4.8087,4.8356,4.8686,4.8686,4.8297,4.7938,4.7728,4.7309,4.7189,4.7638,4.7698,4.7938,4.8596,4.891,4.903,4.903,4.9209,4.9299,4.9299,4.9673,5.0242,5.09,5.0883,5.102,5.1199,5.102,5.102,5.1229,5.1229,5.1229,5.1229,5.1229,5.1229,5.1229,5.1229,5.1229,5.1229,5.1229,5.1229,5.1229,5.1229,5.1229,5.1229,5.1229,5.1229,5.1229,5.1229,5.1229,5.1229,6.3079,6.3079,6.3079,6.3079,6.3079,6.3079,6.3079,6.3079,6.3079,6.3079,6.3079,6.3079,6.3079,6.3079,6.3079,6.3079,6.1882,6.0475,5.9009,5.7782,5.6944,5.6555,5.464,5.3443,5.3204,5.1768,5.0571,4.9643,4.9643,4.9105,4.8087,4.8476,4.8327,4.7698,4.7698,4.7549,4.7309,4.7309,4.7309,4.7309,4.7309,4.7309,4.7309,4.7309,4.7309,4.7309,4.7309,4.7309,4.7309,4.7309,4.7309,4.7309,4.7309,4.7309,4.7369,4.7608,4.7698,4.7848,4.8506,4.8686,4.8566,4.8177,4.8386,4.8506,4.7848,4.8506,4.9209,4.879,4.903,4.9299,4.9299,4.9,4.8686,4.8686,4.8327,4.8207,4.8626,4.8686,4.888,4.9269,4.9494,4.9643,4.9643,4.9883,5.0032,5.0032,5.0391,5.0764,5.1199,5.1468,5.1498,5.1229,5.1468,5.1468,5.1229,5.1468,5.1468,5.1229,5.1229,5.1349,5.1618,5.1618,5.1618,5.1618,5.1618,5.1468,5.1229,5.1229,5.1229,5.1229,5.1229,5.1229,5.1229,5.1229,5.1229,5.1229,6.3079,6.3079,6.3079,6.3079,6.3079,6.3079,6.3079,6.3079,6.3079,6.3079,6.3079,6.3079,6.3079,6.3079,6.3049,6.2989,6.1792,6.0745,6.0027,5.8231,5.7154,5.7094,5.5359,5.4042,5.3294,5.2576,5.1588,5.0285,5.0226,4.9912,4.9299,4.9299,4.9,4.8386,4.8386,4.7997,4.7399,4.7399,4.7369,4.7309,4.7309,4.7309,4.7309,4.7309,4.7309,4.7309,4.7309,4.7309,4.7309,4.7369,4.7399,4.7399,4.7459,4.7489,4.7608,4.8207,4.8386,4.8506,4.9209,4.9389,4.9419,4.9479,4.9479,4.9299,4.8536,4.8925,4.9479,4.9419,4.9449,4.9479,4.9479,4.9449,4.9389,4.9389,4.9359,4.9329,4.9389,4.9389,4.9419,4.9479,4.9972,5.0285,5.0285,5.0823,5.1229,5.1229,5.1259,5.1319,5.1319,5.1947,5.2007,5.1409,5.1977,5.2007,5.1409,5.1977,5.1917,5.1229,5.1349,5.1678,5.2187,5.2247,5.2247,5.2187,5.2187,5.1828,5.1229,5.1229,5.1229,5.1229,5.1289,5.1259,5.1229,5.1349,5.1319,5.1229,6.2989,6.3079,6.3079,6.3079,6.3079,6.3079,6.3079,6.3079,6.3079,6.3079,6.3079,6.3079,6.3079,6.3079,6.2869,6.2361,6.1074,6.0027,5.9368,5.8441,5.7663,5.7124,5.6226,5.5209,5.4012,5.2815,5.1798,5.0973,5.0435,4.9912,4.9299,4.9299,4.9239,4.909,4.909,4.8686,4.8087,4.8087,4.7788,4.7309,4.7309,4.7309,4.7309,4.7309,4.7309,4.7309,4.7309,4.7309,4.7369,4.7908,4.8087,4.8147,4.8686,4.888,4.8865,4.906,4.909,4.9194,4.9853,5.0032,5.0152,5.0661,5.081,5.0481,4.9314,4.9972,5.0661,5.0122,5.0421,5.081,5.081,5.0361,5.0032,5.0032,4.9613,4.9464,4.9942,5.0032,5.0212,5.075,5.093,5.0973,5.0973,5.1139,5.1229,5.1229,5.1708,5.1977,5.1977,5.2606,5.2905,5.2755,5.2905,5.2905,5.2755,5.2905,5.2366,5.1229,5.2247,5.2546,5.2217,5.2725,5.2695,5.2187,5.2187,5.1828,5.1229,5.1229,5.1229,5.1259,5.1798,5.1678,5.1349,5.2366,5.224,5.1616,6.248,6.26,6.272,6.3019,6.3079,6.3079,6.3079,6.3079,6.3079,6.3079,6.3079,6.3079,6.3079,6.3079,6.269,6.1702,6.0984,6.0146,5.9159,5.8501,5.7962,5.7603,5.6675,5.5837,5.5149,5.3832,5.2665,5.1678,5.102,5.0541,5.0212,5.0212,5.0032,4.9733,4.9733,4.9194,4.8297,4.8297,4.7908,4.7309,4.7309,4.7309,4.7309,4.7309,4.7489,4.7788,4.7788,4.7967,4.8297,4.8626,4.879,4.885,4.9209,4.9299,4.9389,4.9643,4.9733,4.9883,5.0495,5.0674,5.0823,5.1528,5.1678,5.1439,5.0421,5.096,5.1588,5.1259,5.1708,5.2157,5.2157,5.1618,5.1289,5.1588,5.1109,5.078,5.1139,5.1169,5.1199,5.1229,5.1229,5.1349,5.1648,5.1977,5.2157,5.2157,5.2486,5.2665,5.2665,5.3294,5.3533,5.3204,5.3503,5.3503,5.3174,5.3503,5.3144,5.2157,5.2845,5.3174,5.3174,5.3503,5.3473,5.3144,5.3144,5.2785,5.2157,5.2157,5.2157,5.2187,5.2546,5.2456,5.2247,5.2935,5.2738,5.2131,6.2121,6.2271,6.245,6.2989,6.3079,6.3079,6.3079,6.3079,6.3079,6.3079,6.3079,6.3079,6.3079,6.2869,6.2301,6.1224,6.0894,6.0296,5.9189,5.859,5.8201,5.7962,5.6915,5.6226,5.6017,5.482,5.3653,5.2546,5.1768,5.1379,5.1379,5.1259,5.0883,5.0375,5.0375,4.9733,4.8626,4.8506,4.8087,4.7459,4.7369,4.7309,4.7309,4.7309,4.7638,4.8147,4.8237,4.876,4.9329,4.9449,4.9434,4.9464,4.9599,4.9719,4.9883,5.0421,5.0614,5.0823,5.1409,5.1558,5.1708,5.2366,5.2456,5.2247,5.1828,5.1977,5.2247,5.2336,5.2725,5.3054,5.3144,5.2725,5.2546,5.3084,5.2725,5.2366,5.2366,5.2366,5.2157,5.1618,5.1558,5.1768,5.2306,5.2845,5.3174,5.3174,5.3384,5.3473,5.3354,5.4102,5.4221,5.3533,5.4072,5.4102,5.3533,5.4102,5.4102,5.3533,5.3533,5.3773,5.4221,5.4311,5.4311,5.4221,5.4221,5.3832,5.3174,5.3174,5.3174,5.3204,5.3324,5.3294,5.3223,5.3151,5.3104,5.2933,6.272,6.2929,6.2959,6.3049,6.3079,6.3079,6.3079,6.3079,6.3079,6.3079,6.3079,6.3079,6.3079,6.2061,6.1313,6.1134,6.0057,5.9308,5.9129,5.9009,5.8441,5.7274,5.7064,5.6466,5.5359,5.4581,5.4132,5.3952,5.2695,5.2067,5.2067,5.1498,5.1169,5.1079,5.1079,5.0614,4.9897,4.9374,4.879,4.8087,4.7549,4.7309,4.7309,4.7309,4.7369,4.7519,4.8087,4.876,4.9389,4.9912,5.0076,5.0166,5.078,5.1349,5.1828,5.1917,5.2336,5.2785,5.2875,5.2905,5.3084,5.3773,5.3473,5.3174,5.3683,5.2965,5.2366,5.2935,5.2665,5.2516,5.3084,5.3114,5.3084,5.3174,5.3114,5.3054,5.3054,5.3054,5.3025,5.2935,5.2905,5.2965,5.3025,5.3144,5.3174,5.3174,5.4251,5.467,5.4102,5.5239,5.5598,5.494,5.4999,5.4999,5.491,5.4999,5.4999,5.491,5.491,5.467,5.4221,5.479,5.476,5.4221,5.4221,5.3832,5.3174,5.3174,5.3174,5.3234,5.3832,5.3713,5.3211,5.3101,5.3667,5.4552,6.2271,6.254,6.266,6.3019,6.3079,6.3079,6.3079,6.3079,6.3079,6.3079,6.3079,6.3079,6.3079,6.257,6.1912,6.1194,6.0565,5.9907,5.9159,5.9099,5.883,5.8231,5.7483,5.6825,5.6256,5.5269,5.476,5.476,5.3414,5.2546,5.2187,5.1917,5.1558,5.1229,5.1229,5.0794,5.0166,4.9942,4.9434,4.8805,4.8506,4.8386,4.8386,4.8386,4.8626,4.9,4.9673,5.0122,5.0391,5.069,5.0973,5.1379,5.1678,5.2217,5.2755,5.2755,5.2965,5.3174,5.3174,5.3174,5.3354,5.4042,5.3982,5.3922,5.461,5.4012,5.3414,5.3683,5.3803,5.3952,5.4251,5.4012,5.3862,5.4251,5.3982,5.3743,5.3743,5.3743,5.3623,5.3234,5.3533,5.3892,5.4281,5.464,5.4999,5.5329,5.5598,5.5598,5.5329,5.5508,5.5478,5.5209,5.5179,5.5179,5.5179,5.5179,5.5179,5.5179,5.5179,5.5029,5.476,5.5059,5.5029,5.476,5.476,5.4581,5.4311,5.4311,5.4311,5.4341,5.464,5.4581,5.4321,5.4117,5.4188,5.4387]}]]